[[{"header":{"parameterUnit":"m.s-1","parameterCategory":1,"la1":31.0,"la2":29.5877,"lo1":-88.7671,"lo2":-86.6584,"dy":0.0162,"dx":0.0185,"nx":115,"ny":88,"refTime":"2023-05-10T12:00:00:Z","depth":0,"parameterNumber":2,"parameterNumberName":"U-component_of_WINDS"},"data":[0.0,0.0,0.0,0.0,0.0,0.0,0.0,0.0,0.0,0.0,0.0,0.0,0.0,0.0,0.0,0.0,0.0,0.0,0.0,0.0,0.0,0.0,0.0,0.0,0.0,0.0,0.0,0.0,0.0,0.0,0.0,0.0,0.0,0.0,0.0,0.0,0.0,0.0,0.0,0.0,0.0,0.0,0.0,0.0,0.0,0.0,0.0,0.0,0.0,0.0,0.0,0.0,0.0,0.0,0.0,0.0,0.0,0.0,0.0,0.0,0.0,0.0,0.0,0.0,0.0,0.0,0.0,0.0,0.0,0.0,0.0,0.0,0.0,0.0,0.0,0.0,0.0,0.0,0.0,0.0,0.0,0.0,0.0,0.0,0.0,0.0,0.0,0.0,0.0,0.0,0.0,0.0,0.0,0.0,0.0,0.0,0.0,0.0,0.0,0.0,0.0,0.0,0.0,0.0,0.0,0.0,0.0,0.0,0.0,0.0,0.0,0.0,0.0,0.0,0.0,0.0,0.0,0.0,0.0,0.0,0.0,0.0,0.0,0.0,0.0,0.0,0.0,0.0,0.0,0.0,0.0,0.0,0.0,0.0,0.0,0.0,0.0,0.0,0.0,0.0,0.0,0.0,0.0,0.0,0.0,0.0,0.0,0.0,0.0,0.0,0.0,0.0,0.0,0.0,0.0,0.0,0.0,0.0,0.0,0.0,0.0,0.0,0.0,0.0,0.0,0.0,0.0,0.0,0.0,0.0,0.0,0.0,0.0,0.0,0.0,0.0,0.0,0.0,0.0,0.0,0.0,0.0,0.0,0.0,0.0,0.0,0.0,0.0,0.0,0.0,0.0,0.0,0.0,0.0,0.0,0.0,0.0,0.0,0.0,0.0,0.0,0.0,0.0,0.0,0.0,0.0,0.0,0.0,0.0,0.0,0.0,0.0,0.0,0.0,0.0,0.0,0.0,0.0,0.0,0.0,0.0,0.0,0.0,0.0,0.0,0.0,0.0,0.0,0.0,0.0,0.0,0.0,0.0,0.0,0.0,0.0,0.0,0.0,0.0,0.0,0.0,0.0,0.0,0.0,0.0,0.0,0.0,0.0,0.0,0.0,0.0,0.0,0.0,0.0,0.0,0.0,0.0,0.0,0.0,0.0,0.0,0.0,0.0,0.0,0.0,0.0,0.0,0.0,0.0,0.0,0.0,0.0,0.0,0.0,0.0,0.0,0.0,0.0,0.0,0.0,0.0,0.0,0.0,0.0,0.0,0.0,0.0,0.0,0.0,0.0,0.0,0.0,0.0,0.0,0.0,0.0,0.0,0.0,0.0,0.0,0.0,0.0,0.0,0.0,0.0,0.0,0.0,0.0,0.0,0.0,0.0,0.0,0.0,0.0,0.0,0.0,0.0,0.0,0.0,0.0,0.0,0.0,0.0,0.0,0.0,0.0,0.0,0.0,0.0,0.0,0.0,0.0,0.0,0.0,0.0,0.0,0.0,0.0,0.0,0.0,0.0,0.0,0.0,0.0,0.0,0.0,0.0,0.0,0.0,0.0,0.0,0.0,0.0,0.0,0.0,0.0,0.0,0.0,0.0,0.0,0.0,0.0,0.0,0.0,0.0,0.0,0.0,0.0,0.0,0.0,0.0,0.0,0.0,0.0,0.0,0.0,0.0,0.0,0.0,0.0,0.0,0.0,0.0,0.0,0.0,0.0,0.0,0.0,0.0,0.0,0.0,0.0,0.0,0.0,0.0,0.0,0.0,0.0,0.0,0.0,0.0,0.0,0.0,0.0,0.0,0.0,0.0,0.0,0.0,0.0,0.0,0.0,0.0,0.0,0.0,0.0,0.0,0.0,0.0,0.0,0.0,0.0,0.0,0.0,0.0,0.0,0.0,0.0,0.0,0.0,0.0,0.0,0.0,0.0,0.0,0.0,0.0,0.0,0.0,0.0,0.0,0.0,0.0,0.0,0.0,0.0,0.0,0.0,0.0,0.0,0.0,0.0,0.0,0.0,0.0,0.0,0.0,0.0,0.0,0.0,0.0,0.0,0.0,0.0,0.0,0.0,0.0,0.0,0.0,0.0,0.0,0.0,0.0,0.0,0.0,0.0,0.0,0.0,0.0,0.0,0.0,0.0,0.0,0.0,0.0,0.0,0.0,0.0,0.0,0.0,0.0,0.0,0.0,0.0,0.0,0.0,0.0,0.0,0.0,0.0,0.0,0.0,0.0,0.0,0.0,0.0,0.0,0.0,0.0,0.0,0.0,0.0,0.0,0.0,0.0,0.0,0.0,0.0,0.0,0.0,0.0,0.0,0.0,0.0,0.0,0.0,0.0,0.0,0.0,0.0,0.0,0.0,0.0,0.0,0.0,0.0,0.0,0.0,0.0,0.0,0.0,0.0,0.0,0.0,0.0,0.0,0.0,0.0,0.0,0.0,0.0,0.0,0.0,0.0,0.0,0.0,0.0,0.0,0.0,0.0,0.0,0.0,0.0,0.0,0.0,0.0,0.0,0.0,0.0,0.0,0.0,0.0,0.0,0.0,0.0,0.0,0.0,0.0,0.0,0.0,0.0,0.0,0.0,0.0,0.0,0.0,0.0,0.0,0.0,0.0,0.0,0.0,0.0,0.0,0.0,0.0,0.0,0.0,0.0,0.0,0.0,0.0,0.0,0.0,0.0,0.0,0.0,0.0,0.0,0.0,0.0,0.0,0.0,0.0,0.0,0.0,0.0,0.0,0.0,0.0,0.0,0.0,0.0,0.0,0.0,0.0,0.0,0.0,0.0,0.0,0.0,0.0,0.0,0.0,0.0,0.0,0.0,0.0,0.0,0.0,0.0,0.0,0.0,0.0,0.0,0.0,0.0,0.0,0.0,0.0,0.0,0.0,0.0,0.0,0.0,0.0,0.0,0.0,0.0,0.0,0.0,0.0,0.0,0.0,0.0,0.0,0.0,0.0,0.0,0.0,0.0,0.0,0.0,0.0,0.0,0.0,0.0,0.0,0.0,0.0,0.0,0.0,0.0,0.0,0.0,0.0,0.0,0.0,0.0,0.0,0.0,0.0,0.0,0.0,0.0,0.0,0.0,0.0,0.0,0.0,0.0,0.0,0.0,0.0,0.0,0.0,0.0,0.0,0.0,0.0,0.0,0.0,0.0,0.0,0.0,0.0,0.0,0.0,0.0,0.0,0.0,0.0,0.0,0.0,0.0,0.0,0.0,0.0,0.0,0.0,0.0,0.0,0.0,0.0,0.0,0.0,0.0,0.0,0.0,0.0,0.0,0.0,0.0,0.0,0.0,0.0,0.0,0.0,0.0,0.0,0.0,0.0,0.0,0.0,0.0,0.0,0.0,0.0,0.0,0.0,0.0,0.0,0.0,0.0,0.0,0.0,0.0,0.0,0.0,0.0,0.0,0.0,0.0,0.0,0.0,0.0,0.0,0.0,0.0,0.0,0.0,0.0,0.0,0.0,0.0,0.0,0.0,0.0,0.0,0.0,0.0,0.0,0.0,0.0,0.0,0.0,0.0,0.0,0.0,0.0,0.0,0.0,0.0,0.0,0.0,0.0,0.0,0.0,0.0,0.0,0.0,0.0,0.0,0.0,0.0,0.0,0.0,0.0,0.0,0.0,0.0,0.0,0.0,0.0,0.0,0.0,0.0,0.0,0.0,0.0,0.0,0.0,0.0,0.0,0.0,0.0,0.0,0.0,0.0,0.0,0.0,0.0,0.0,0.0,0.0,0.0,0.0,0.0,0.0,0.0,0.0,0.0,0.0,0.0,0.0,0.0,0.0,0.0,0.0,0.0,0.0,0.0,0.0,0.0,0.0,0.0,0.0,0.0,0.0,0.0,0.0,0.0,0.0,0.0,0.0,0.0,0.0,0.0,0.0,0.0,0.0,0.0,0.0,0.0,0.0,0.0,0.0,0.0,0.0,0.0,0.0,0.0,0.0,0.0,0.0,0.0,0.0,0.0,0.0,0.0,0.0,0.0,0.0,0.0,0.0,0.0,0.0,0.0,0.0,0.0,0.0,0.0,0.0,0.0,0.0,0.0,0.0,0.0,0.0,0.0,0.0,0.0,0.0,0.0,0.0,0.0,0.0,0.0,0.0,0.0,0.0,0.0,0.0,0.0,0.0,0.0,0.0,0.0,0.0,0.0,0.0,0.0,0.0,0.0,0.0,0.0,0.0,0.0,0.0,0.0,0.0,0.0,0.0,0.0,0.0,0.0,0.0,0.0,0.0,0.0,0.0,0.0,0.0,0.0,0.0,0.0,-0.9614,0.0,0.0,0.0,0.0,0.0,0.0,0.0,0.0,0.0,0.0,0.0,0.0,0.0,0.0,0.0,0.0,0.0,0.0,0.0,0.0,0.0,0.0,0.0,0.0,0.0,0.0,0.0,0.0,0.0,0.0,0.0,0.0,0.0,0.0,0.0,0.0,0.0,0.0,0.0,0.0,0.0,0.0,0.0,0.0,0.0,0.0,0.0,0.0,0.0,0.0,0.0,0.0,0.0,0.0,0.0,0.0,0.0,0.0,0.0,0.0,0.0,0.0,0.0,0.0,0.0,0.0,0.0,0.0,0.0,0.0,0.0,0.0,0.0,0.0,0.0,0.0,0.0,0.0,0.0,0.0,0.0,0.0,0.0,0.0,0.0,0.0,0.0,0.0,0.0,0.0,0.0,0.0,0.0,0.0,0.0,0.0,0.0,0.0,0.0,0.0,0.0,0.0,0.0,0.0,0.0,0.0,0.0,0.0,0.0,0.0,-0.9614,-0.9614,-0.9614,-0.9614,-0.9614,0.0,0.0,0.0,0.0,0.0,0.0,0.0,0.0,0.0,0.0,0.0,0.0,0.0,0.0,0.0,0.0,0.0,0.0,0.0,0.0,0.0,0.0,0.0,0.0,0.0,0.0,0.0,0.0,0.0,0.0,0.0,0.0,0.0,0.0,0.0,0.0,0.0,0.0,0.0,0.0,0.0,0.0,0.0,0.0,0.0,0.0,0.0,0.0,0.0,0.0,0.0,0.0,0.0,0.0,0.0,0.0,0.0,0.0,0.0,0.0,0.0,0.0,0.0,0.0,0.0,0.0,0.0,0.0,0.0,0.0,0.0,0.0,0.0,0.0,0.0,0.0,0.0,0.0,0.0,0.0,0.0,0.0,0.0,0.0,0.0,0.0,0.0,0.0,0.0,0.0,0.0,0.0,0.0,0.0,0.0,0.0,0.0,0.0,0.0,0.0,0.0,0.0,0.0,0.0,0.0,0.0,0.0,0.0,0.0,0.0,0.0,0.0,-0.9614,-0.9614,-0.9614,0.0,0.0,0.0,0.0,0.0,0.0,0.0,0.0,0.0,0.0,0.0,0.0,0.0,0.0,0.0,0.0,0.0,0.0,0.0,0.0,0.0,0.0,0.0,0.0,0.0,0.0,0.0,0.0,0.0,0.0,0.0,0.0,0.0,0.0,0.0,0.0,0.0,0.0,0.0,0.0,0.0,0.0,0.0,0.0,0.0,0.0,0.0,0.0,0.0,0.0,0.0,0.0,0.0,0.0,0.0,0.0,0.0,0.0,0.0,0.0,0.0,0.0,0.0,0.0,0.0,0.0,0.0,0.0,0.0,0.0,0.0,0.0,0.0,0.0,0.0,0.0,0.0,0.0,0.0,0.0,0.0,0.0,0.0,0.0,0.0,0.0,0.0,0.0,0.0,0.0,0.0,0.0,0.0,0.0,0.0,0.0,0.0,0.0,0.0,0.0,0.0,0.0,0.0,0.0,0.0,0.0,0.0,0.0,0.0,0.0,-0.9614,-0.9614,-0.9614,0.0,-0.9614,0.0,0.0,0.0,0.0,0.0,0.0,0.0,0.0,0.0,0.0,0.0,0.0,0.0,0.0,0.0,0.0,0.0,0.0,0.0,0.0,0.0,0.0,0.0,0.0,0.0,0.0,0.0,0.0,0.0,0.0,0.0,0.0,0.0,0.0,0.0,0.0,0.0,0.0,0.0,0.0,0.0,0.0,0.0,0.0,0.0,0.0,0.0,0.0,0.0,0.0,0.0,0.0,0.0,0.0,0.0,0.0,0.0,0.0,0.0,0.0,0.0,0.0,0.0,0.0,0.0,0.0,0.0,0.0,0.0,0.0,0.0,0.0,0.0,0.0,0.0,0.0,0.0,0.0,0.0,0.0,0.0,0.0,0.0,0.0,0.0,0.0,0.0,0.0,0.0,0.0,0.0,0.0,0.0,0.0,0.0,0.0,0.0,0.0,0.0,0.0,0.0,0.0,0.0,0.0,0.0,0.0,0.0,0.0,0.0,0.0,-0.9361,-0.9361,-0.9361,-0.9413,0.0,0.0,0.0,0.0,0.0,0.0,0.0,0.0,0.0,0.0,0.0,0.0,0.0,0.0,0.0,0.0,0.0,0.0,0.0,0.0,0.0,0.0,0.0,0.0,0.0,0.0,0.0,0.0,0.0,0.0,0.0,0.0,0.0,0.0,0.0,0.0,0.0,0.0,0.0,0.0,0.0,0.0,0.0,0.0,0.0,0.0,0.0,0.0,0.0,0.0,0.0,0.0,0.0,0.0,0.0,0.0,0.0,0.0,0.0,0.0,0.0,0.0,0.0,0.0,0.0,0.0,0.0,0.0,0.0,0.0,0.0,0.0,0.0,0.0,0.0,0.0,0.0,0.0,0.0,0.0,0.0,0.0,0.0,0.0,0.0,0.0,0.0,0.0,0.0,0.0,0.0,0.0,0.0,0.0,0.0,0.0,0.0,0.0,0.0,0.0,0.0,0.0,0.0,0.0,0.0,0.0,0.0,0.0,0.0,0.0,-0.9166,-0.9204,-0.9204,-0.9204,-0.9263,-0.9309,0.0,0.0,0.0,0.0,0.0,0.0,0.0,0.0,0.0,0.0,0.0,0.0,0.0,0.0,0.0,0.0,0.0,0.0,0.0,0.0,0.0,0.0,0.0,0.0,0.0,0.0,0.0,0.0,0.0,0.0,0.0,0.0,0.0,0.0,0.0,0.0,0.0,0.0,0.0,0.0,0.0,0.0,0.0,0.0,0.0,0.0,0.0,0.0,0.0,0.0,0.0,0.0,0.0,0.0,0.0,0.0,0.0,0.0,0.0,0.0,0.0,0.0,0.0,0.0,0.0,0.0,0.0,0.0,0.0,0.0,0.0,0.0,0.0,0.0,0.0,0.0,0.0,0.0,0.0,0.0,0.0,0.0,0.0,0.0,0.0,0.0,0.0,0.0,0.0,0.0,0.0,0.0,0.0,0.0,0.0,0.0,0.0,0.0,0.0,0.0,0.0,0.0,0.0,0.0,0.0,0.0,0.0,0.0,-0.9008,-0.9159,-0.9211,-0.9166,-0.9211,-0.9211,0.0,0.0,0.0,0.0,0.0,0.0,0.0,0.0,0.0,0.0,0.0,0.0,0.0,0.0,0.0,0.0,0.0,0.0,0.0,0.0,0.0,0.0,0.0,0.0,0.0,0.0,0.0,0.0,0.0,0.0,0.0,0.0,0.0,0.0,0.0,0.0,0.0,0.0,0.0,0.0,0.0,0.0,0.0,0.0,0.0,0.0,0.0,0.0,0.0,0.0,0.0,0.0,0.0,0.0,0.0,0.0,0.0,0.0,0.0,0.0,0.0,0.0,0.0,0.0,0.0,0.0,0.0,0.0,0.0,0.0,0.0,0.0,0.0,0.0,0.0,0.0,0.0,0.0,0.0,0.0,0.0,0.0,0.0,0.0,0.0,0.0,0.0,0.0,0.0,0.0,0.0,0.0,0.0,0.0,0.0,0.0,0.0,0.0,0.0,0.0,0.0,0.0,0.0,0.0,0.0,0.0,0.0,0.0,0.0,-0.8864,-0.9086,-0.9187,-0.9194,-0.9432,-0.9583,0.0,0.0,0.0,0.0,0.0,0.0,0.0,0.0,0.0,0.0,0.0,0.0,0.0,0.0,0.0,0.0,0.0,0.0,0.0,0.0,0.0,0.0,0.0,0.0,0.0,0.0,0.0,0.0,0.0,0.0,0.0,0.0,0.0,0.0,0.0,0.0,0.0,0.0,0.0,0.0,0.0,0.0,0.0,0.0,0.0,0.0,0.0,0.0,0.0,0.0,0.0,0.0,0.0,0.0,0.0,0.0,0.0,0.0,0.0,0.0,0.0,0.0,0.0,0.0,0.0,0.0,0.0,0.0,0.0,0.0,0.0,0.0,0.0,0.0,0.0,0.0,0.0,0.0,0.0,0.0,0.0,0.0,0.0,0.0,0.0,0.0,0.0,0.0,0.0,0.0,0.0,0.0,0.0,0.0,0.0,0.0,0.0,0.0,0.0,0.0,0.0,0.0,0.0,0.0,0.0,0.0,0.0,0.0,0.0,-0.9092,0.0,-0.9379,-0.9392,-0.9579,-0.9744,0.0,0.0,0.0,0.0,0.0,0.0,0.0,0.0,0.0,0.0,0.0,0.0,0.0,0.0,0.0,0.0,0.0,0.0,0.0,0.0,0.0,0.0,0.0,0.0,0.0,0.0,0.0,0.0,0.0,0.0,0.0,0.0,0.0,0.0,0.0,0.0,0.0,0.0,0.0,0.0,0.0,0.0,0.0,0.0,0.0,0.0,0.0,0.0,0.0,0.0,0.0,0.0,0.0,0.0,0.0,0.0,0.0,0.0,0.0,0.0,0.0,0.0,0.0,0.0,0.0,0.0,0.0,0.0,0.0,0.0,0.0,0.0,0.0,0.0,0.0,0.0,0.0,0.0,0.0,0.0,0.0,0.0,0.0,0.0,0.0,0.0,0.0,0.0,0.0,0.0,0.0,0.0,0.0,0.0,0.0,0.0,0.0,0.0,0.0,0.0,0.0,0.0,0.0,0.0,0.0,0.0,0.0,0.0,-0.9518,-0.9659,-0.9679,-0.9679,-0.9686,-0.9706,-0.9706,0.0,0.0,0.0,0.0,0.0,0.0,0.0,0.0,0.0,0.0,0.0,0.0,0.0,0.0,0.0,0.0,0.0,0.0,0.0,0.0,0.0,0.0,0.0,0.0,0.0,0.0,0.0,0.0,0.0,0.0,0.0,0.0,0.0,0.0,0.0,0.0,0.0,0.0,0.0,0.0,0.0,0.0,0.0,0.0,0.0,0.0,0.0,0.0,0.0,0.0,0.0,0.0,0.0,0.0,0.0,0.0,0.0,0.0,0.0,0.0,0.0,0.0,0.0,0.0,0.0,0.0,0.0,0.0,0.0,0.0,0.0,0.0,0.0,0.0,0.0,0.0,0.0,0.0,0.0,0.0,0.0,0.0,0.0,0.0,0.0,0.0,0.0,0.0,0.0,0.0,0.0,0.0,0.0,0.0,0.0,0.0,0.0,0.0,0.0,0.0,0.0,0.0,0.0,0.0,0.0,0.0,0.0,0.0,0.0,-0.9693,-0.988,-0.998,-0.9993,-1.0241,-1.0287,0.0,0.0,0.0,0.0,0.0,0.0,0.0,0.0,0.0,0.0,0.0,0.0,0.0,0.0,0.0,0.0,0.0,0.0,0.0,0.0,0.0,0.0,0.0,0.0,0.0,0.0,0.0,0.0,0.0,0.0,0.0,0.0,0.0,0.0,0.0,0.0,0.0,0.0,0.0,0.0,0.0,0.0,0.0,0.0,0.0,0.0,0.0,0.0,0.0,0.0,0.0,0.0,0.0,0.0,0.0,0.0,0.0,0.0,0.0,0.0,0.0,0.0,0.0,0.0,0.0,0.0,0.0,0.0,0.0,0.0,0.0,0.0,0.0,0.0,0.0,0.0,0.0,0.0,0.0,0.0,0.0,0.0,0.0,0.0,0.0,0.0,0.0,0.0,0.0,0.0,0.0,0.0,0.0,0.0,0.0,0.0,0.0,0.0,0.0,0.0,0.0,0.0,0.0,0.0,0.0,0.0,0.0,0.0,0.0,-1.0027,-1.0187,-1.0281,-1.0281,-1.0461,-1.0618,-1.0618,0.0,0.0,0.0,0.0,0.0,0.0,0.0,0.0,0.0,0.0,0.0,0.0,0.0,0.0,0.0,0.0,0.0,0.0,0.0,0.0,0.0,0.0,0.0,0.0,0.0,0.0,0.0,0.0,0.0,0.0,0.0,0.0,0.0,0.0,0.0,0.0,0.0,0.0,0.0,0.0,0.0,0.0,0.0,0.0,0.0,0.0,0.0,0.0,0.0,0.0,0.0,0.0,0.0,0.0,0.0,0.0,0.0,0.0,0.0,0.0,0.0,0.0,0.0,0.0,0.0,0.0,0.0,0.0,0.0,0.0,0.0,0.0,0.0,0.0,0.0,0.0,0.0,0.0,0.0,0.0,0.0,0.0,0.0,0.0,0.0,0.0,0.0,0.0,0.0,0.0,0.0,0.0,0.0,0.0,0.0,0.0,0.0,0.0,0.0,0.0,0.0,0.0,0.0,0.0,0.0,0.0,0.0,0.0,-1.0618,-1.0618,-1.0618,-1.0618,-1.0618,-1.0618,0.0,0.0,0.0,0.0,0.0,0.0,0.0,0.0,0.0,0.0,0.0,0.0,0.0,0.0,0.0,0.0,0.0,0.0,0.0,0.0,0.0,0.0,0.0,0.0,0.0,0.0,0.0,0.0,0.0,0.0,0.0,0.0,0.0,0.0,0.0,0.0,0.0,0.0,0.0,0.0,0.0,0.0,0.0,0.0,0.0,0.0,0.0,0.0,0.0,0.0,0.0,0.0,0.0,0.0,0.0,0.0,0.0,0.0,0.0,0.0,0.0,0.0,0.0,0.0,0.0,0.0,0.0,0.0,0.0,0.0,0.0,0.0,0.0,0.0,0.0,0.0,0.0,0.0,0.0,0.0,0.0,0.0,0.0,0.0,0.0,0.0,0.0,0.0,0.0,0.0,0.0,0.0,0.0,0.0,0.0,0.0,0.0,0.0,0.0,0.0,0.0,0.0,0.0,0.0,0.0,0.0,0.0,0.0,0.0,-1.0618,-1.0618,-1.0618,-1.0618,-1.0618,-1.0618,0.0,0.0,0.0,0.0,0.0,0.0,0.0,0.0,0.0,0.0,0.0,0.0,0.0,0.0,0.0,0.0,0.0,0.0,0.0,0.0,0.0,0.0,0.0,0.0,0.0,0.0,0.0,0.0,0.0,0.0,0.0,0.0,0.0,0.0,0.0,0.0,0.0,0.0,0.0,0.0,0.0,0.0,0.0,0.0,0.0,0.0,0.0,0.0,0.0,0.0,0.0,0.0,0.0,0.0,0.0,0.0,0.0,0.0,0.0,0.0,0.0,0.0,0.0,0.0,0.0,0.0,0.0,0.0,0.0,0.0,0.0,0.0,0.0,0.0,0.0,0.0,0.0,0.0,0.0,0.0,0.0,0.0,0.0,0.0,0.0,0.0,0.0,0.0,0.0,0.0,0.0,0.0,0.0,0.0,0.0,0.0,0.0,0.0,0.0,0.0,0.0,0.0,0.0,0.0,0.0,0.0,0.0,0.0,-1.0618,-1.0618,-1.0618,-1.0618,-1.0618,-1.0618,-1.0618,0.0,0.0,0.0,0.0,0.0,0.0,0.0,0.0,0.0,0.0,0.0,0.0,0.0,0.0,0.0,0.0,0.0,0.0,0.0,0.0,0.0,0.0,0.0,0.0,0.0,0.0,0.0,0.0,0.0,0.0,0.0,0.0,0.0,0.0,0.0,0.0,0.0,0.0,0.0,0.0,0.0,0.0,0.0,0.0,0.0,0.0,0.0,0.0,0.0,0.0,0.0,0.0,0.0,0.0,0.0,0.0,0.0,0.0,0.0,0.0,0.0,0.0,0.0,0.0,0.0,0.0,0.0,0.0,0.0,0.0,0.0,0.0,0.0,0.0,0.0,0.0,0.0,0.0,0.0,0.0,0.0,0.0,0.0,0.0,0.0,0.0,0.0,0.0,0.0,0.0,0.0,0.0,0.0,0.0,0.0,0.0,0.0,0.0,0.0,0.0,0.0,0.0,0.0,0.0,0.0,0.0,0.0,0.0,-1.0618,-1.0618,-1.0618,-1.0618,-1.0618,-1.0618,-1.0618,0.0,0.0,0.0,0.0,0.0,0.0,0.0,0.0,0.0,0.0,0.0,0.0,0.0,0.0,0.0,0.0,0.0,0.0,0.0,0.0,0.0,0.0,0.0,0.0,0.0,0.0,0.0,0.0,0.0,0.0,0.0,0.0,0.0,0.0,0.0,0.0,0.0,0.0,0.0,0.0,0.0,0.0,0.0,0.0,0.0,0.0,0.0,0.0,0.0,0.0,0.0,0.0,0.0,0.0,0.0,0.0,0.0,0.0,0.0,0.0,0.0,0.0,0.0,0.0,0.0,0.0,0.0,0.0,0.0,0.0,0.0,0.0,0.0,0.0,0.0,0.0,0.0,0.0,0.0,0.0,0.0,0.0,0.0,0.0,0.0,0.0,0.0,0.0,0.0,0.0,0.0,0.0,0.0,0.0,0.0,0.0,0.0,0.0,0.0,0.0,0.0,0.0,0.0,0.0,0.0,0.0,0.0,0.0,-1.0618,-1.0618,-1.0618,-1.0618,-1.0618,-1.0618,-1.0618,0.0,0.0,0.0,0.0,0.0,0.0,0.0,0.0,0.0,0.0,0.0,0.0,0.0,0.0,0.0,0.0,0.0,0.0,0.0,0.0,0.0,0.0,0.0,0.0,0.0,0.0,0.0,0.0,0.0,0.0,0.0,0.0,0.0,0.0,0.0,0.0,0.0,0.0,0.0,0.0,0.0,0.0,0.0,0.0,0.0,0.0,0.0,0.0,-1.0474,0.0,0.0,0.0,0.0,0.0,0.0,0.0,0.0,0.0,0.0,0.0,0.0,0.0,0.0,0.0,0.0,0.0,0.0,0.0,0.0,0.0,0.0,0.0,0.0,0.0,0.0,0.0,0.0,0.0,0.0,0.0,0.0,0.0,0.0,0.0,0.0,0.0,0.0,0.0,0.0,0.0,0.0,0.0,0.0,0.0,0.0,0.0,0.0,0.0,0.0,0.0,0.0,0.0,0.0,0.0,0.0,0.0,0.0,0.0,-1.0618,-1.0618,-1.0618,-1.0618,-1.0618,-1.0618,-1.0618,0.0,0.0,0.0,0.0,0.0,0.0,0.0,0.0,0.0,0.0,0.0,0.0,0.0,0.0,0.0,0.0,0.0,0.0,0.0,0.0,0.0,0.0,0.0,0.0,0.0,0.0,0.0,0.0,0.0,0.0,0.0,0.0,0.0,0.0,0.0,0.0,0.0,0.0,0.0,0.0,0.0,0.0,0.0,0.0,0.0,0.0,0.0,0.0,0.0,0.0,0.0,0.0,0.0,0.0,0.0,0.0,0.0,0.0,0.0,0.0,0.0,0.0,0.0,0.0,0.0,0.0,0.0,0.0,0.0,0.0,0.0,0.0,0.0,0.0,0.0,0.0,0.0,0.0,0.0,0.0,0.0,0.0,0.0,0.0,0.0,0.0,0.0,0.0,0.0,0.0,0.0,0.0,0.0,0.0,0.0,0.0,0.0,0.0,0.0,0.0,0.0,0.0,0.0,0.0,0.0,0.0,0.0,-1.0618,-1.0618,-1.0618,-1.0618,-1.0618,-1.0618,-1.0618,-1.0618,-1.0618,0.0,0.0,0.0,0.0,0.0,0.0,0.0,0.0,0.0,0.0,0.0,0.0,0.0,0.0,0.0,0.0,0.0,0.0,0.0,0.0,0.0,0.0,0.0,0.0,0.0,0.0,0.0,0.0,0.0,0.0,0.0,0.0,0.0,0.0,0.0,0.0,0.0,0.0,-0.9017,-0.96,0.0,0.0,0.0,0.0,0.0,0.0,0.0,0.0,-1.0618,0.0,0.0,0.0,0.0,0.0,0.0,0.0,0.0,0.0,0.0,0.0,0.0,0.0,0.0,0.0,0.0,0.0,0.0,0.0,0.0,0.0,0.0,0.0,0.0,0.0,0.0,0.0,0.0,0.0,0.0,0.0,0.0,0.0,0.0,0.0,0.0,0.0,0.0,0.0,0.0,0.0,0.0,0.0,0.0,0.0,0.0,0.0,0.0,0.0,0.0,0.0,0.0,0.0,0.0,0.0,0.0,-1.0611,-1.0618,-1.0618,-1.0618,-1.0618,-1.0618,-1.0618,-1.0618,-1.0618,-1.0618,0.0,0.0,0.0,0.0,0.0,0.0,0.0,0.0,0.0,0.0,0.0,0.0,0.0,0.0,0.0,0.0,0.0,0.0,0.0,0.0,0.0,0.0,0.0,0.0,0.0,0.0,0.0,0.0,0.0,0.0,0.0,0.0,0.0,0.0,0.0,0.0,0.0,0.0,0.0,-0.9862,-1.0117,0.0,0.0,0.0,0.0,0.0,0.0,0.0,0.0,-1.0611,0.0,0.0,0.0,0.0,0.0,0.0,0.0,0.0,0.0,0.0,0.0,0.0,0.0,0.0,0.0,0.0,0.0,0.0,0.0,0.0,0.0,0.0,0.0,0.0,0.0,0.0,0.0,0.0,0.0,0.0,0.0,0.0,0.0,0.0,0.0,0.0,0.0,0.0,0.0,0.0,0.0,0.0,0.0,0.0,0.0,0.0,0.0,0.0,0.0,0.0,0.0,0.0,0.0,0.0,0.0,-1.0598,-1.0618,-1.0618,-1.0618,-1.0618,-1.0618,-1.0618,-1.0618,-1.0618,0.0,0.0,0.0,0.0,0.0,0.0,0.0,0.0,0.0,0.0,0.0,0.0,0.0,0.0,0.0,0.0,0.0,0.0,0.0,0.0,0.0,0.0,0.0,0.0,0.0,0.0,0.0,0.0,0.0,0.0,0.0,0.0,0.0,0.0,0.0,0.0,0.0,0.0,0.0,0.0,-0.9792,-1.011,-1.0434,0.0,0.0,0.0,0.0,0.0,0.0,-1.0618,-1.0618,0.0,0.0,0.0,0.0,0.0,0.0,0.0,0.0,0.0,0.0,0.0,0.0,0.0,0.0,0.0,0.0,0.0,0.0,0.0,0.0,0.0,0.0,0.0,0.0,0.0,0.0,0.0,0.0,0.0,0.0,0.0,0.0,0.0,0.0,0.0,0.0,0.0,0.0,0.0,0.0,0.0,0.0,0.0,0.0,0.0,0.0,0.0,0.0,0.0,0.0,0.0,0.0,0.0,0.0,0.0,-1.0548,-1.0618,-1.0618,-1.0618,-1.0618,-1.0618,-1.0618,-1.0618,-1.0618,0.0,0.0,0.0,0.0,0.0,0.0,0.0,0.0,0.0,0.0,0.0,0.0,0.0,0.0,0.0,0.0,0.0,0.0,0.0,0.0,0.0,0.0,0.0,0.0,0.0,0.0,0.0,0.0,0.0,0.0,0.0,0.0,0.0,0.0,0.0,0.0,0.0,0.0,0.0,0.0,0.0,-0.9983,-1.0238,-1.0434,0.0,0.0,0.0,0.0,-1.0618,-1.0618,0.0,0.0,0.0,0.0,0.0,0.0,0.0,0.0,0.0,0.0,0.0,0.0,0.0,0.0,0.0,0.0,0.0,0.0,0.0,0.0,0.0,0.0,0.0,0.0,0.0,0.0,0.0,0.0,0.0,0.0,0.0,0.0,0.0,0.0,0.0,0.0,0.0,0.0,0.0,0.0,0.0,0.0,0.0,0.0,0.0,0.0,0.0,0.0,0.0,0.0,0.0,0.0,0.0,0.0,0.0,0.0,-1.0611,-1.0618,-1.0618,-1.0618,-1.0618,-1.0618,-1.0618,-1.0618,-1.0618,0.0,0.0,0.0,0.0,0.0,0.0,0.0,0.0,0.0,0.0,0.0,0.0,0.0,0.0,0.0,0.0,0.0,0.0,0.0,0.0,0.0,0.0,0.0,0.0,0.0,0.0,0.0,0.0,0.0,0.0,0.0,0.0,0.0,0.0,0.0,0.0,0.0,0.0,0.0,0.0,0.0,-0.9716,-1.0244,-1.0301,-1.0364,0.0,0.0,-1.0618,-1.0618,-1.0618,0.0,0.0,0.0,0.0,0.0,0.0,0.0,0.0,0.0,0.0,0.0,0.0,0.0,0.0,0.0,0.0,0.0,0.0,0.0,0.0,0.0,0.0,0.0,0.0,0.0,0.0,0.0,0.0,0.0,0.0,0.0,0.0,0.0,0.0,0.0,0.0,0.0,0.0,0.0,0.0,0.0,0.0,0.0,0.0,0.0,0.0,0.0,0.0,0.0,0.0,0.0,0.0,0.0,0.0,0.0,-1.0428,-1.0618,-1.0618,-1.0618,-1.0618,-1.0618,-1.0618,-1.0618,-1.0618,-1.0618,0.0,0.0,0.0,0.0,0.0,0.0,0.0,0.0,0.0,0.0,0.0,0.0,0.0,0.0,0.0,0.0,0.0,0.0,0.0,0.0,0.0,0.0,0.0,0.0,0.0,0.0,0.0,0.0,0.0,0.0,0.0,0.0,0.0,0.0,0.0,0.0,0.0,0.0,0.0,0.0,0.0,0.0,-1.0047,-1.0238,0.0,0.0,0.0,-1.0618,-1.0618,0.0,0.0,0.0,0.0,0.0,0.0,0.0,0.0,0.0,0.0,0.0,0.0,0.0,0.0,0.0,0.0,0.0,0.0,0.0,0.0,0.0,0.0,0.0,0.0,0.0,0.0,0.0,0.0,0.0,0.0,0.0,0.0,0.0,0.0,0.0,0.0,0.0,0.0,0.0,0.0,0.0,0.0,0.0,0.0,0.0,0.0,0.0,0.0,0.0,0.0,0.0,0.0,0.0,0.0,0.0,0.0,0.0,-1.0618,-1.0618,-1.0618,-1.0618,-1.0618,-1.0618,-1.0618,-1.0618,0.0,0.0,0.0,0.0,0.0,0.0,0.0,0.0,0.0,0.0,0.0,0.0,0.0,0.0,0.0,0.0,0.0,0.0,0.0,0.0,0.0,0.0,0.0,0.0,0.0,0.0,0.0,-0.5888,0.0,0.0,0.0,0.0,0.0,0.0,0.0,0.0,0.0,0.0,0.0,0.0,0.0,0.0,-0.9524,-0.9849,-1.011,-1.0301,0.0,0.0,-1.0618,-1.0618,-1.0618,-1.0618,0.0,0.0,0.0,0.0,0.0,0.0,0.0,0.0,0.0,0.0,0.0,0.0,0.0,0.0,0.0,0.0,0.0,0.0,0.0,0.0,0.0,0.0,0.0,0.0,0.0,0.0,0.0,0.0,0.0,0.0,0.0,0.0,0.0,0.0,0.0,0.0,0.0,0.0,0.0,0.0,0.0,0.0,0.0,0.0,0.0,0.0,0.0,0.0,0.0,0.0,0.0,0.0,0.0,0.0,0.0,-1.0618,-1.0618,-1.0618,-1.0618,-1.0618,-1.0618,-1.0618,-1.0618,-1.0618,0.0,0.0,0.0,0.0,0.0,0.0,0.0,0.0,0.0,0.0,0.0,0.0,0.0,0.0,0.0,0.0,0.0,0.0,0.0,0.0,0.0,0.0,0.0,0.0,0.0,0.0,0.0,0.0,0.0,0.0,0.0,0.0,0.0,0.0,0.0,0.0,0.0,0.0,0.0,0.0,0.0,-0.9145,-0.946,-0.9786,-1.011,0.0,0.0,-1.0618,-1.0618,-1.0618,-1.0618,-1.0618,0.0,0.0,0.0,0.0,0.0,0.0,0.0,0.0,0.0,0.0,0.0,0.0,0.0,0.0,0.0,0.0,0.0,0.0,0.0,0.0,0.0,0.0,0.0,0.0,0.0,0.0,0.0,0.0,0.0,0.0,0.0,0.0,0.0,0.0,0.0,0.0,0.0,0.0,0.0,0.0,0.0,0.0,0.0,0.0,0.0,0.0,0.0,0.0,0.0,0.0,0.0,0.0,0.0,-1.0618,-1.0618,-1.0618,-1.0618,-1.0618,-1.0618,-1.0618,-1.0618,-1.0618,-1.0618,0.0,0.0,0.0,0.0,0.0,0.0,0.0,0.0,0.0,0.0,0.0,0.0,0.0,0.0,0.0,0.0,0.0,0.0,0.0,0.0,0.0,0.0,0.0,0.0,0.0,0.0,0.0,0.0,-0.6205,-0.642,-0.642,0.0,0.0,0.0,0.0,0.0,0.0,0.0,0.0,0.0,0.0,-0.9022,-0.9454,-0.9786,0.0,0.0,-1.0434,-1.0618,-1.0618,-1.0618,-1.0618,-1.0618,-1.0618,0.0,0.0,0.0,0.0,0.0,0.0,0.0,0.0,0.0,0.0,0.0,0.0,0.0,0.0,0.0,0.0,0.0,0.0,0.0,0.0,0.0,0.0,0.0,0.0,0.0,0.0,0.0,0.0,0.0,0.0,0.0,0.0,0.0,0.0,0.0,0.0,0.0,0.0,0.0,0.0,0.0,0.0,0.0,0.0,0.0,0.0,0.0,0.0,0.0,0.0,0.0,0.0,-1.0618,-1.0618,-1.0618,-1.0618,-1.0618,-1.0618,-1.0618,-1.0618,-1.0618,-1.0618,0.0,0.0,0.0,0.0,0.0,0.0,0.0,0.0,0.0,0.0,0.0,0.0,0.0,0.0,0.0,0.0,0.0,0.0,0.0,0.0,0.0,0.0,0.0,0.0,0.0,0.0,0.0,0.0,-0.6209,-0.642,-0.642,0.0,0.0,0.0,0.0,0.0,0.0,0.0,0.0,0.0,0.0,-0.8835,-0.9268,-0.9658,-0.9919,-1.0174,-1.0308,-1.0434,-1.0498,-1.0434,-1.0434,-1.0434,0.0,0.0,0.0,0.0,0.0,0.0,0.0,0.0,0.0,0.0,0.0,0.0,0.0,0.0,0.0,0.0,0.0,0.0,0.0,0.0,0.0,0.0,0.0,0.0,0.0,0.0,0.0,0.0,0.0,0.0,-1.1276,0.0,0.0,0.0,0.0,0.0,0.0,0.0,0.0,0.0,0.0,0.0,0.0,0.0,0.0,0.0,0.0,0.0,0.0,0.0,0.0,0.0,0.0,-1.0618,-1.0618,-1.0618,-1.0618,-1.0618,-1.0618,-1.0618,-1.0618,-1.0618,-1.0618,-1.0561,0.0,0.0,0.0,0.0,0.0,0.0,0.0,0.0,0.0,0.0,0.0,0.0,0.0,0.0,0.0,0.0,0.0,0.0,0.0,0.0,0.0,0.0,0.0,0.0,0.0,0.0,-0.59,-0.6209,-0.642,0.0,0.0,0.0,0.0,0.0,0.0,0.0,0.0,0.0,0.0,-0.8312,-0.8641,-0.8952,-0.9332,-0.9652,-0.9983,-0.9989,-1.011,-1.0301,-1.0174,-1.0053,0.0,0.0,0.0,0.0,0.0,0.0,0.0,0.0,0.0,0.0,0.0,0.0,0.0,0.0,0.0,0.0,0.0,0.0,0.0,0.0,0.0,0.0,0.0,0.0,0.0,0.0,0.0,-1.2107,-1.2135,0.0,0.0,0.0,0.0,0.0,0.0,0.0,0.0,0.0,0.0,0.0,-0.9465,-0.9316,0.0,0.0,0.0,0.0,0.0,0.0,0.0,0.0,0.0,0.0,0.0,0.0,-1.0618,-1.0618,-1.0618,-1.0618,-1.0618,-1.0618,-1.0618,-1.0618,-1.0618,-1.0498,-1.0244,0.0,0.0,0.0,0.0,0.0,0.0,0.0,0.0,0.0,0.0,0.0,0.0,0.0,0.0,0.0,0.0,0.0,0.0,0.0,0.0,0.0,0.0,0.0,0.0,0.0,-0.5986,0.0,0.0,0.0,0.0,0.0,0.0,0.0,0.0,0.0,0.0,0.0,-0.7269,-0.7731,-0.8117,-0.8371,-0.8641,-0.9145,-0.9524,0.0,0.0,0.0,0.0,0.0,0.0,0.0,0.0,0.0,0.0,0.0,0.0,0.0,0.0,-0.8888,-0.8495,-0.8052,-0.7666,-0.7073,0.0,0.0,0.0,0.0,0.0,0.0,0.0,0.0,0.0,0.0,0.0,0.0,0.0,0.0,-1.2363,0.0,-1.2126,0.0,0.0,0.0,0.0,0.0,0.0,0.0,0.0,-1.0058,-0.9851,-0.9673,-0.951,-0.9372,0.0,-0.9364,-0.9451,0.0,0.0,0.0,0.0,0.0,0.0,0.0,0.0,-1.0618,-1.0618,-1.0618,-1.0618,-1.0618,-1.0618,-1.0618,-1.0618,-1.0618,-1.0434,-0.9989,-0.9926,-0.9585,0.0,0.0,0.0,0.0,0.0,0.0,0.0,0.0,0.0,0.0,0.0,0.0,0.0,0.0,0.0,0.0,0.0,0.0,0.0,0.0,0.0,0.0,0.0,-0.6095,0.0,0.0,0.0,0.0,0.0,0.0,0.0,0.0,0.0,-0.6811,-0.6811,-0.7007,-0.7531,-0.7852,-0.8107,-0.8447,0.0,0.0,0.0,0.0,0.0,0.0,0.0,-0.9798,-0.9798,-0.9798,-0.9792,-0.9792,-0.9664,-0.9472,-0.9087,0.0,0.0,-0.8236,-0.7917,-0.7466,-0.7012,-0.6806,-0.6609,-0.6416,-0.642,-0.642,0.0,0.0,0.0,0.0,0.0,0.0,0.0,0.0,-1.291,-1.2676,0.0,-1.2332,0.0,0.0,0.0,0.0,0.0,-1.082,0.0,0.0,-1.0368,-1.0169,-0.9821,-0.9703,-0.9645,-0.968,-0.9542,-0.9674,-1.008,-1.012,0.0,0.0,0.0,0.0,0.0,0.0,-1.0618,-1.0618,-1.0618,-1.0618,-1.0618,-1.0618,-1.0618,-1.0618,-1.0618,-1.0434,-0.9983,-0.9868,-0.9484,-0.8829,-0.8043,0.0,0.0,0.0,0.0,0.0,0.0,0.0,0.0,0.0,0.0,0.0,0.0,0.0,0.0,0.0,0.0,0.0,0.0,0.0,0.0,-0.5937,0.0,0.0,0.0,0.0,0.0,0.0,0.0,0.0,0.0,0.0,-0.6675,-0.6671,-0.6868,-0.7391,0.0,0.0,0.0,0.0,-0.87,-0.9326,-0.9332,-0.9402,-0.9734,-0.9612,-0.9478,-0.9478,0.0,0.0,-0.9338,-0.9274,-0.9087,-0.8576,-0.8452,-0.8376,-0.8172,-0.7782,-0.7396,-0.7012,-0.6806,-0.6609,-0.6486,-0.642,-0.642,-1.6961,0.0,0.0,0.0,0.0,-1.4337,-1.3962,-1.3563,-1.319,-1.292,-1.2735,-1.2431,0.0,0.0,0.0,0.0,0.0,0.0,-1.0922,-1.0769,-1.0522,-1.0449,-1.0409,-1.0195,-1.0093,-1.0002,-1.0161,-1.0185,-1.012,-1.0327,-1.0474,-1.0618,0.0,0.0,0.0,0.0,-1.0618,-1.0618,-1.0618,-1.0618,-1.0618,-1.0618,-1.0618,-1.0618,-1.0618,-1.0434,-0.9989,-0.9868,-0.9548,-0.9104,-0.812,0.0,0.0,0.0,0.0,0.0,0.0,0.0,0.0,0.0,0.0,0.0,0.0,0.0,0.0,0.0,0.0,0.0,0.0,0.0,-0.5778,-0.601,-0.6217,0.0,0.0,0.0,0.0,0.0,0.0,0.0,0.0,0.0,-0.6486,-0.6609,-0.6868,0.0,0.0,-0.7587,-0.7862,-0.8257,-0.8582,-0.877,-0.8958,0.0,-0.9408,-0.9408,-0.9338,-0.9338,-0.928,-0.9081,-0.8958,-0.8829,-0.8641,-0.8306,-0.8052,-0.7857,-0.7717,-0.7456,-0.7204,-0.6942,-0.6679,-0.6482,-0.6416,-0.642,-0.642,-1.7958,-1.706,-1.6126,-1.5558,-1.5096,-1.4708,-1.4302,-1.3905,-1.3467,-1.3142,-1.29,-1.2618,-1.2323,-1.2175,-1.1868,0.0,0.0,0.0,-1.1396,-1.1249,-1.1129,-1.104,-1.0903,-1.069,-1.0534,-1.0317,-1.0506,-1.0478,-1.0294,-1.0537,-1.0618,-1.0618,0.0,0.0,-1.0618,-1.0618,-1.0618,-1.0618,-1.0618,-1.0618,-1.0618,-1.0618,-1.0618,-1.0618,-1.0561,-1.0308,-0.9983,-0.9728,-0.942,-0.9051,-0.8059,-0.7255,0.0,0.0,0.0,0.0,0.0,0.0,0.0,0.0,0.0,0.0,0.0,-0.5301,-0.5301,0.0,0.0,0.0,-0.5426,-0.5685,-0.5965,-0.6148,0.0,0.0,0.0,0.0,0.0,0.0,0.0,-0.642,-0.642,-0.642,-0.642,-0.6478,-0.6679,-0.6937,-0.7134,-0.726,-0.7596,0.0,-0.8182,-0.8376,-0.8635,-0.8894,-0.9087,-0.9145,-0.9145,-0.9081,-0.9022,-0.8829,-0.8635,-0.8436,-0.8312,-0.8047,-0.7787,-0.7596,-0.7396,-0.7199,-0.7007,-0.6876,-0.6618,-0.642,-0.642,-0.642,-0.642,-1.8983,-1.8498,-1.701,-1.6102,-1.5586,-1.5051,-1.468,-1.4331,-1.3915,-1.357,-1.3173,-1.291,-1.2674,-1.2376,-1.2118,0.0,-1.1844,-1.1991,-1.1999,-1.1839,-1.1961,-1.1792,-1.1365,-1.1195,-1.0966,-1.0632,-1.0632,-1.0602,-1.0611,-1.0618,-1.0618,-1.0618,-1.0618,-1.0618,-1.0618,-1.0618,-1.0618,-1.0618,-1.0618,-1.0618,-1.0618,-1.0618,-1.0618,-1.0618,-1.0434,-1.018,-0.9983,-0.953,-0.9157,-0.8776,-0.788,-0.7081,-0.6293,0.0,0.0,0.0,0.0,0.0,0.0,0.0,0.0,0.0,0.0,0.0,0.0,0.0,0.0,0.0,-0.5701,0.0,-0.6195,-0.631,0.0,0.0,0.0,-0.642,-0.642,-0.642,-0.642,-0.642,0.0,0.0,-0.642,-0.642,-0.6482,-0.6675,-0.6671,-0.6868,-0.7391,-0.7521,-0.7652,-0.8107,-0.8312,-0.8517,-0.877,-0.8894,-0.8952,-0.8835,-0.877,-0.8571,-0.8301,-0.8172,-0.8047,-0.7792,-0.7596,-0.7396,-0.7204,-0.6937,-0.6671,-0.6675,-0.6544,-0.642,-0.642,-0.642,-0.642,-1.9674,-1.8917,-1.8305,-1.7545,-1.6788,-1.6376,-1.5984,-1.5554,-1.5315,-1.4961,-1.4502,-1.415,-1.3628,-1.3055,-1.2895,-1.2735,-1.2636,-1.2671,-1.2597,-1.2434,-1.218,-1.2028,-1.1943,-1.1452,-1.1159,-1.1119,-1.1009,-1.0864,-1.0618,-1.0618,-1.0618,-1.0618,-1.0618,-1.0618,-1.0618,-1.0618,-1.0618,-1.0618,-1.0618,-1.0618,-1.0618,-1.0618,-1.0618,-1.0618,-1.0428,-1.018,-0.9989,-0.953,-0.9087,-0.8571,-0.7691,-0.6842,-0.6177,-0.5831,0.0,0.0,0.0,0.0,0.0,0.0,0.0,0.0,0.0,-0.5301,-0.5301,0.0,-0.5353,0.0,-0.5876,-0.6162,-0.6203,-0.631,0.0,0.0,-0.642,-0.642,-0.642,-0.642,-0.642,-0.642,-0.642,-0.642,-0.642,-0.642,-0.6416,-0.6482,-0.6609,-0.6868,-0.7199,-0.7396,-0.7591,-0.7792,-0.7987,-0.8252,-0.8511,-0.87,-0.877,-0.8576,-0.8436,-0.8306,-0.8117,-0.7917,-0.7797,-0.7661,-0.7461,-0.7199,-0.7007,-0.6811,-0.6675,-0.6482,-0.6416,-0.642,-0.642,-0.642,-0.642,-2.0388,-1.9845,-1.9477,-1.8894,-1.8123,-1.7243,-1.6646,-1.6283,-1.5917,-1.5558,-1.5143,-1.4556,-1.399,-1.3405,-1.3296,-1.3186,-1.3086,-1.3128,-1.3097,-1.2946,-1.2809,-1.2647,-1.2438,-1.1926,-1.1539,-1.1303,-1.1185,-1.0933,-1.0624,-1.0618,-1.0618,-1.0618,-1.0618,-1.0618,-1.0618,-1.0618,-1.0618,-1.0618,-1.0618,-1.0618,-1.0618,-1.0618,-1.0618,-1.0618,-1.0308,-1.0117,-0.9926,-0.9408,-0.8958,-0.8506,-0.7629,-0.6782,-0.6173,-0.577,-0.5513,0.0,0.0,0.0,0.0,0.0,0.0,0.0,0.0,0.0,0.0,0.0,-0.5571,-0.5827,-0.6092,-0.624,-0.6262,-0.6355,-0.642,-0.642,-0.642,-0.642,-0.642,-0.642,-0.642,-0.642,-0.642,-0.642,-0.642,-0.642,-0.642,-0.642,-0.6478,-0.6675,-0.6937,-0.7134,-0.7269,-0.747,-0.7661,-0.7987,-0.8247,-0.8382,-0.8382,-0.8187,-0.8052,-0.7917,-0.7787,-0.7727,-0.7596,-0.7596,-0.7335,-0.7007,-0.6946,-0.6679,-0.6548,-0.642,-0.642,-0.642,-0.642,-0.642,-0.642,-2.1068,-2.0809,-2.0422,-1.9978,-1.9334,-1.7975,-1.7193,-1.6853,-1.6372,-1.5949,-1.5521,-1.4747,-1.4154,-1.3727,-1.3662,-1.3607,-1.347,-1.3621,-1.3602,-1.3473,-1.3544,-1.3277,-1.2797,-1.2421,-1.1919,-1.1365,-1.1247,-1.0996,-1.0688,-1.0624,-1.0624,-1.0624,-1.0624,-1.0618,-1.0618,-1.0618,-1.0618,-1.0618,-1.0618,-1.0618,-1.0618,-1.0618,-1.0618,-1.0561,-1.0238,-0.9926,-0.9798,-0.925,-0.8784,-0.8388,-0.7522,-0.6744,-0.6134,-0.5758,-0.5462,0.0,-0.5301,0.0,0.0,0.0,0.0,0.0,0.0,0.0,0.0,-0.5535,-0.5787,-0.6178,-0.6232,-0.631,-0.6404,-0.642,-0.642,-0.642,-0.642,-0.642,-0.642,-0.642,-0.642,-0.642,-0.642,-0.642,-0.642,-0.642,-0.642,-0.642,-0.642,-0.6482,-0.6613,-0.6815,-0.6942,-0.7138,-0.74,-0.7661,-0.7857,-0.7917,-0.7922,-0.7731,-0.7661,-0.7596,-0.7456,-0.7456,-0.7456,-0.7396,-0.7138,-0.6876,-0.6876,-0.6618,-0.642,-0.642,-0.642,-0.642,-0.642,-0.642,-0.642,-2.1215,-2.0934,-2.0759,-2.0372,-1.9862,-1.9211,-1.8541,-1.7798,-1.7744,-1.7246,-1.6486,-1.5859,-1.5405,-1.4994,-1.4647,-1.4492,-1.4424,-1.4341,-1.415,-1.3903,-1.3863,-1.3536,-1.2928,-1.2605,-1.2174,-1.174,-1.1553,-1.131,-1.0996,-1.087,-1.0744,-1.0751,-1.0624,-1.0618,-1.0618,0.0,0.0,0.0,-1.0618,-1.0618,-1.0618,-1.0618,-1.0618,-1.0561,-1.0238,0.0,-0.9798,-0.9149,-0.8538,-0.8017,-0.7171,0.0,0.0,0.0,0.0,0.0,0.0,0.0,0.0,0.0,0.0,0.0,-0.5301,-0.5301,-0.5309,-0.5649,-0.5925,-0.6191,-0.6282,-0.6379,-0.6416,-0.642,-0.642,-0.642,-0.642,-0.642,-0.642,-0.642,-0.642,-0.642,-0.642,-0.642,-0.642,-0.642,-0.642,-0.642,-0.642,-0.6416,-0.6486,-0.6613,-0.6811,-0.6942,-0.7138,-0.7335,-0.7335,-0.7526,-0.7591,-0.7526,-0.7526,-0.7461,-0.7265,-0.7265,-0.7204,-0.7073,-0.6876,-0.6741,-0.6741,-0.6548,-0.642,-0.642,-0.642,-0.642,-0.642,-0.642,-0.642,-2.1326,0.0,-2.0858,-2.0523,0.0,-1.972,-1.9186,-1.8506,-1.8247,-1.7634,-1.6864,-1.6457,-1.5999,-1.5546,-1.5137,-1.4834,-1.4706,-1.4556,-1.4387,-1.4139,-1.3959,-1.364,-1.3216,-1.272,-1.2343,-1.2058,-1.1747,-1.1498,-1.1185,-1.1059,-1.0933,-1.0933,-1.087,-1.087,-1.0877,-1.0744,-1.0681,-1.0618,-1.0618,-1.0618,-1.0618,-1.0618,-1.0618,-1.0561,-1.0244,0.0,0.0,0.0,0.0,0.0,0.0,0.0,0.0,0.0,0.0,-0.5301,-0.5301,-0.5301,-0.5301,-0.5301,-0.5301,-0.5301,-0.5378,-0.5462,-0.5608,-0.586,-0.6091,-0.6262,-0.6367,-0.642,-0.642,-0.642,-0.642,-0.642,-0.642,-0.642,-0.642,-0.642,-0.642,-0.642,-0.642,-0.642,-0.642,-0.642,-0.642,-0.642,-0.642,-0.642,-0.642,-0.6548,-0.6741,-0.6876,-0.6946,-0.7073,-0.7073,-0.7138,-0.7204,-0.7204,-0.7204,-0.7138,-0.7073,-0.7073,-0.7012,-0.6881,-0.6806,-0.6741,-0.6675,-0.6544,-0.642,-0.642,-0.642,-0.642,-0.642,-0.642,-0.642,-2.1471,-2.1229,-2.097,-2.061,-2.0271,-2.0016,-1.9552,-1.8934,0.0,0.0,0.0,-1.6786,-1.6343,-1.5846,-1.5439,-1.5088,-1.4784,-1.4625,-1.4446,-1.4267,-1.407,-1.3812,-1.3502,-1.2948,-1.2589,-1.2367,-1.1996,-1.1685,-1.149,-1.131,-1.1185,-1.1185,-1.1122,-1.1129,-1.1066,-1.087,-1.0744,-1.0624,-1.0624,-1.0618,-1.0618,-1.0618,-1.0618,-1.0618,-1.0244,-0.9989,-0.9798,-0.906,-0.8399,-0.7891,-0.6993,-0.6426,-0.6076,-0.5596,-0.5352,-0.5301,-0.5301,-0.5301,-0.5301,-0.5301,-0.5313,-0.5345,-0.5588,-0.577,-0.5925,-0.6125,-0.6221,-0.6404,-0.642,-0.642,-0.642,-0.642,-0.642,-0.642,-0.642,-0.642,-0.642,-0.642,-0.642,-0.642,-0.642,-0.642,-0.642,-0.642,-0.642,-0.642,-0.642,-0.642,-0.642,-0.6548,-0.6675,-0.6749,-0.6815,-0.6815,-0.6815,-0.6815,-0.6815,-0.6876,-0.6876,-0.6876,-0.6876,-0.6876,-0.6876,-0.6815,-0.6745,-0.6679,-0.6609,-0.6482,-0.642,-0.642,-0.642,-0.642,-0.642,-0.642,-0.642,-2.152,-2.1361,-2.1229,-2.0921,-2.051,-2.0271,-1.9708,-1.8946,-1.8344,-1.7975,-1.7733,-1.7179,-1.6797,-1.6467,-1.5904,-1.5449,-1.5098,-1.4843,-1.4556,-1.4336,-1.4267,-1.401,-1.3511,-1.3381,-1.3155,-1.2744,-1.256,-1.2375,-1.212,-1.1747,-1.1498,-1.1498,-1.1254,-1.1129,-1.1059,-1.087,-1.08,-1.0744,-1.0681,-1.0618,-1.0618,-1.0618,-1.0618,-1.0618,-1.0364,-1.0117,-0.9792,-0.9016,-0.8331,-0.7644,-0.6884,-0.6265,-0.5885,-0.5639,-0.5513,-0.5301,-0.5301,-0.5301,-0.5301,-0.5301,-0.5365,-0.5575,-0.588,-0.6145,-0.617,-0.6195,-0.6225,-0.6396,-0.642,-0.642,-0.642,-0.642,-0.642,-0.642,-0.642,-0.642,-0.642,-0.642,-0.642,-0.642,-0.642,-0.642,-0.642,-0.642,-0.642,-0.642,-0.642,-0.642,-0.642,-0.6416,-0.6416,-0.6486,-0.6486,-0.6486,-0.6486,-0.6486,-0.6552,-0.6741,-0.6745,-0.6741,-0.6741,-0.6741,-0.6679,-0.6482,-0.6486,-0.6486,-0.6486,-0.642,-0.642,-0.642,-0.642,-0.642,-0.642,-0.642,-0.642,-2.1698,-2.1506,-2.1375,-2.1068,-2.066,-2.0207,-1.9772,-1.9303,-1.8827,-1.8398,-1.7963,-1.7623,-1.7234,-1.6786,-1.6275,-1.5826,-1.5439,-1.5137,-1.4784,-1.4547,-1.4428,-1.4249,-1.395,-1.3761,-1.3459,-1.3155,-1.2928,-1.2744,-1.2552,-1.2182,-1.1996,-1.1988,-1.1622,-1.1373,-1.1178,-1.1059,-1.0933,-1.0807,-1.0681,-1.0618,-1.0618,-1.0618,-1.0618,-1.0618,-1.0434,-1.018,-0.9919,-0.9168,-0.8477,-0.7801,-0.7063,-0.6392,-0.5959,-0.5791,-0.5681,-0.5576,-0.5576,-0.5618,-0.5711,-0.5755,-0.5772,-0.5892,-0.6113,-0.6252,-0.6286,-0.6294,-0.6331,-0.6408,-0.642,-0.642,-0.642,-0.642,-0.642,-0.642,-0.642,-0.642,-0.642,-0.642,-0.642,-0.642,-0.642,-0.642,-0.642,-0.642,-0.642,-0.642,-0.642,-0.642,-0.642,-0.642,-0.642,-0.642,-0.642,-0.642,-0.642,-0.642,-0.6416,-0.6548,-0.6544,-0.6548,-0.6548,-0.6548,-0.6482,-0.642,-0.642,-0.642,-0.642,-0.642,-0.642,-0.642,-0.642,-0.642,-0.642,-0.6354,-0.6284,-2.1902,-2.1698,-2.152,-2.1202,-2.0746,-2.0156,-1.9862,-1.9604,-1.9251,-1.8774,-1.8302,-1.8073,-1.7678,-1.7168,-1.6662,-1.6218,-1.5836,-1.5439,-1.5147,-1.4834,-1.4656,-1.4478,-1.4318,-1.4019,-1.3821,-1.358,-1.3346,-1.3103,-1.292,-1.2613,-1.2305,-1.2182,-1.1926,-1.1615,-1.1303,-1.1185,-1.0996,-1.0807,-1.0681,-1.0618,-1.0618,-1.0618,-1.0618,-1.0561,-1.0434,-1.0238,-0.997,-0.9339,-0.8737,-0.8067,-0.7417,-0.6749,-0.6262,-0.6086,-0.6034,-0.5927,-0.5927,-0.5988,-0.6071,-0.6139,-0.6182,-0.6195,-0.6248,-0.6266,-0.64,-0.642,-0.642,-0.642,-0.642,-0.642,-0.642,-0.642,-0.642,-0.642,-0.642,-0.642,-0.642,-0.642,-0.642,-0.642,-0.642,-0.642,-0.642,-0.642,-0.642,-0.642,-0.642,-0.642,-0.642,-0.642,-0.642,-0.642,-0.642,-0.642,-0.642,-0.642,-0.642,-0.642,-0.642,-0.642,-0.642,-0.642,-0.642,-0.642,-0.642,-0.642,-0.642,-0.642,-0.642,-0.642,-0.642,-0.6354,-0.6354,-0.6218,-0.6152,-2.2077,-2.1949,-2.1712,-2.1251,-2.0809,-2.0459,-2.0118,-1.9747,-1.946,-1.9198,-1.8881,-1.8344,-1.7963,-1.7733,-1.7168,-1.6719,-1.6197,-1.5836,-1.5498,-1.5147,-1.4834,-1.4597,-1.4478,-1.4327,-1.4148,-1.395,-1.3769,-1.3588,-1.339,-1.2981,-1.249,-1.1926,-1.1809,-1.1622,-1.131,-1.1185,-1.0996,-1.0807,-1.0681,-1.0618,-1.0618,-1.0618,-1.0618,-1.0618,-1.0555,-1.0371,-0.9977,-0.9587,-0.9058,-0.8466,-0.7947,-0.7452,-0.6894,-0.6835,-0.6662,-0.6364,-0.6373,-0.6267,-0.6164,-0.6273,-0.6325,-0.6219,-0.6298,-0.6392,-0.6416,-0.642,-0.642,-0.642,-0.642,-0.642,-0.642,-0.642,-0.642,-0.642,-0.642,-0.642,-0.642,-0.642,-0.642,-0.642,-0.642,-0.642,-0.642,-0.642,-0.642,-0.642,-0.642,-0.642,-0.642,-0.642,-0.642,-0.642,-0.642,-0.642,-0.642,-0.642,-0.642,-0.642,-0.642,-0.642,-0.642,-0.642,-0.642,-0.642,-0.642,-0.642,-0.642,-0.642,-0.642,-0.642,-0.6354,-0.6354,-0.6214,-0.6083,-0.5954,-2.2324,-2.2091,-2.1841,-2.1458,-2.1006,-2.066,-2.0372,-2.0118,-1.9798,-1.95,-1.9291,-1.8827,-1.841,-1.8018,-1.7689,-1.7234,-1.6719,-1.64,-1.5951,-1.5498,-1.5137,-1.4834,-1.4597,-1.4506,-1.4327,-1.4207,-1.4139,-1.3959,-1.3761,-1.3329,-1.2789,-1.2305,-1.2058,-1.1809,-1.1498,-1.1247,-1.0996,-1.0807,-1.0688,-1.0618,-1.0618,-1.0618,-1.0618,-1.0618,-1.0618,-1.0434,-1.004,-0.975,-0.9301,-0.8663,-0.8243,-0.7814,-0.732,-0.7255,-0.7081,-0.6856,-0.6847,-0.6718,-0.641,-0.6591,-0.6569,-0.6371,-0.6375,-0.642,-0.642,-0.642,-0.642,-0.642,-0.642,-0.642,-0.642,-0.642,-0.642,-0.642,-0.642,-0.642,-0.642,-0.642,-0.642,-0.642,-0.642,-0.642,-0.642,-0.642,-0.642,-0.642,-0.642,-0.642,-0.642,-0.642,-0.642,-0.642,-0.642,-0.642,-0.642,-0.642,-0.642,-0.642,-0.642,-0.642,-0.642,-0.642,-0.642,-0.642,-0.642,-0.642,-0.642,-0.642,-0.642,-0.6354,-0.6284,-0.6214,-0.5881,-0.5815,-0.5686,-2.2555,-2.2263,-2.1949,-2.1602,-2.1229,-2.0908,-2.0673,-2.0409,-2.0105,-1.9862,-1.9656,-1.9291,-1.8893,-1.8356,-1.8073,-1.7678,-1.7234,-1.6853,-1.6467,-1.5961,-1.5556,-1.5205,-1.4883,-1.4734,-1.4565,-1.4437,-1.4378,-1.4258,-1.395,-1.3571,-1.3094,-1.2621,-1.2313,-1.1941,-1.156,-1.1247,-1.0996,-1.0744,-1.0618,-1.0618,-1.0618,-1.0618,-1.0618,-1.0618,-1.0618,-1.0428,-1.0117,-0.9926,-0.9585,-0.8947,-0.868,-0.8291,-0.7883,-0.7746,-0.7568,-0.7272,-0.7279,-0.7112,-0.6727,-0.6798,-0.6745,-0.642,-0.642,-0.642,-0.642,-0.642,-0.642,-0.642,-0.642,-0.642,-0.642,-0.642,-0.642,-0.642,-0.642,-0.642,-0.642,-0.642,-0.642,-0.642,-0.642,-0.642,-0.642,-0.642,-0.642,-0.642,-0.642,-0.642,-0.642,-0.642,-0.642,-0.642,-0.642,-0.642,-0.642,-0.642,-0.642,-0.642,-0.642,-0.642,-0.642,-0.642,-0.642,-0.642,-0.642,-0.642,-0.642,-0.642,-0.6354,-0.6354,-0.6218,-0.6083,-0.5749,-0.5617,-0.5554,-2.2873,-2.2523,-2.2044,-2.165,-2.1375,-2.1229,-2.097,-2.0623,-2.0409,-2.0169,-1.985,-1.9656,-1.9356,-1.8934,-1.8398,-1.8018,-1.7788,-1.7234,-1.6842,-1.6467,-1.5951,-1.5546,-1.5362,-1.5079,-1.4843,-1.4725,-1.4656,-1.4419,-1.3881,-1.3631,-1.3208,-1.2621,-1.2428,-1.1996,-1.1428,-1.1247,-1.094,-1.0681,-1.0624,-1.0618,-1.0618,-1.0618,-1.0618,-1.0618,-1.0618,-1.0498,-1.0308,-1.011,-0.9837,-0.95,-0.9296,-0.8977,-0.8533,-0.8398,-0.8189,-0.7747,-0.7562,-0.7312,-0.6985,-0.6937,-0.6815,-0.6486,-0.642,-0.642,-0.6486,-0.642,-0.642,-0.6416,-0.642,-0.642,-0.642,-0.642,-0.642,-0.642,-0.642,-0.642,-0.642,-0.642,-0.642,-0.642,-0.642,-0.642,-0.642,-0.642,-0.642,-0.642,-0.642,-0.642,-0.642,-0.642,-0.642,-0.642,-0.642,-0.642,-0.642,-0.642,-0.642,-0.642,-0.642,-0.642,-0.642,-0.642,-0.642,-0.642,-0.642,-0.642,-0.642,-0.6354,-0.6284,-0.6218,-0.6148,-0.5947,-0.562,-0.5617,-0.5554,-2.3463,-2.2463,-2.2184,-2.1841,-2.1506,-2.1375,-2.1166,-2.097,-2.0785,-2.0573,-2.0308,-2.0067,-1.9811,-1.95,-1.9028,-1.8494,-1.803,-1.7678,-1.729,-1.6842,-1.6332,-1.5979,-1.571,-1.5313,-1.5098,-1.5029,-1.4902,-1.4666,-1.424,-1.3881,-1.3519,-1.3155,-1.2674,-1.2251,-1.1809,-1.1435,-1.1059,-1.0744,-1.0618,-1.0618,-1.0618,-1.0618,-1.0618,-1.0618,-1.0618,-1.0498,-1.0308,-1.0244,-1.0047,-0.9728,-0.9524,-0.9268,-0.8829,-0.8441,-0.8117,-0.7922,-0.7657,-0.7396,-0.7134,-0.7073,-0.7012,-0.6749,-0.6749,-0.6683,-0.6683,-0.6613,-0.6609,-0.6544,-0.6482,-0.642,-0.642,-0.642,-0.642,-0.642,-0.642,-0.642,-0.642,-0.642,-0.642,-0.642,-0.642,-0.642,-0.642,-0.642,-0.642,-0.642,-0.642,-0.642,-0.642,-0.642,-0.642,-0.642,-0.642,-0.642,-0.642,-0.642,-0.642,-0.642,-0.642,-0.642,-0.642,-0.642,-0.642,-0.642,-0.642,-0.642,-0.642,-0.6284,-0.6218,-0.602,-0.5951,-0.5815,-0.5557,-0.5488,-0.5491,-2.3759,-2.2552,-2.2278,-2.2044,-2.1698,-2.1582,-2.1437,-2.1277,-2.1109,-2.0898,-2.066,-2.0422,-2.0169,-1.9901,-1.9552,-1.9081,-1.8452,-1.8127,-1.7689,-1.719,-1.6719,-1.6379,-1.6066,-1.5672,-1.5381,-1.5264,-1.5088,-1.4843,-1.4538,-1.4181,-1.3881,-1.345,-1.2981,-1.2506,-1.2065,-1.1615,-1.1185,-1.087,-1.0751,-1.0618,-1.0624,-1.0618,-1.0618,-1.0618,-1.0618,-1.0498,-1.0371,-1.0364,-1.0174,-0.9989,-0.9728,-0.9396,-0.8952,-0.8371,-0.8047,-0.7982,-0.7657,-0.7396,-0.7265,-0.7204,-0.7138,-0.6946,-0.6881,-0.6881,-0.6881,-0.6811,-0.6741,-0.6745,-0.6679,-0.6552,-0.6548,-0.6548,-0.6482,-0.642,-0.642,-0.642,-0.642,-0.642,-0.642,-0.642,-0.642,-0.642,-0.642,-0.642,-0.642,-0.642,-0.642,-0.642,-0.642,-0.642,-0.642,-0.642,-0.642,-0.642,-0.642,-0.642,-0.642,-0.642,-0.642,-0.642,-0.642,-0.642,-0.642,-0.642,-0.642,-0.6354,-0.6354,-0.6284,-0.6086,-0.5888,-0.5752,-0.5683,-0.5488,-0.5428,-0.5428,-2.3699,-2.2737,-2.2356,-2.2137,-2.1949,-2.1787,-2.1582,-2.1437,-2.138,-2.1144,-2.0858,-2.066,-2.0472,-2.0182,-1.9901,-1.9552,-1.9081,-1.8506,-1.7975,-1.7645,-1.7234,-1.6807,-1.6431,-1.6124,-1.5826,-1.542,-1.5137,-1.4843,-1.4597,-1.4469,-1.4112,-1.3571,-1.3164,-1.2674,-1.2127,-1.1809,-1.131,-1.0926,-1.08,-1.0744,-1.0624,-1.0618,-1.0618,-1.0618,-1.0618,-1.0618,-1.0555,-1.0434,-1.0308,-1.0244,-1.006,-0.9612,-0.9017,-0.8495,-0.8107,-0.7987,-0.7722,-0.7461,-0.7269,-0.7269,-0.7204,-0.7073,-0.6946,-0.7012,-0.7012,-0.6942,-0.6876,-0.6881,-0.6881,-0.6881,-0.6815,-0.6745,-0.6609,-0.6416,-0.642,-0.642,-0.642,-0.642,-0.642,-0.642,-0.642,-0.642,-0.642,-0.642,-0.642,-0.642,-0.642,-0.642,-0.642,-0.642,-0.642,-0.642,-0.642,-0.642,-0.642,-0.642,-0.642,-0.642,-0.642,-0.642,-0.642,-0.642,-0.642,-0.642,-0.642,-0.642,-0.6284,-0.6148,-0.5951,-0.5818,-0.5683,-0.555,-0.5491,-0.5428,-0.5428,-2.4134,-2.3112,-2.2814,-2.2449,-2.2137,-2.2058,-2.1902,-2.165,-2.1492,-2.1348,-2.1215,-2.1082,-2.0822,-2.0472,-2.022,-1.9914,-1.9604,-1.8987,-1.8452,-1.7975,-1.7634,-1.7245,-1.6797,-1.6477,-1.6066,-1.5604,-1.5264,-1.5088,-1.4961,-1.4656,-1.4291,-1.3941,-1.3459,-1.2911,-1.2367,-1.1926,-1.1498,-1.1059,-1.087,-1.0744,-1.0618,-1.0618,-1.0618,-1.0618,-1.0618,-1.0618,-1.0555,-1.0561,-1.0428,-1.0308,-1.0334,-0.9945,-0.9087,-0.8635,-0.8312,-0.8172,-0.7982,-0.7857,-0.7787,-0.7727,-0.7727,-0.7661,-0.7531,-0.747,-0.74,-0.7204,-0.7138,-0.7073,-0.7012,-0.6881,-0.6876,-0.6876,-0.6745,-0.6609,-0.6482,-0.642,-0.642,-0.642,-0.642,-0.642,-0.642,-0.642,-0.642,-0.642,-0.642,-0.642,-0.642,-0.642,-0.642,-0.642,-0.642,-0.642,-0.642,-0.642,-0.642,-0.642,-0.642,-0.642,-0.642,-0.642,-0.642,-0.642,-0.642,-0.642,-0.642,-0.6354,-0.6214,-0.6083,-0.5885,-0.5686,-0.5554,-0.5491,-0.5425,-0.5428,-0.5428,-2.4865,-2.3822,-2.323,-2.2754,-2.2402,-2.2296,-2.2109,-2.1935,-2.1793,-2.165,-2.152,-2.1375,-2.1131,-2.0871,-2.0523,-2.022,-1.9914,-1.95,-1.8987,-1.841,-1.7986,-1.759,-1.7078,-1.6591,-1.6202,-1.5798,-1.5508,-1.5323,-1.5215,-1.4843,-1.4597,-1.424,-1.3761,-1.3216,-1.2674,-1.2182,-1.174,-1.124,-1.0989,-1.0807,-1.0618,-1.0618,-1.0618,-1.0618,-1.0618,-1.0618,-1.0618,-1.0618,-1.0561,-1.0434,-1.0391,-0.9945,-0.9221,-0.8829,-0.8511,-0.8306,-0.8112,-0.7982,-0.7982,-0.7982,-0.7982,-0.7982,-0.7797,-0.7731,-0.7661,-0.7461,-0.7335,-0.7265,-0.7199,-0.7138,-0.7138,-0.7073,-0.6942,-0.6872,-0.6745,-0.6548,-0.6548,-0.6482,-0.6482,-0.642,-0.642,-0.642,-0.642,-0.642,-0.642,-0.642,-0.642,-0.642,-0.642,-0.642,-0.642,-0.642,-0.642,-0.642,-0.642,-0.642,-0.642,-0.642,-0.642,-0.642,-0.642,-0.642,-0.642,-0.642,-0.642,-0.6288,-0.6148,-0.602,-0.5822,-0.5624,-0.5425,-0.5425,-0.5428,-0.5428,-0.5428,-2.5802,-2.4657,-2.3629,-2.3037,-2.2709,-2.2392,-2.2267,-2.2231,-2.2194,-2.2038,-2.1793,-2.1554,-2.1423,-2.1264,-2.0858,-2.0472,-2.022,-1.9914,-1.95,-1.8934,-1.8464,-1.7877,-1.7278,-1.6715,-1.6249,-1.5914,-1.574,-1.5498,-1.5274,-1.5029,-1.4852,-1.4469,-1.4001,-1.3528,-1.2989,-1.249,-1.1926,-1.1365,-1.1178,-1.0933,-1.0618,-1.0618,-1.0618,-1.0618,-1.0618,-1.0618,-1.0618,-1.0618,-1.0561,-1.0561,-1.0244,-0.9926,-0.9478,-0.9087,-0.8765,-0.8576,-0.8252,-0.8117,-0.8047,-0.8117,-0.8047,-0.8052,-0.7862,-0.7731,-0.7727,-0.7591,-0.7461,-0.7461,-0.7461,-0.7456,-0.7396,-0.7265,-0.7199,-0.7199,-0.7007,-0.6811,-0.6741,-0.6745,-0.6679,-0.6482,-0.642,-0.642,-0.6486,-0.6486,-0.6486,-0.6486,-0.6486,-0.6486,-0.6486,-0.6482,-0.6416,-0.6416,-0.642,-0.642,-0.642,-0.642,-0.642,-0.642,-0.642,-0.642,-0.642,-0.642,-0.642,-0.642,-0.6354,-0.6218,-0.602,-0.5954,-0.576,-0.5561,-0.5428,-0.5428,-0.5428,-0.5428,-0.5428,-2.6691,-2.5203,-2.458,-2.3881,-2.3157,-2.283,-2.2649,-2.2572,-2.2417,-2.2245,-2.2077,-2.1902,-2.1664,-2.1375,-2.118,-2.0835,-2.0472,-2.0118,-1.972,-1.9316,-1.8946,-1.8193,-1.7379,-1.6818,-1.6353,-1.6066,-1.5846,-1.5614,-1.5362,-1.5088,-1.4902,-1.4656,-1.4061,-1.3528,-1.2989,-1.2552,-1.2058,-1.1553,-1.1247,-1.0996,-1.0744,-1.0624,-1.0618,-1.0618,-1.0618,-1.0618,-1.0618,-1.0618,-1.0575,-1.0581,-1.0378,-0.9977,-0.953,-0.9332,-0.9145,-0.8894,-0.87,-0.8576,-0.8571,-0.8447,-0.8382,-0.8322,-0.8057,-0.7922,-0.7922,-0.7657,-0.7526,-0.7461,-0.7396,-0.733,-0.7391,-0.733,-0.7265,-0.733,-0.7138,-0.6946,-0.6876,-0.6876,-0.6815,-0.6749,-0.6745,-0.6749,-0.6749,-0.6749,-0.6749,-0.6745,-0.6749,-0.6683,-0.6613,-0.6609,-0.6609,-0.6416,-0.6416,-0.642,-0.642,-0.642,-0.642,-0.642,-0.642,-0.642,-0.642,-0.642,-0.642,-0.642,-0.642,-0.6288,-0.6086,-0.5892,-0.5693,-0.5495,-0.5428,-0.5428,-0.5428,-0.5428,-0.5428,-2.7486,-2.6037,-2.5382,-2.4531,-2.3611,-2.326,-2.3039,-2.2934,-2.2723,-2.254,-2.2402,-2.2231,-2.1983,-2.1759,-2.1471,-2.118,-2.0772,-2.0372,-1.9926,-1.9552,-1.9093,-1.8356,-1.7545,-1.6965,-1.657,-1.6239,-1.5914,-1.573,-1.5488,-1.5205,-1.497,-1.4725,-1.4189,-1.364,-1.3224,-1.2666,-1.2182,-1.1685,-1.1303,-1.0996,-1.0807,-1.0681,-1.0624,-1.0618,-1.0618,-1.0618,-1.0618,-1.0618,-1.0568,-1.0581,-1.0384,-1.011,-0.9728,-0.9588,-0.9326,-0.9017,-0.8894,-0.877,-0.8641,-0.8511,-0.8376,-0.8312,-0.8052,-0.7922,-0.7792,-0.7591,-0.7396,-0.733,-0.7199,-0.7204,-0.733,-0.7326,-0.7396,-0.7461,-0.7265,-0.7138,-0.7073,-0.7012,-0.7007,-0.6942,-0.6881,-0.6881,-0.6881,-0.6881,-0.6881,-0.6881,-0.6881,-0.6811,-0.6811,-0.6806,-0.6741,-0.6613,-0.6478,-0.6548,-0.6482,-0.6416,-0.642,-0.642,-0.642,-0.642,-0.642,-0.642,-0.642,-0.642,-0.642,-0.6354,-0.609,-0.5826,-0.569,-0.5557,-0.5495,-0.5428,-0.5428,-0.5428,-0.5428,-2.8233,-2.7089,-2.6088,-2.5049,-2.407,-2.3621,-2.3463,-2.3348,-2.3083,-2.2889,-2.2754,-2.254,-2.2356,-2.2184,-2.1807,-2.141,-2.1033,-2.0686,-2.0207,-1.9708,-1.9146,-1.8476,-1.7865,-1.729,-1.6853,-1.642,-1.6087,-1.5856,-1.5614,-1.5205,-1.5039,-1.4793,-1.4309,-1.389,-1.3459,-1.285,-1.2297,-1.1872,-1.1435,-1.1122,-1.087,-1.0744,-1.0618,-1.0618,-1.0618,-1.0618,-1.0618,-1.0624,-1.0568,-1.0588,-1.0441,-1.0251,-1.0002,-0.9658,-0.9396,-0.9075,-0.8888,-0.8765,-0.8576,-0.8376,-0.8236,-0.8172,-0.7922,-0.7731,-0.7666,-0.7466,-0.7265,-0.733,-0.7007,-0.7007,-0.7138,-0.733,-0.7396,-0.7461,-0.7461,-0.7391,-0.7265,-0.7204,-0.7138,-0.7012,-0.6942,-0.6942,-0.6946,-0.6946,-0.7007,-0.7134,-0.7073,-0.7073,-0.7007,-0.6942,-0.6872,-0.6811,-0.6741,-0.6671,-0.6609,-0.6478,-0.642,-0.642,-0.642,-0.642,-0.642,-0.642,-0.642,-0.642,-0.642,-0.6222,-0.5958,-0.5822,-0.569,-0.5557,-0.5428,-0.5428,-0.5428,-0.5428,-0.5428,-2.9032,-2.7533,-2.7041,-2.5947,-2.4575,-2.4105,-2.3894,-2.3812,-2.3494,-2.326,-2.3127,-2.2904,-2.2632,-2.237,-2.2123,-2.1793,-2.1326,-2.0983,-2.0523,-1.9747,-1.9239,-1.8774,-1.829,-1.7744,-1.7134,-1.6694,-1.6228,-1.5951,-1.5672,-1.5274,-1.5039,-1.4921,-1.4369,-1.389,-1.3649,-1.3042,-1.2552,-1.2182,-1.1747,-1.131,-1.0989,-1.087,-1.0681,-1.0624,-1.0618,-1.0618,-1.0618,-1.0618,-1.0561,-1.0568,-1.0498,-1.0308,-0.9989,-0.9919,-0.9658,-0.9274,-0.9017,-0.8894,-0.8705,-0.8511,-0.8376,-0.8172,-0.7977,-0.7857,-0.7731,-0.7531,-0.7461,-0.7396,-0.7138,-0.6876,-0.6872,-0.7068,-0.7265,-0.733,-0.7396,-0.7526,-0.7456,-0.7396,-0.7396,-0.7396,-0.733,-0.7326,-0.7391,-0.733,-0.733,-0.7391,-0.733,-0.7265,-0.7199,-0.7138,-0.7007,-0.6942,-0.6811,-0.6741,-0.6609,-0.6482,-0.642,-0.642,-0.642,-0.642,-0.642,-0.642,-0.642,-0.642,-0.642,-0.6222,-0.5958,-0.5822,-0.5756,-0.5557,-0.5428,-0.5428,-0.5428,-0.5428,-0.5428,-2.9277,-2.7994,-2.7316,-2.6198,-2.5005,-2.4574,-2.4385,-2.4193,-2.3855,-2.3668,-2.3494,-2.326,-2.2994,-2.2723,-2.254,-2.2156,-2.165,-2.1118,-2.0523,-1.9914,-1.946,-1.9146,-1.8721,-1.8182,-1.7567,-1.6909,-1.6467,-1.6077,-1.573,-1.5332,-1.5088,-1.497,-1.4428,-1.401,-1.3769,-1.3233,-1.2683,-1.2251,-1.1872,-1.1435,-1.1122,-1.0933,-1.0744,-1.0624,-1.0618,-1.0618,-1.0618,-1.0618,-1.0618,-1.0561,-1.0498,-1.0308,-1.0047,-0.9983,-0.9722,-0.9274,-0.9087,-0.8899,-0.8711,-0.8447,-0.8312,-0.8117,-0.7917,-0.7787,-0.7596,-0.7461,-0.7396,-0.7265,-0.7073,-0.6741,-0.6741,-0.7003,-0.7199,-0.7265,-0.7396,-0.7526,-0.7596,-0.7526,-0.7526,-0.7526,-0.7461,-0.7461,-0.7526,-0.7526,-0.7526,-0.7461,-0.7461,-0.7396,-0.7396,-0.733,-0.7204,-0.7073,-0.6942,-0.6745,-0.6613,-0.6482,-0.642,-0.642,-0.642,-0.642,-0.642,-0.642,-0.642,-0.642,-0.6354,-0.6156,-0.5954,-0.5888,-0.5756,-0.5557,-0.5428,-0.5428,-0.5428,-0.5428,-0.5428,-2.9324,-2.8239,-2.7268,-2.6292,-2.5404,-2.5029,-2.4751,-2.4539,-2.4208,-2.4009,-2.3839,-2.364,-2.3363,-2.3127,-2.2904,-2.2495,-2.1874,-2.1251,-2.061,-2.0118,-1.9759,-1.9448,-1.9028,-1.856,-1.7952,-1.7179,-1.6705,-1.6316,-1.5904,-1.5508,-1.5147,-1.497,-1.4556,-1.4189,-1.3769,-1.3285,-1.2858,-1.2428,-1.1996,-1.1498,-1.1185,-1.0996,-1.0807,-1.0618,-1.0618,-1.0618,-1.0618,-1.0618,-1.0618,-1.0568,-1.0434,-1.0174,-0.9983,-0.9926,-0.9664,-0.9087,-0.9022,-0.8829,-0.8576,-0.8376,-0.8182,-0.8052,-0.7857,-0.7657,-0.7521,-0.7396,-0.733,-0.7199,-0.7007,-0.6745,-0.6675,-0.6937,-0.7073,-0.7204,-0.733,-0.7526,-0.7596,-0.7591,-0.7526,-0.7587,-0.7657,-0.7657,-0.7657,-0.7657,-0.7591,-0.7526,-0.7526,-0.7526,-0.7526,-0.7461,-0.733,-0.7138,-0.6942,-0.6675,-0.6478,-0.6412,-0.635,-0.6288,-0.6288,-0.6288,-0.6288,-0.6222,-0.6222,-0.6288,-0.6284,-0.6086,-0.5888,-0.5752,-0.562,-0.5425,-0.5428,-0.5428,-0.5428,-0.5428,-0.5362,-2.9302,-2.7796,-2.7444,-2.6632,-2.5675,-2.54,-2.5146,-2.4886,-2.4564,-2.4359,-2.4177,-2.3867,-2.3625,-2.3407,-2.3172,-2.2632,-2.1935,-2.1396,-2.0921,-2.0523,-2.0169,-1.9823,-1.9448,-1.8999,-1.8441,-1.7831,-1.719,-1.6581,-1.6056,-1.5594,-1.5254,-1.4961,-1.4666,-1.43,-1.3941,-1.3459,-1.3103,-1.2683,-1.2182,-1.1747,-1.1373,-1.1059,-1.0877,-1.0618,-1.0618,-1.0618,-1.0618,-1.0618,-1.0561,-1.0581,-1.0371,-1.004,-0.9786,-0.9792,-0.9536,-0.9145,-0.8958,-0.8829,-0.8576,-0.8447,-0.8247,-0.8052,-0.7922,-0.7792,-0.7591,-0.7456,-0.7391,-0.733,-0.7073,-0.6749,-0.6482,-0.6811,-0.6942,-0.7077,-0.7269,-0.7526,-0.7526,-0.7526,-0.7652,-0.7787,-0.7852,-0.7852,-0.7722,-0.7657,-0.7596,-0.7526,-0.7526,-0.7526,-0.7526,-0.7461,-0.733,-0.7138,-0.6946,-0.6613,-0.6346,-0.628,-0.6214,-0.609,-0.6024,-0.6024,-0.6024,-0.5958,-0.6024,-0.6086,-0.6083,-0.6017,-0.5815,-0.5617,-0.5554,-0.5428,-0.5428,-0.5428,-0.5362,-0.5359,-0.5359,-2.8836,-2.7896,-2.7314,-2.6647,-2.6026,-2.5663,-2.5416,-2.5201,-2.4886,-2.4686,-2.4467,-2.4219,-2.3952,-2.3782,-2.348,-2.2934,-2.2296,-2.1793,-2.141,-2.1019,-2.0636,-2.0283,-1.9926,-1.9473,-1.9052,-1.8494,-1.7843,-1.7067,-1.6389,-1.5874,-1.5478,-1.5088,-1.4775,-1.4419,-1.4001,-1.37,-1.3277,-1.2867,-1.2428,-1.1934,-1.1435,-1.1178,-1.0807,-1.0688,-1.0618,-1.0618,-1.0618,-1.0618,-1.0561,-1.0504,-1.0308,-1.0047,-0.9792,-0.96,-0.9478,-0.9087,-0.8958,-0.8765,-0.8576,-0.8517,-0.8376,-0.8177,-0.8047,-0.7852,-0.7657,-0.7526,-0.7456,-0.733,-0.7269,-0.6946,-0.6683,-0.6881,-0.7007,-0.7073,-0.7335,-0.7526,-0.7596,-0.7596,-0.7727,-0.7922,-0.7787,-0.7717,-0.7657,-0.7591,-0.7596,-0.7596,-0.7526,-0.7526,-0.7526,-0.7396,-0.7335,-0.7007,-0.6811,-0.6482,-0.6214,-0.6148,-0.6017,-0.5888,-0.5826,-0.5826,-0.5826,-0.5826,-0.5822,-0.5815,-0.5815,-0.5815,-0.5749,-0.555,-0.5491,-0.5428,-0.5428,-0.5428,-0.5359,-0.5359,-0.5292,-2.8442,-2.7992,-2.7162,-2.6624,-2.6365,-2.5994,-2.5701,-2.547,-2.5201,-2.5005,-2.4862,-2.4564,-2.4302,-2.4078,-2.3739,-2.326,-2.274,-2.2263,-2.1888,-2.1458,-2.1131,-2.0736,-2.0334,-2.0003,-1.9589,-1.9093,-1.8548,-1.7722,-1.6729,-1.6228,-1.571,-1.5254,-1.4893,-1.4478,-1.413,-1.383,-1.3407,-1.292,-1.2421,-1.205,-1.1498,-1.1052,-1.0744,-1.0624,-1.0618,-1.0618,-1.0618,-1.0618,-1.0561,-1.0504,-1.0251,-0.9983,-0.9849,-0.96,-0.9344,-0.9087,-0.8958,-0.8829,-0.8705,-0.8641,-0.8571,-0.8376,-0.8182,-0.8052,-0.7852,-0.7657,-0.7461,-0.7265,-0.7204,-0.7077,-0.6946,-0.7073,-0.7199,-0.733,-0.7461,-0.7596,-0.7727,-0.7731,-0.7731,-0.7727,-0.7591,-0.7652,-0.7657,-0.7657,-0.7661,-0.7596,-0.7596,-0.7526,-0.7526,-0.7396,-0.7269,-0.6942,-0.6613,-0.6416,-0.6214,-0.6083,-0.5954,-0.569,-0.5693,-0.5693,-0.5693,-0.5756,-0.5686,-0.5617,-0.562,-0.562,-0.5554,-0.5488,-0.5425,-0.5428,-0.5428,-0.5362,-0.5359,-0.5292,-0.5156,-2.8473,-2.7556,-2.7247,-2.6939,-2.6624,-2.6365,-2.6082,-2.5807,-2.5508,-2.5317,-2.5201,-2.4886,-2.4605,-2.4359,-2.3797,-2.3304,-2.2949,-2.2632,-2.2278,-2.1827,-2.152,-2.1166,-2.0709,-2.0321,-1.9978,-1.9512,-1.9081,-1.8159,-1.7224,-1.657,-1.5941,-1.5478,-1.5079,-1.4734,-1.4189,-1.395,-1.3519,-1.2972,-1.2474,-1.1856,-1.131,-1.0989,-1.0814,-1.0618,-1.0618,-1.0618,-1.0618,-1.0624,-1.0568,-1.0575,-1.0251,-0.9989,-0.9862,-0.9536,-0.9338,-0.9274,-0.921,-0.9145,-0.8952,-0.8894,-0.8829,-0.8641,-0.8511,-0.8376,-0.8112,-0.7852,-0.7661,-0.7456,-0.733,-0.7204,-0.7143,-0.7143,-0.7269,-0.7461,-0.7657,-0.7787,-0.7857,-0.7857,-0.7857,-0.7792,-0.7722,-0.7787,-0.7852,-0.7727,-0.7666,-0.7661,-0.7596,-0.7526,-0.7461,-0.733,-0.7134,-0.6872,-0.6613,-0.635,-0.6086,-0.602,-0.5822,-0.5627,-0.5561,-0.5561,-0.5561,-0.5561,-0.5495,-0.5491,-0.5425,-0.5425,-0.5425,-0.5425,-0.5428,-0.5428,-0.5428,-0.5428,-0.5428,-0.5289,-0.5087,-2.8393,-2.7766,-2.7509,-2.7276,-2.7019,-2.6708,-2.6504,-2.626,-2.5901,-2.5696,-2.5584,-2.5256,-2.4886,-2.4523,-2.4036,-2.3696,-2.3377,-2.3038,-2.2663,-2.231,-2.1963,-2.163,-2.1215,-2.0822,-2.0385,-1.9965,-1.9448,-1.8815,-1.7886,-1.7056,-1.6332,-1.57,-1.5313,-1.4852,-1.4359,-1.407,-1.364,-1.3094,-1.2544,-1.1926,-1.1435,-1.1185,-1.0996,-1.0744,-1.0751,-1.0688,-1.0624,-1.0618,-1.0561,-1.0504,-1.018,-0.9989,-0.9862,-0.9664,-0.9408,-0.9408,-0.9408,-0.928,-0.9017,-0.9022,-0.8958,-0.877,-0.8641,-0.8382,-0.8112,-0.7982,-0.7857,-0.7787,-0.7722,-0.7596,-0.7531,-0.7596,-0.7661,-0.7787,-0.7917,-0.7922,-0.8052,-0.8047,-0.7982,-0.7917,-0.7792,-0.7857,-0.7852,-0.7727,-0.7661,-0.7596,-0.7526,-0.7526,-0.7396,-0.7204,-0.7003,-0.6806,-0.6544,-0.6284,-0.6086,-0.5888,-0.5756,-0.5561,-0.5495,-0.5428,-0.5428,-0.5428,-0.5428,-0.5428,-0.5425,-0.5425,-0.5428,-0.5428,-0.5428,-0.5428,-0.5428,-0.5359,-0.5292,-0.5027,-0.4824,-2.8458,-2.8109,-2.7836,-2.7612,-2.7413,-2.7051,-2.6858,-2.6674,-2.6314,-2.6082,-2.5901,-2.5584,-2.5146,-2.4751,-2.441,-2.4094,-2.3909,-2.3494,-2.3113,-2.2814,-2.2477,-2.2119,-2.1712,-2.1277,-2.0871,-2.051,-1.9914,-1.9291,-1.859,-1.7776,-1.6944,-1.6104,-1.5614,-1.5088,-1.4666,-1.43,-1.3881,-1.3147,-1.2552,-1.2058,-1.1685,-1.1428,-1.1247,-1.0996,-1.087,-1.0807,-1.0681,-1.0618,-1.0618,-1.0491,-1.0308,-1.0047,-0.9983,-0.9734,-0.9606,-0.9606,-0.9612,-0.9542,-0.9344,-0.9215,-0.9087,-0.8964,-0.8705,-0.8511,-0.8182,-0.8117,-0.8047,-0.8047,-0.7982,-0.8047,-0.8052,-0.8047,-0.8182,-0.8182,-0.8306,-0.8247,-0.8247,-0.8242,-0.8177,-0.8047,-0.7982,-0.7922,-0.7857,-0.7661,-0.7596,-0.7526,-0.7526,-0.7456,-0.733,-0.7138,-0.6937,-0.6741,-0.6544,-0.6284,-0.602,-0.5826,-0.5693,-0.5561,-0.5428,-0.5428,-0.5428,-0.5428,-0.5428,-0.5428,-0.5428,-0.5428,-0.5428,-0.5428,-0.5428,-0.5362,-0.5359,-0.5223,-0.509,-0.4824,-0.4495,-2.8687,-2.8536,-2.8191,-2.795,-2.7742,-2.7413,-2.7195,-2.707,-2.6725,-2.6487,-2.6295,-2.5828,-2.5454,-2.5162,-2.4791,-2.4467,-2.4261,-2.3925,-2.3566,-2.3201,-2.2844,-2.2495,-2.2123,-2.1698,-2.1264,-2.0795,-2.0308,-1.9759,-1.9133,-1.8483,-1.7556,-1.6627,-1.6009,-1.5439,-1.4961,-1.4538,-1.3941,-1.3268,-1.2736,-1.2305,-1.1934,-1.1685,-1.1498,-1.1303,-1.1122,-1.0996,-1.08,-1.0807,-1.0744,-1.0681,-1.0428,-1.0244,-1.0117,-0.9926,-0.9798,-0.974,-0.974,-0.9734,-0.9728,-0.96,-0.9478,-0.935,-0.9092,-0.8765,-0.8506,-0.8306,-0.8236,-0.8236,-0.8301,-0.8306,-0.8306,-0.8371,-0.8506,-0.8571,-0.8635,-0.8635,-0.8635,-0.8571,-0.8436,-0.8236,-0.8112,-0.8112,-0.7922,-0.7792,-0.7661,-0.7591,-0.7526,-0.7456,-0.7265,-0.7073,-0.6872,-0.6741,-0.6548,-0.6284,-0.5954,-0.5826,-0.5693,-0.5561,-0.5428,-0.5428,-0.5428,-0.5428,-0.5428,-0.5428,-0.5428,-0.5428,-0.5362,-0.5359,-0.5359,-0.5359,-0.5292,-0.5093,-0.4824,-0.4495,-0.4097,-2.8952,-2.8828,-2.8612,-2.8362,-2.8091,-2.7818,-2.7642,-2.7474,-2.7195,-2.6841,-2.6504,-2.6085,-2.5758,-2.5513,-2.5201,-2.4871,-2.4589,-2.4261,-2.3925,-2.3566,-2.3216,-2.2859,-2.2495,-2.2123,-2.1746,-2.1251,-2.0759,-2.0207,-1.9695,-1.9016,-1.8375,-1.7501,-1.6606,-1.5941,-1.5362,-1.4715,-1.4001,-1.3519,-1.3042,-1.2674,-1.249,-1.2182,-1.1934,-1.1802,-1.149,-1.1303,-1.1115,-1.0989,-1.0996,-1.087,-1.0681,-1.0555,-1.0371,-1.018,-1.0053,-0.9989,-0.9989,-0.9989,-0.9983,-0.9856,-0.9728,-0.9466,-0.921,-0.8958,-0.8829,-0.8759,-0.8689,-0.8689,-0.8694,-0.8694,-0.8759,-0.8759,-0.8829,-0.8952,-0.9022,-0.9022,-0.9022,-0.8958,-0.8829,-0.8565,-0.8501,-0.8376,-0.8182,-0.7922,-0.7792,-0.7661,-0.7591,-0.7461,-0.7199,-0.7007,-0.6872,-0.6741,-0.6548,-0.6284,-0.5954,-0.5892,-0.576,-0.5561,-0.5428,-0.5428,-0.5428,-0.5428,-0.5428,-0.5428,-0.5428,-0.5362,-0.5359,-0.5292,-0.5223,-0.5223,-0.5093,-0.4831,-0.4564,-0.4164,-0.3763,-2.9178,-2.9044,-2.8947,-2.8669,-2.8362,-2.8191,-2.8053,-2.7876,-2.7595,-2.7178,-2.6758,-2.6419,-2.6156,-2.5885,-2.5605,-2.5278,-2.495,-2.463,-2.4245,-2.3909,-2.3566,-2.3216,-2.2904,-2.254,-2.2109,-2.1698,-2.1166,-2.061,-2.0144,-1.95,-1.8869,-1.8159,-1.7324,-1.6606,-1.5758,-1.4902,-1.4181,-1.3881,-1.3519,-1.3103,-1.292,-1.2674,-1.2428,-1.2243,-1.1926,-1.1685,-1.149,-1.1303,-1.1247,-1.1122,-1.0996,-1.0807,-1.0681,-1.0491,-1.0364,-1.0301,-1.0238,-1.0238,-1.0238,-1.0047,-0.9919,-0.96,-0.9408,-0.928,-0.9145,-0.9139,-0.9139,-0.9139,-0.921,-0.9215,-0.921,-0.928,-0.9344,-0.9472,-0.9472,-0.9542,-0.9408,-0.928,-0.9151,-0.8952,-0.8829,-0.87,-0.8376,-0.8117,-0.7787,-0.7657,-0.7461,-0.733,-0.7199,-0.7003,-0.6806,-0.6675,-0.6548,-0.6284,-0.5954,-0.5888,-0.576,-0.5561,-0.5428,-0.5428,-0.5428,-0.5428,-0.5428,-0.5428,-0.5362,-0.5359,-0.5292,-0.516,-0.509,-0.5087,-0.4824,-0.4498,-0.4097,-0.3763,-0.3426,-2.9249,-2.9178,-2.9112,-2.8905,-2.8594,-2.8458,-2.8327,-2.8146,-2.7876,-2.7535,-2.7149,-2.6808,-2.6556,-2.6314,-2.599,-2.5642,-2.5278,-2.495,-2.4614,-2.4245,-2.3867,-2.3566,-2.3304,-2.2949,-2.2572,-2.2123,-2.165,-2.1118,-2.061,-1.9952,-1.9396,-1.8815,-1.805,-1.7157,-1.6244,-1.5216,-1.4538,-1.4249,-1.3941,-1.364,-1.3338,-1.3164,-1.2928,-1.2674,-1.2428,-1.2182,-1.1872,-1.1685,-1.156,-1.1435,-1.131,-1.1122,-1.0933,-1.0863,-1.08,-1.08,-1.08,-1.0744,-1.0744,-1.0301,-1.0053,-0.9862,-0.9734,-0.96,-0.9524,-0.9454,-0.946,-0.953,-0.96,-0.967,-0.9798,-0.9862,-0.9856,-0.9856,-0.9862,-0.9856,-0.9664,-0.9536,-0.9408,-0.921,-0.9081,-0.8888,-0.8635,-0.8317,-0.7917,-0.7591,-0.733,-0.7199,-0.7134,-0.7003,-0.6741,-0.6675,-0.6548,-0.6284,-0.602,-0.5954,-0.576,-0.5561,-0.5428,-0.5428,-0.5428,-0.5428,-0.5428,-0.5362,-0.5359,-0.5292,-0.5093,-0.496,-0.4758,-0.4556,-0.4428,-0.4097,-0.3699,-0.3297,-0.3025,-2.9511,-2.9411,-2.9289,-2.9141,-2.8975,-2.8761,-2.8587,-2.8414,-2.8119,-2.7818,-2.7504,-2.7164,-2.6858,-2.659,-2.6295,-2.5957,-2.5567,-2.5278,-2.495,-2.4614,-2.4204,-2.4009,-2.3754,-2.3392,-2.3024,-2.2632,-2.217,-2.1602,-2.097,-2.0409,-1.985,-1.9344,-1.8483,-1.749,-1.6606,-1.571,-1.5196,-1.4893,-1.4538,-1.424,-1.3941,-1.3769,-1.3528,-1.3155,-1.292,-1.2613,-1.2305,-1.2182,-1.1996,-1.1809,-1.1747,-1.1622,-1.149,-1.1428,-1.1428,-1.1303,-1.124,-1.1059,-1.0996,-1.0681,-1.0421,-1.0238,-1.0053,-0.9919,-0.9849,-0.9728,-0.9792,-0.9792,-0.9798,-0.9862,-0.9926,-0.9926,-0.9926,-0.9926,-0.9989,-0.9919,-0.9856,-0.9734,-0.9606,-0.9466,-0.9268,-0.8952,-0.87,-0.8376,-0.7982,-0.7657,-0.74,-0.7204,-0.7138,-0.6937,-0.6741,-0.6679,-0.6548,-0.6222,-0.6024,-0.5888,-0.5756,-0.5495,-0.5428,-0.5428,-0.5428,-0.5359,-0.5292,-0.5226,-0.5156,-0.5156,-0.4824,-0.4561,-0.4092,-0.3892,-0.3761,-0.3629,-0.3362,-0.296,-0.2624,-2.9682,-2.9589,-2.9454,-2.9372,-2.9265,-2.9021,-2.881,-2.8637,-2.8353,-2.8109,-2.7847,-2.7552,-2.7195,-2.6906,-2.6573,-2.6227,-2.5832,-2.5567,-2.5278,-2.495,-2.4589,-2.4343,-2.4135,-2.3839,-2.348,-2.3083,-2.2663,-2.2109,-2.1554,-2.0957,-2.0295,-1.954,-1.8857,-1.8147,-1.7279,-1.6503,-1.5826,-1.5468,-1.5118,-1.4834,-1.4538,-1.4309,-1.4061,-1.3692,-1.3338,-1.3042,-1.2858,-1.2613,-1.2436,-1.2375,-1.2243,-1.2174,-1.2058,-1.1988,-1.1926,-1.1802,-1.156,-1.1373,-1.1247,-1.0996,-1.0744,-1.0618,-1.0364,-1.0244,-1.018,-1.0117,-1.018,-1.0117,-0.9989,-0.9989,-1.0053,-1.0053,-0.9989,-0.9989,-0.9989,-0.9983,-0.9983,-0.9862,-0.9734,-0.9594,-0.9402,-0.9087,-0.87,-0.8312,-0.7982,-0.7727,-0.7405,-0.7274,-0.7073,-0.6872,-0.6609,-0.6548,-0.6482,-0.6218,-0.5954,-0.5822,-0.5624,-0.5428,-0.5359,-0.5292,-0.5226,-0.516,-0.509,-0.5024,-0.4891,-0.4758,-0.4495,-0.4095,-0.3694,-0.3357,-0.3159,-0.3025,-0.2893,-0.2624,-0.2288,-2.9808,-2.979,-2.9683,-2.9569,-2.9472,-2.9243,-2.898,-2.881,-2.8594,-2.8414,-2.8255,-2.7876,-2.7565,-2.7272,-2.6954,-2.6556,-2.6139,-2.5832,-2.5567,-2.5278,-2.4871,-2.471,-2.4492,-2.4219,-2.3909,-2.3551,-2.3157,-2.2663,-2.2184,-2.1396,-2.0547,-1.985,-1.9384,-1.8792,-1.8093,-1.7435,-1.6662,-1.6151,-1.5758,-1.5478,-1.5128,-1.4902,-1.4547,-1.4181,-1.3821,-1.3519,-1.3277,-1.3033,-1.2858,-1.2744,-1.2613,-1.2552,-1.249,-1.2367,-1.2367,-1.2182,-1.1872,-1.1747,-1.156,-1.131,-1.1185,-1.0996,-1.0744,-1.0688,-1.0561,-1.0434,-1.0371,-1.0308,-1.0244,-1.0244,-1.0238,-1.0117,-0.9989,-0.9989,-0.9989,-0.9989,-0.9983,-0.9926,-0.9798,-0.967,-0.9542,-0.9221,-0.8894,-0.8565,-0.8182,-0.7857,-0.7531,-0.7209,-0.7012,-0.6745,-0.6544,-0.6416,-0.6284,-0.6148,-0.5951,-0.5752,-0.5554,-0.5292,-0.5156,-0.509,-0.5024,-0.4957,-0.4827,-0.4694,-0.4628,-0.4361,-0.4028,-0.3627,-0.3293,-0.2958,-0.269,-0.2622,-0.2557,-0.2421,-0.2085,-2.9996,-2.9991,-2.9874,-2.9771,-2.9682,-2.9472,-2.9267,-2.9067,-2.8815,-2.8619,-2.8474,-2.8201,-2.7876,-2.7565,-2.7227,-2.6873,-2.6522,-2.6139,-2.5868,-2.5551,-2.5278,-2.5068,-2.4871,-2.4574,-2.4343,-2.3994,-2.3595,-2.3113,-2.248,-2.1718,-2.1006,-2.0359,-2.0003,-1.9527,-1.9056,-1.8536,-1.771,-1.7,-1.6549,-1.6161,-1.5768,-1.5546,-1.5137,-1.4725,-1.4359,-1.4052,-1.3752,-1.345,-1.3277,-1.3155,-1.2981,-1.2858,-1.2867,-1.2797,-1.2736,-1.2552,-1.2375,-1.2251,-1.1934,-1.1622,-1.1435,-1.1373,-1.1122,-1.087,-1.0744,-1.0624,-1.0491,-1.0428,-1.0301,-1.0238,-1.0174,-1.011,-0.9989,-0.9989,-0.9989,-0.9989,-0.9926,-0.9862,-0.974,-0.9676,-0.9542,-0.9344,-0.9017,-0.8765,-0.8376,-0.8052,-0.7661,-0.7339,-0.6946,-0.6679,-0.6416,-0.6284,-0.6086,-0.5951,-0.5752,-0.5554,-0.5422,-0.5223,-0.5024,-0.4824,-0.4758,-0.4628,-0.4495,-0.4295,-0.4092,-0.3761,-0.3496,-0.3159,-0.2824,-0.2622,-0.2423,-0.2356,-0.2221,-0.2085,-0.1884,-3.0221,-3.0166,-3.0045,-2.9937,-2.9805,-2.9644,-2.9493,-2.9349,-2.9089,-2.8863,-2.87,-2.8448,-2.8183,-2.7876,-2.7535,-2.7213,-2.6891,-2.6539,-2.6191,-2.5937,-2.5659,-2.547,-2.524,-2.4989,-2.4751,-2.4451,-2.4078,-2.3595,-2.292,-2.2156,-2.1444,-2.1019,-2.0646,-2.0245,-1.9888,-1.9475,-1.8963,-1.8201,-1.7556,-1.6955,-1.6503,-1.6114,-1.571,-1.5362,-1.4942,-1.4597,-1.43,-1.3992,-1.3752,-1.3571,-1.3407,-1.3415,-1.3346,-1.3277,-1.3042,-1.2797,-1.2621,-1.2498,-1.2251,-1.1996,-1.1879,-1.1685,-1.1498,-1.131,-1.1059,-1.087,-1.0681,-1.0555,-1.0301,-1.011,-1.011,-1.0047,-0.9989,-0.9926,-0.9926,-0.9926,-0.9862,-0.974,-0.9676,-0.9612,-0.9478,-0.9274,-0.9081,-0.8829,-0.8576,-0.8252,-0.7857,-0.74,-0.7007,-0.6679,-0.6416,-0.6284,-0.6017,-0.5752,-0.5554,-0.5418,-0.5223,-0.5024,-0.4761,-0.4561,-0.4495,-0.4228,-0.3961,-0.3694,-0.3426,-0.3226,-0.3025,-0.2757,-0.2488,-0.2287,-0.2085,-0.1951,-0.1884,-0.1816,-0.1614,-3.0371,-3.0316,-3.0196,-3.0056,-2.9921,-2.9784,-2.9716,-2.9683,-2.939,-2.9115,-2.891,-2.87,-2.8474,-2.821,-2.7886,-2.7565,-2.7258,-2.6922,-2.659,-2.633,-2.6099,-2.5881,-2.5659,-2.5432,-2.5185,-2.4871,-2.4492,-2.4063,-2.3523,-2.2799,-2.2156,-2.1712,-2.1375,-2.1006,-2.0646,-2.0258,-1.9837,-1.9371,-1.8578,-1.7929,-1.7213,-1.6708,-1.6255,-1.5921,-1.5468,-1.502,-1.4775,-1.4478,-1.4189,-1.413,-1.401,-1.395,-1.383,-1.37,-1.3398,-1.3164,-1.292,-1.2797,-1.2613,-1.2367,-1.2251,-1.2065,-1.1879,-1.1685,-1.149,-1.1059,-1.0807,-1.0618,-1.0428,-1.0238,-1.0117,-1.0047,-0.9983,-0.9926,-0.9926,-0.9926,-0.9926,-0.9804,-0.974,-0.967,-0.9536,-0.9332,-0.921,-0.8958,-0.8641,-0.8382,-0.7992,-0.7531,-0.7138,-0.6679,-0.6416,-0.6214,-0.5885,-0.562,-0.5488,-0.5355,-0.5156,-0.4891,-0.4561,-0.4231,-0.4028,-0.3694,-0.3295,-0.3092,-0.2891,-0.2755,-0.2621,-0.2353,-0.2151,-0.2085,-0.1883,-0.1614,-0.148,-0.148,-0.1412,-3.0511,-3.0442,-3.0352,-3.0241,-3.0114,-3.0026,-2.9937,-2.9841,-2.9718,-2.9491,-2.92,-2.898,-2.8791,-2.8569,-2.8264,-2.7961,-2.7654,-2.7334,-2.7019,-2.6741,-2.6504,-2.6295,-2.6118,-2.5864,-2.5605,-2.5378,-2.5013,-2.4517,-2.3937,-2.3319,-2.283,-2.2434,-2.2063,-2.1684,-2.1348,-2.0957,-2.0623,-2.0308,-1.9786,-1.8951,-1.8135,-1.76,-1.7168,-1.6719,-1.6218,-1.5768,-1.542,-1.5079,-1.4784,-1.4538,-1.424,-1.413,-1.401,-1.3881,-1.3761,-1.358,-1.3398,-1.3277,-1.3094,-1.2858,-1.2683,-1.256,-1.2375,-1.2243,-1.1934,-1.1373,-1.0996,-1.0744,-1.0561,-1.0371,-1.0244,-1.011,-1.0047,-0.9989,-0.9989,-0.9989,-0.9989,-0.9926,-0.9868,-0.9728,-0.953,-0.9402,-0.9274,-0.9022,-0.8705,-0.8382,-0.7992,-0.7536,-0.7204,-0.6811,-0.635,-0.6083,-0.5815,-0.555,-0.5418,-0.5156,-0.4957,-0.4625,-0.4295,-0.3961,-0.3563,-0.3161,-0.2825,-0.2557,-0.2354,-0.2285,-0.2151,-0.195,-0.1748,-0.1748,-0.1682,-0.1413,-0.1278,-0.1278,-0.1212,-3.0614,-3.0576,-3.049,-3.0383,-3.0292,-3.0221,-3.0104,-2.9996,-2.994,-2.9808,-2.9569,-2.931,-2.9071,-2.8863,-2.8619,-2.8362,-2.8073,-2.7754,-2.7409,-2.7115,-2.6923,-2.6691,-2.6487,-2.6279,-2.6066,-2.5795,-2.5384,-2.4863,-2.4338,-2.3948,-2.355,-2.3143,-2.2754,-2.2388,-2.2109,-2.1746,-2.1375,-2.1006,-2.0709,-2.0093,-1.915,-1.8566,-1.7929,-1.7379,-1.6944,-1.6503,-1.6114,-1.5768,-1.542,-1.5128,-1.4883,-1.4666,-1.4547,-1.4488,-1.4309,-1.4121,-1.3941,-1.3761,-1.358,-1.3407,-1.3164,-1.3042,-1.2797,-1.2613,-1.2367,-1.1872,-1.156,-1.131,-1.0933,-1.0744,-1.0688,-1.0618,-1.0555,-1.0491,-1.0428,-1.0428,-1.0371,-1.0308,-1.018,-1.0047,-0.9856,-0.9664,-0.9472,-0.9145,-0.8894,-0.87,-0.8247,-0.7731,-0.7335,-0.6876,-0.6416,-0.6017,-0.5752,-0.5484,-0.5286,-0.5024,-0.4761,-0.4428,-0.4095,-0.3493,-0.3027,-0.2624,-0.2288,-0.2085,-0.1951,-0.1883,-0.1748,-0.1614,-0.1547,-0.1547,-0.1413,-0.128,-0.1144,-0.0875,-0.0808,-3.0717,-3.068,-3.0577,-3.0491,-3.0428,-3.0386,-3.026,-3.0155,-3.0123,-3.0034,-2.9872,-2.9608,-2.9373,-2.916,-2.8915,-2.8718,-2.8448,-2.8165,-2.7823,-2.7547,-2.7352,-2.7164,-2.6939,-2.6708,-2.647,-2.6139,-2.5726,-2.5368,-2.4958,-2.4608,-2.4241,-2.3909,-2.3508,-2.3143,-2.2799,-2.2449,-2.2077,-2.1746,-2.1444,-2.1104,-2.0333,-1.9463,-1.8727,-1.8201,-1.7722,-1.7279,-1.6888,-1.656,-1.6104,-1.5816,-1.5575,-1.5362,-1.5196,-1.5137,-1.4951,-1.4765,-1.4538,-1.4419,-1.424,-1.4061,-1.3761,-1.3511,-1.3277,-1.3042,-1.2797,-1.249,-1.2182,-1.1872,-1.1498,-1.1185,-1.1185,-1.1122,-1.0996,-1.0933,-1.0933,-1.0863,-1.0744,-1.0688,-1.0555,-1.0428,-1.018,-0.9926,-0.9664,-0.9338,-0.9081,-0.8888,-0.8501,-0.8047,-0.7526,-0.7007,-0.6548,-0.6086,-0.5752,-0.5484,-0.5153,-0.4891,-0.4628,-0.4161,-0.3761,-0.3092,-0.2488,-0.2153,-0.1884,-0.1681,-0.1547,-0.1548,-0.1481,-0.1413,-0.1346,-0.1278,-0.0942,-0.0741,-0.0404,-0.0202,-0.0135,-3.0759,-3.0704,-3.0676,-3.0621,-3.0579,-3.0528,-3.0475,-3.0343,-3.026,-3.018,-3.0079,-2.9988,-2.9806,-2.9471,-2.9228,-2.8989,-2.8797,-2.8558,-2.8317,-2.8045,-2.78,-2.7624,-2.7413,-2.7164,-2.6891,-2.6556,-2.6193,-2.5888,-2.5594,-2.5253,-2.4863,-2.4461,-2.4021,-2.3666,-2.3421,-2.3068,-2.2709,-2.2434,-2.2156,-2.1827,-2.1286,-2.0434,-1.9631,-1.9097,-1.8673,-1.8201,-1.7722,-1.7335,-1.7,-1.6719,-1.6368,-1.6151,-1.5989,-1.5874,-1.569,-1.5575,-1.5352,-1.5177,-1.5001,-1.4765,-1.4519,-1.4231,-1.4001,-1.37,-1.3467,-1.3103,-1.2858,-1.2674,-1.2305,-1.1809,-1.1685,-1.156,-1.1498,-1.1498,-1.1435,-1.1365,-1.124,-1.1115,-1.1052,-1.0807,-1.0561,-1.0308,-0.9989,-0.9658,-0.9268,-0.9017,-0.8565,-0.8112,-0.7657,-0.7138,-0.6683,-0.6218,-0.5752,-0.5488,-0.5156,-0.4824,-0.4495,-0.4028,-0.3493,-0.2757,-0.2218,-0.1748,-0.148,-0.1412,-0.128,-0.1213,-0.1146,-0.101,-0.1078,-0.0943,-0.0472,-0.0067,0.0269,0.0538,0.074]},{"header":{"parameterUnit":"m.s-1","parameterCategory":1,"la1":31.0,"la2":29.5877,"lo1":-88.7671,"lo2":-86.6584,"dy":0.0162,"dx":0.0185,"nx":115,"ny":88,"refTime":"2023-05-10T12:00:00:Z","depth":0,"parameterNumber":3,"parameterNumberName":"V-component_of_WINDS"},"data":[0.0,0.0,0.0,0.0,0.0,0.0,0.0,0.0,0.0,0.0,0.0,0.0,0.0,0.0,0.0,0.0,0.0,0.0,0.0,0.0,0.0,0.0,0.0,0.0,0.0,0.0,0.0,0.0,0.0,0.0,0.0,0.0,0.0,0.0,0.0,0.0,0.0,0.0,0.0,0.0,0.0,0.0,0.0,0.0,0.0,0.0,0.0,0.0,0.0,0.0,0.0,0.0,0.0,0.0,0.0,0.0,0.0,0.0,0.0,0.0,0.0,0.0,0.0,0.0,0.0,0.0,0.0,0.0,0.0,0.0,0.0,0.0,0.0,0.0,0.0,0.0,0.0,0.0,0.0,0.0,0.0,0.0,0.0,0.0,0.0,0.0,0.0,0.0,0.0,0.0,0.0,0.0,0.0,0.0,0.0,0.0,0.0,0.0,0.0,0.0,0.0,0.0,0.0,0.0,0.0,0.0,0.0,0.0,0.0,0.0,0.0,0.0,0.0,0.0,0.0,0.0,0.0,0.0,0.0,0.0,0.0,0.0,0.0,0.0,0.0,0.0,0.0,0.0,0.0,0.0,0.0,0.0,0.0,0.0,0.0,0.0,0.0,0.0,0.0,0.0,0.0,0.0,0.0,0.0,0.0,0.0,0.0,0.0,0.0,0.0,0.0,0.0,0.0,0.0,0.0,0.0,0.0,0.0,0.0,0.0,0.0,0.0,0.0,0.0,0.0,0.0,0.0,0.0,0.0,0.0,0.0,0.0,0.0,0.0,0.0,0.0,0.0,0.0,0.0,0.0,0.0,0.0,0.0,0.0,0.0,0.0,0.0,0.0,0.0,0.0,0.0,0.0,0.0,0.0,0.0,0.0,0.0,0.0,0.0,0.0,0.0,0.0,0.0,0.0,0.0,0.0,0.0,0.0,0.0,0.0,0.0,0.0,0.0,0.0,0.0,0.0,0.0,0.0,0.0,0.0,0.0,0.0,0.0,0.0,0.0,0.0,0.0,0.0,0.0,0.0,0.0,0.0,0.0,0.0,0.0,0.0,0.0,0.0,0.0,0.0,0.0,0.0,0.0,0.0,0.0,0.0,0.0,0.0,0.0,0.0,0.0,0.0,0.0,0.0,0.0,0.0,0.0,0.0,0.0,0.0,0.0,0.0,0.0,0.0,0.0,0.0,0.0,0.0,0.0,0.0,0.0,0.0,0.0,0.0,0.0,0.0,0.0,0.0,0.0,0.0,0.0,0.0,0.0,0.0,0.0,0.0,0.0,0.0,0.0,0.0,0.0,0.0,0.0,0.0,0.0,0.0,0.0,0.0,0.0,0.0,0.0,0.0,0.0,0.0,0.0,0.0,0.0,0.0,0.0,0.0,0.0,0.0,0.0,0.0,0.0,0.0,0.0,0.0,0.0,0.0,0.0,0.0,0.0,0.0,0.0,0.0,0.0,0.0,0.0,0.0,0.0,0.0,0.0,0.0,0.0,0.0,0.0,0.0,0.0,0.0,0.0,0.0,0.0,0.0,0.0,0.0,0.0,0.0,0.0,0.0,0.0,0.0,0.0,0.0,0.0,0.0,0.0,0.0,0.0,0.0,0.0,0.0,0.0,0.0,0.0,0.0,0.0,0.0,0.0,0.0,0.0,0.0,0.0,0.0,0.0,0.0,0.0,0.0,0.0,0.0,0.0,0.0,0.0,0.0,0.0,0.0,0.0,0.0,0.0,0.0,0.0,0.0,0.0,0.0,0.0,0.0,0.0,0.0,0.0,0.0,0.0,0.0,0.0,0.0,0.0,0.0,0.0,0.0,0.0,0.0,0.0,0.0,0.0,0.0,0.0,0.0,0.0,0.0,0.0,0.0,0.0,0.0,0.0,0.0,0.0,0.0,0.0,0.0,0.0,0.0,0.0,0.0,0.0,0.0,0.0,0.0,0.0,0.0,0.0,0.0,0.0,0.0,0.0,0.0,0.0,0.0,0.0,0.0,0.0,0.0,0.0,0.0,0.0,0.0,0.0,0.0,0.0,0.0,0.0,0.0,0.0,0.0,0.0,0.0,0.0,0.0,0.0,0.0,0.0,0.0,0.0,0.0,0.0,0.0,0.0,0.0,0.0,0.0,0.0,0.0,0.0,0.0,0.0,0.0,0.0,0.0,0.0,0.0,0.0,0.0,0.0,0.0,0.0,0.0,0.0,0.0,0.0,0.0,0.0,0.0,0.0,0.0,0.0,0.0,0.0,0.0,0.0,0.0,0.0,0.0,0.0,0.0,0.0,0.0,0.0,0.0,0.0,0.0,0.0,0.0,0.0,0.0,0.0,0.0,0.0,0.0,0.0,0.0,0.0,0.0,0.0,0.0,0.0,0.0,0.0,0.0,0.0,0.0,0.0,0.0,0.0,0.0,0.0,0.0,0.0,0.0,0.0,0.0,0.0,0.0,0.0,0.0,0.0,0.0,0.0,0.0,0.0,0.0,0.0,0.0,0.0,0.0,0.0,0.0,0.0,0.0,0.0,0.0,0.0,0.0,0.0,0.0,0.0,0.0,0.0,0.0,0.0,0.0,0.0,0.0,0.0,0.0,0.0,0.0,0.0,0.0,0.0,0.0,0.0,0.0,0.0,0.0,0.0,0.0,0.0,0.0,0.0,0.0,0.0,0.0,0.0,0.0,0.0,0.0,0.0,0.0,0.0,0.0,0.0,0.0,0.0,0.0,0.0,0.0,0.0,0.0,0.0,0.0,0.0,0.0,0.0,0.0,0.0,0.0,0.0,0.0,0.0,0.0,0.0,0.0,0.0,0.0,0.0,0.0,0.0,0.0,0.0,0.0,0.0,0.0,0.0,0.0,0.0,0.0,0.0,0.0,0.0,0.0,0.0,0.0,0.0,0.0,0.0,0.0,0.0,0.0,0.0,0.0,0.0,0.0,0.0,0.0,0.0,0.0,0.0,0.0,0.0,0.0,0.0,0.0,0.0,0.0,0.0,0.0,0.0,0.0,0.0,0.0,0.0,0.0,0.0,0.0,0.0,0.0,0.0,0.0,0.0,0.0,0.0,0.0,0.0,0.0,0.0,0.0,0.0,0.0,0.0,0.0,0.0,0.0,0.0,0.0,0.0,0.0,0.0,0.0,0.0,0.0,0.0,0.0,0.0,0.0,0.0,0.0,0.0,0.0,0.0,0.0,0.0,0.0,0.0,0.0,0.0,0.0,0.0,0.0,0.0,0.0,0.0,0.0,0.0,0.0,0.0,0.0,0.0,0.0,0.0,0.0,0.0,0.0,0.0,0.0,0.0,0.0,0.0,0.0,0.0,0.0,0.0,0.0,0.0,0.0,0.0,0.0,0.0,0.0,0.0,0.0,0.0,0.0,0.0,0.0,0.0,0.0,0.0,0.0,0.0,0.0,0.0,0.0,0.0,0.0,0.0,0.0,0.0,0.0,0.0,0.0,0.0,0.0,0.0,0.0,0.0,0.0,0.0,0.0,0.0,0.0,0.0,0.0,0.0,0.0,0.0,0.0,0.0,0.0,0.0,0.0,0.0,0.0,0.0,0.0,0.0,0.0,0.0,0.0,0.0,0.0,0.0,0.0,0.0,0.0,0.0,0.0,0.0,0.0,0.0,0.0,0.0,0.0,0.0,0.0,0.0,0.0,0.0,0.0,0.0,0.0,0.0,0.0,0.0,0.0,0.0,0.0,0.0,0.0,0.0,0.0,0.0,0.0,0.0,0.0,0.0,0.0,0.0,0.0,0.0,0.0,0.0,0.0,0.0,0.0,0.0,0.0,0.0,0.0,0.0,0.0,0.0,0.0,0.0,0.0,0.0,0.0,0.0,0.0,0.0,0.0,0.0,0.0,0.0,0.0,0.0,0.0,0.0,0.0,0.0,0.0,0.0,0.0,0.0,0.0,0.0,0.0,0.0,0.0,0.0,0.0,0.0,0.0,0.0,0.0,0.0,0.0,0.0,0.0,0.0,0.0,0.0,0.0,0.0,0.0,0.0,0.0,0.0,0.0,0.0,0.0,0.0,0.0,0.0,0.0,0.0,0.0,0.0,0.0,0.0,0.0,0.0,0.0,0.0,0.0,0.0,0.0,0.0,0.0,0.0,0.0,0.0,0.0,0.0,0.0,0.0,0.0,0.0,0.0,0.0,0.0,0.0,0.0,0.0,0.0,0.0,0.0,0.0,0.0,0.0,0.0,0.0,0.0,0.0,0.0,0.0,0.0,0.0,0.0,0.0,0.0,0.0,0.0,0.0,0.0,0.0,0.0,0.0,0.0,-2.3795,0.0,0.0,0.0,0.0,0.0,0.0,0.0,0.0,0.0,0.0,0.0,0.0,0.0,0.0,0.0,0.0,0.0,0.0,0.0,0.0,0.0,0.0,0.0,0.0,0.0,0.0,0.0,0.0,0.0,0.0,0.0,0.0,0.0,0.0,0.0,0.0,0.0,0.0,0.0,0.0,0.0,0.0,0.0,0.0,0.0,0.0,0.0,0.0,0.0,0.0,0.0,0.0,0.0,0.0,0.0,0.0,0.0,0.0,0.0,0.0,0.0,0.0,0.0,0.0,0.0,0.0,0.0,0.0,0.0,0.0,0.0,0.0,0.0,0.0,0.0,0.0,0.0,0.0,0.0,0.0,0.0,0.0,0.0,0.0,0.0,0.0,0.0,0.0,0.0,0.0,0.0,0.0,0.0,0.0,0.0,0.0,0.0,0.0,0.0,0.0,0.0,0.0,0.0,0.0,0.0,0.0,0.0,0.0,0.0,0.0,-2.3795,-2.3795,-2.3795,-2.3795,-2.3795,0.0,0.0,0.0,0.0,0.0,0.0,0.0,0.0,0.0,0.0,0.0,0.0,0.0,0.0,0.0,0.0,0.0,0.0,0.0,0.0,0.0,0.0,0.0,0.0,0.0,0.0,0.0,0.0,0.0,0.0,0.0,0.0,0.0,0.0,0.0,0.0,0.0,0.0,0.0,0.0,0.0,0.0,0.0,0.0,0.0,0.0,0.0,0.0,0.0,0.0,0.0,0.0,0.0,0.0,0.0,0.0,0.0,0.0,0.0,0.0,0.0,0.0,0.0,0.0,0.0,0.0,0.0,0.0,0.0,0.0,0.0,0.0,0.0,0.0,0.0,0.0,0.0,0.0,0.0,0.0,0.0,0.0,0.0,0.0,0.0,0.0,0.0,0.0,0.0,0.0,0.0,0.0,0.0,0.0,0.0,0.0,0.0,0.0,0.0,0.0,0.0,0.0,0.0,0.0,0.0,0.0,0.0,0.0,0.0,0.0,0.0,0.0,-2.3795,-2.3795,-2.3795,0.0,0.0,0.0,0.0,0.0,0.0,0.0,0.0,0.0,0.0,0.0,0.0,0.0,0.0,0.0,0.0,0.0,0.0,0.0,0.0,0.0,0.0,0.0,0.0,0.0,0.0,0.0,0.0,0.0,0.0,0.0,0.0,0.0,0.0,0.0,0.0,0.0,0.0,0.0,0.0,0.0,0.0,0.0,0.0,0.0,0.0,0.0,0.0,0.0,0.0,0.0,0.0,0.0,0.0,0.0,0.0,0.0,0.0,0.0,0.0,0.0,0.0,0.0,0.0,0.0,0.0,0.0,0.0,0.0,0.0,0.0,0.0,0.0,0.0,0.0,0.0,0.0,0.0,0.0,0.0,0.0,0.0,0.0,0.0,0.0,0.0,0.0,0.0,0.0,0.0,0.0,0.0,0.0,0.0,0.0,0.0,0.0,0.0,0.0,0.0,0.0,0.0,0.0,0.0,0.0,0.0,0.0,0.0,0.0,0.0,-2.3795,-2.3795,-2.3795,0.0,-2.3795,0.0,0.0,0.0,0.0,0.0,0.0,0.0,0.0,0.0,0.0,0.0,0.0,0.0,0.0,0.0,0.0,0.0,0.0,0.0,0.0,0.0,0.0,0.0,0.0,0.0,0.0,0.0,0.0,0.0,0.0,0.0,0.0,0.0,0.0,0.0,0.0,0.0,0.0,0.0,0.0,0.0,0.0,0.0,0.0,0.0,0.0,0.0,0.0,0.0,0.0,0.0,0.0,0.0,0.0,0.0,0.0,0.0,0.0,0.0,0.0,0.0,0.0,0.0,0.0,0.0,0.0,0.0,0.0,0.0,0.0,0.0,0.0,0.0,0.0,0.0,0.0,0.0,0.0,0.0,0.0,0.0,0.0,0.0,0.0,0.0,0.0,0.0,0.0,0.0,0.0,0.0,0.0,0.0,0.0,0.0,0.0,0.0,0.0,0.0,0.0,0.0,0.0,0.0,0.0,0.0,0.0,0.0,0.0,0.0,0.0,-2.3917,-2.3917,-2.3917,-2.3896,0.0,0.0,0.0,0.0,0.0,0.0,0.0,0.0,0.0,0.0,0.0,0.0,0.0,0.0,0.0,0.0,0.0,0.0,0.0,0.0,0.0,0.0,0.0,0.0,0.0,0.0,0.0,0.0,0.0,0.0,0.0,0.0,0.0,0.0,0.0,0.0,0.0,0.0,0.0,0.0,0.0,0.0,0.0,0.0,0.0,0.0,0.0,0.0,0.0,0.0,0.0,0.0,0.0,0.0,0.0,0.0,0.0,0.0,0.0,0.0,0.0,0.0,0.0,0.0,0.0,0.0,0.0,0.0,0.0,0.0,0.0,0.0,0.0,0.0,0.0,0.0,0.0,0.0,0.0,0.0,0.0,0.0,0.0,0.0,0.0,0.0,0.0,0.0,0.0,0.0,0.0,0.0,0.0,0.0,0.0,0.0,0.0,0.0,0.0,0.0,0.0,0.0,0.0,0.0,0.0,0.0,0.0,0.0,0.0,0.0,-2.4034,-2.3978,-2.3978,-2.3978,-2.3976,-2.3937,0.0,0.0,0.0,0.0,0.0,0.0,0.0,0.0,0.0,0.0,0.0,0.0,0.0,0.0,0.0,0.0,0.0,0.0,0.0,0.0,0.0,0.0,0.0,0.0,0.0,0.0,0.0,0.0,0.0,0.0,0.0,0.0,0.0,0.0,0.0,0.0,0.0,0.0,0.0,0.0,0.0,0.0,0.0,0.0,0.0,0.0,0.0,0.0,0.0,0.0,0.0,0.0,0.0,0.0,0.0,0.0,0.0,0.0,0.0,0.0,0.0,0.0,0.0,0.0,0.0,0.0,0.0,0.0,0.0,0.0,0.0,0.0,0.0,0.0,0.0,0.0,0.0,0.0,0.0,0.0,0.0,0.0,0.0,0.0,0.0,0.0,0.0,0.0,0.0,0.0,0.0,0.0,0.0,0.0,0.0,0.0,0.0,0.0,0.0,0.0,0.0,0.0,0.0,0.0,0.0,0.0,0.0,0.0,-2.4094,-2.4016,-2.3996,-2.4034,-2.3996,-2.3996,0.0,0.0,0.0,0.0,0.0,0.0,0.0,0.0,0.0,0.0,0.0,0.0,0.0,0.0,0.0,0.0,0.0,0.0,0.0,0.0,0.0,0.0,0.0,0.0,0.0,0.0,0.0,0.0,0.0,0.0,0.0,0.0,0.0,0.0,0.0,0.0,0.0,0.0,0.0,0.0,0.0,0.0,0.0,0.0,0.0,0.0,0.0,0.0,0.0,0.0,0.0,0.0,0.0,0.0,0.0,0.0,0.0,0.0,0.0,0.0,0.0,0.0,0.0,0.0,0.0,0.0,0.0,0.0,0.0,0.0,0.0,0.0,0.0,0.0,0.0,0.0,0.0,0.0,0.0,0.0,0.0,0.0,0.0,0.0,0.0,0.0,0.0,0.0,0.0,0.0,0.0,0.0,0.0,0.0,0.0,0.0,0.0,0.0,0.0,0.0,0.0,0.0,0.0,0.0,0.0,0.0,0.0,0.0,0.0,-2.4189,-2.4627,-2.4902,-2.4921,-2.5395,-2.563,0.0,0.0,0.0,0.0,0.0,0.0,0.0,0.0,0.0,0.0,0.0,0.0,0.0,0.0,0.0,0.0,0.0,0.0,0.0,0.0,0.0,0.0,0.0,0.0,0.0,0.0,0.0,0.0,0.0,0.0,0.0,0.0,0.0,0.0,0.0,0.0,0.0,0.0,0.0,0.0,0.0,0.0,0.0,0.0,0.0,0.0,0.0,0.0,0.0,0.0,0.0,0.0,0.0,0.0,0.0,0.0,0.0,0.0,0.0,0.0,0.0,0.0,0.0,0.0,0.0,0.0,0.0,0.0,0.0,0.0,0.0,0.0,0.0,0.0,0.0,0.0,0.0,0.0,0.0,0.0,0.0,0.0,0.0,0.0,0.0,0.0,0.0,0.0,0.0,0.0,0.0,0.0,0.0,0.0,0.0,0.0,0.0,0.0,0.0,0.0,0.0,0.0,0.0,0.0,0.0,0.0,0.0,0.0,0.0,-2.4979,0.0,-2.5768,-2.5805,-2.6319,-2.6591,0.0,0.0,0.0,0.0,0.0,0.0,0.0,0.0,0.0,0.0,0.0,0.0,0.0,0.0,0.0,0.0,0.0,0.0,0.0,0.0,0.0,0.0,0.0,0.0,0.0,0.0,0.0,0.0,0.0,0.0,0.0,0.0,0.0,0.0,0.0,0.0,0.0,0.0,0.0,0.0,0.0,0.0,0.0,0.0,0.0,0.0,0.0,0.0,0.0,0.0,0.0,0.0,0.0,0.0,0.0,0.0,0.0,0.0,0.0,0.0,0.0,0.0,0.0,0.0,0.0,0.0,0.0,0.0,0.0,0.0,0.0,0.0,0.0,0.0,0.0,0.0,0.0,0.0,0.0,0.0,0.0,0.0,0.0,0.0,0.0,0.0,0.0,0.0,0.0,0.0,0.0,0.0,0.0,0.0,0.0,0.0,0.0,0.0,0.0,0.0,0.0,0.0,0.0,0.0,0.0,0.0,0.0,0.0,-2.58,-2.6539,-2.6594,-2.6594,-2.6612,-2.6667,-2.6667,0.0,0.0,0.0,0.0,0.0,0.0,0.0,0.0,0.0,0.0,0.0,0.0,0.0,0.0,0.0,0.0,0.0,0.0,0.0,0.0,0.0,0.0,0.0,0.0,0.0,0.0,0.0,0.0,0.0,0.0,0.0,0.0,0.0,0.0,0.0,0.0,0.0,0.0,0.0,0.0,0.0,0.0,0.0,0.0,0.0,0.0,0.0,0.0,0.0,0.0,0.0,0.0,0.0,0.0,0.0,0.0,0.0,0.0,0.0,0.0,0.0,0.0,0.0,0.0,0.0,0.0,0.0,0.0,0.0,0.0,0.0,0.0,0.0,0.0,0.0,0.0,0.0,0.0,0.0,0.0,0.0,0.0,0.0,0.0,0.0,0.0,0.0,0.0,0.0,0.0,0.0,0.0,0.0,0.0,0.0,0.0,0.0,0.0,0.0,0.0,0.0,0.0,0.0,0.0,0.0,0.0,0.0,0.0,0.0,-2.6631,-2.7145,-2.742,-2.7457,-2.7948,-2.8264,0.0,0.0,0.0,0.0,0.0,0.0,0.0,0.0,0.0,0.0,0.0,0.0,0.0,0.0,0.0,0.0,0.0,0.0,0.0,0.0,0.0,0.0,0.0,0.0,0.0,0.0,0.0,0.0,0.0,0.0,0.0,0.0,0.0,0.0,0.0,0.0,0.0,0.0,0.0,0.0,0.0,0.0,0.0,0.0,0.0,0.0,0.0,0.0,0.0,0.0,0.0,0.0,0.0,0.0,0.0,0.0,0.0,0.0,0.0,0.0,0.0,0.0,0.0,0.0,0.0,0.0,0.0,0.0,0.0,0.0,0.0,0.0,0.0,0.0,0.0,0.0,0.0,0.0,0.0,0.0,0.0,0.0,0.0,0.0,0.0,0.0,0.0,0.0,0.0,0.0,0.0,0.0,0.0,0.0,0.0,0.0,0.0,0.0,0.0,0.0,0.0,0.0,0.0,0.0,0.0,0.0,0.0,0.0,0.0,-2.7548,-2.7989,-2.8246,-2.8246,-2.8741,-2.8975,-2.8975,0.0,0.0,0.0,0.0,0.0,0.0,0.0,0.0,0.0,0.0,0.0,0.0,0.0,0.0,0.0,0.0,0.0,0.0,0.0,0.0,0.0,0.0,0.0,0.0,0.0,0.0,0.0,0.0,0.0,0.0,0.0,0.0,0.0,0.0,0.0,0.0,0.0,0.0,0.0,0.0,0.0,0.0,0.0,0.0,0.0,0.0,0.0,0.0,0.0,0.0,0.0,0.0,0.0,0.0,0.0,0.0,0.0,0.0,0.0,0.0,0.0,0.0,0.0,0.0,0.0,0.0,0.0,0.0,0.0,0.0,0.0,0.0,0.0,0.0,0.0,0.0,0.0,0.0,0.0,0.0,0.0,0.0,0.0,0.0,0.0,0.0,0.0,0.0,0.0,0.0,0.0,0.0,0.0,0.0,0.0,0.0,0.0,0.0,0.0,0.0,0.0,0.0,0.0,0.0,0.0,0.0,0.0,0.0,-2.8975,-2.8975,-2.8975,-2.8975,-2.8975,-2.8975,0.0,0.0,0.0,0.0,0.0,0.0,0.0,0.0,0.0,0.0,0.0,0.0,0.0,0.0,0.0,0.0,0.0,0.0,0.0,0.0,0.0,0.0,0.0,0.0,0.0,0.0,0.0,0.0,0.0,0.0,0.0,0.0,0.0,0.0,0.0,0.0,0.0,0.0,0.0,0.0,0.0,0.0,0.0,0.0,0.0,0.0,0.0,0.0,0.0,0.0,0.0,0.0,0.0,0.0,0.0,0.0,0.0,0.0,0.0,0.0,0.0,0.0,0.0,0.0,0.0,0.0,0.0,0.0,0.0,0.0,0.0,0.0,0.0,0.0,0.0,0.0,0.0,0.0,0.0,0.0,0.0,0.0,0.0,0.0,0.0,0.0,0.0,0.0,0.0,0.0,0.0,0.0,0.0,0.0,0.0,0.0,0.0,0.0,0.0,0.0,0.0,0.0,0.0,0.0,0.0,0.0,0.0,0.0,0.0,-2.8975,-2.8975,-2.8975,-2.8975,-2.8975,-2.8975,0.0,0.0,0.0,0.0,0.0,0.0,0.0,0.0,0.0,0.0,0.0,0.0,0.0,0.0,0.0,0.0,0.0,0.0,0.0,0.0,0.0,0.0,0.0,0.0,0.0,0.0,0.0,0.0,0.0,0.0,0.0,0.0,0.0,0.0,0.0,0.0,0.0,0.0,0.0,0.0,0.0,0.0,0.0,0.0,0.0,0.0,0.0,0.0,0.0,0.0,0.0,0.0,0.0,0.0,0.0,0.0,0.0,0.0,0.0,0.0,0.0,0.0,0.0,0.0,0.0,0.0,0.0,0.0,0.0,0.0,0.0,0.0,0.0,0.0,0.0,0.0,0.0,0.0,0.0,0.0,0.0,0.0,0.0,0.0,0.0,0.0,0.0,0.0,0.0,0.0,0.0,0.0,0.0,0.0,0.0,0.0,0.0,0.0,0.0,0.0,0.0,0.0,0.0,0.0,0.0,0.0,0.0,0.0,-2.8975,-2.8975,-2.8975,-2.8975,-2.8975,-2.8975,-2.8975,0.0,0.0,0.0,0.0,0.0,0.0,0.0,0.0,0.0,0.0,0.0,0.0,0.0,0.0,0.0,0.0,0.0,0.0,0.0,0.0,0.0,0.0,0.0,0.0,0.0,0.0,0.0,0.0,0.0,0.0,0.0,0.0,0.0,0.0,0.0,0.0,0.0,0.0,0.0,0.0,0.0,0.0,0.0,0.0,0.0,0.0,0.0,0.0,0.0,0.0,0.0,0.0,0.0,0.0,0.0,0.0,0.0,0.0,0.0,0.0,0.0,0.0,0.0,0.0,0.0,0.0,0.0,0.0,0.0,0.0,0.0,0.0,0.0,0.0,0.0,0.0,0.0,0.0,0.0,0.0,0.0,0.0,0.0,0.0,0.0,0.0,0.0,0.0,0.0,0.0,0.0,0.0,0.0,0.0,0.0,0.0,0.0,0.0,0.0,0.0,0.0,0.0,0.0,0.0,0.0,0.0,0.0,0.0,-2.8975,-2.8975,-2.8975,-2.8975,-2.8975,-2.8975,-2.8975,0.0,0.0,0.0,0.0,0.0,0.0,0.0,0.0,0.0,0.0,0.0,0.0,0.0,0.0,0.0,0.0,0.0,0.0,0.0,0.0,0.0,0.0,0.0,0.0,0.0,0.0,0.0,0.0,0.0,0.0,0.0,0.0,0.0,0.0,0.0,0.0,0.0,0.0,0.0,0.0,0.0,0.0,0.0,0.0,0.0,0.0,0.0,0.0,0.0,0.0,0.0,0.0,0.0,0.0,0.0,0.0,0.0,0.0,0.0,0.0,0.0,0.0,0.0,0.0,0.0,0.0,0.0,0.0,0.0,0.0,0.0,0.0,0.0,0.0,0.0,0.0,0.0,0.0,0.0,0.0,0.0,0.0,0.0,0.0,0.0,0.0,0.0,0.0,0.0,0.0,0.0,0.0,0.0,0.0,0.0,0.0,0.0,0.0,0.0,0.0,0.0,0.0,0.0,0.0,0.0,0.0,0.0,0.0,-2.8975,-2.8975,-2.8975,-2.8975,-2.8975,-2.8975,-2.8975,0.0,0.0,0.0,0.0,0.0,0.0,0.0,0.0,0.0,0.0,0.0,0.0,0.0,0.0,0.0,0.0,0.0,0.0,0.0,0.0,0.0,0.0,0.0,0.0,0.0,0.0,0.0,0.0,0.0,0.0,0.0,0.0,0.0,0.0,0.0,0.0,0.0,0.0,0.0,0.0,0.0,0.0,0.0,0.0,0.0,0.0,0.0,0.0,-2.8778,0.0,0.0,0.0,0.0,0.0,0.0,0.0,0.0,0.0,0.0,0.0,0.0,0.0,0.0,0.0,0.0,0.0,0.0,0.0,0.0,0.0,0.0,0.0,0.0,0.0,0.0,0.0,0.0,0.0,0.0,0.0,0.0,0.0,0.0,0.0,0.0,0.0,0.0,0.0,0.0,0.0,0.0,0.0,0.0,0.0,0.0,0.0,0.0,0.0,0.0,0.0,0.0,0.0,0.0,0.0,0.0,0.0,0.0,0.0,-2.8975,-2.8975,-2.8975,-2.8975,-2.8975,-2.8975,-2.8975,0.0,0.0,0.0,0.0,0.0,0.0,0.0,0.0,0.0,0.0,0.0,0.0,0.0,0.0,0.0,0.0,0.0,0.0,0.0,0.0,0.0,0.0,0.0,0.0,0.0,0.0,0.0,0.0,0.0,0.0,0.0,0.0,0.0,0.0,0.0,0.0,0.0,0.0,0.0,0.0,0.0,0.0,0.0,0.0,0.0,0.0,0.0,0.0,0.0,0.0,0.0,0.0,0.0,0.0,0.0,0.0,0.0,0.0,0.0,0.0,0.0,0.0,0.0,0.0,0.0,0.0,0.0,0.0,0.0,0.0,0.0,0.0,0.0,0.0,0.0,0.0,0.0,0.0,0.0,0.0,0.0,0.0,0.0,0.0,0.0,0.0,0.0,0.0,0.0,0.0,0.0,0.0,0.0,0.0,0.0,0.0,0.0,0.0,0.0,0.0,0.0,0.0,0.0,0.0,0.0,0.0,0.0,-2.8975,-2.8975,-2.8975,-2.8975,-2.8975,-2.8975,-2.8975,-2.8975,-2.8975,0.0,0.0,0.0,0.0,0.0,0.0,0.0,0.0,0.0,0.0,0.0,0.0,0.0,0.0,0.0,0.0,0.0,0.0,0.0,0.0,0.0,0.0,0.0,0.0,0.0,0.0,0.0,0.0,0.0,0.0,0.0,0.0,0.0,0.0,0.0,0.0,0.0,0.0,-2.9492,-2.9328,0.0,0.0,0.0,0.0,0.0,0.0,0.0,0.0,-2.8975,0.0,0.0,0.0,0.0,0.0,0.0,0.0,0.0,0.0,0.0,0.0,0.0,0.0,0.0,0.0,0.0,0.0,0.0,0.0,0.0,0.0,0.0,0.0,0.0,0.0,0.0,0.0,0.0,0.0,0.0,0.0,0.0,0.0,0.0,0.0,0.0,0.0,0.0,0.0,0.0,0.0,0.0,0.0,0.0,0.0,0.0,0.0,0.0,0.0,0.0,0.0,0.0,0.0,0.0,0.0,0.0,-2.8957,-2.8975,-2.8975,-2.8975,-2.8975,-2.8975,-2.8975,-2.8975,-2.8975,-2.8975,0.0,0.0,0.0,0.0,0.0,0.0,0.0,0.0,0.0,0.0,0.0,0.0,0.0,0.0,0.0,0.0,0.0,0.0,0.0,0.0,0.0,0.0,0.0,0.0,0.0,0.0,0.0,0.0,0.0,0.0,0.0,0.0,0.0,0.0,0.0,0.0,0.0,0.0,0.0,-2.9262,-2.9175,0.0,0.0,0.0,0.0,0.0,0.0,0.0,0.0,-2.8957,0.0,0.0,0.0,0.0,0.0,0.0,0.0,0.0,0.0,0.0,0.0,0.0,0.0,0.0,0.0,0.0,0.0,0.0,0.0,0.0,0.0,0.0,0.0,0.0,0.0,0.0,0.0,0.0,0.0,0.0,0.0,0.0,0.0,0.0,0.0,0.0,0.0,0.0,0.0,0.0,0.0,0.0,0.0,0.0,0.0,0.0,0.0,0.0,0.0,0.0,0.0,0.0,0.0,0.0,0.0,-2.892,-2.8975,-2.8975,-2.8975,-2.8975,-2.8975,-2.8975,-2.8975,-2.8975,0.0,0.0,0.0,0.0,0.0,0.0,0.0,0.0,0.0,0.0,0.0,0.0,0.0,0.0,0.0,0.0,0.0,0.0,0.0,0.0,0.0,0.0,0.0,0.0,0.0,0.0,0.0,0.0,0.0,0.0,0.0,0.0,0.0,0.0,0.0,0.0,0.0,0.0,0.0,0.0,-2.9265,-2.9156,-2.9062,0.0,0.0,0.0,0.0,0.0,0.0,-2.8975,-2.8975,0.0,0.0,0.0,0.0,0.0,0.0,0.0,0.0,0.0,0.0,0.0,0.0,0.0,0.0,0.0,0.0,0.0,0.0,0.0,0.0,0.0,0.0,0.0,0.0,0.0,0.0,0.0,0.0,0.0,0.0,0.0,0.0,0.0,0.0,0.0,0.0,0.0,0.0,0.0,0.0,0.0,0.0,0.0,0.0,0.0,0.0,0.0,0.0,0.0,0.0,0.0,0.0,0.0,0.0,0.0,-2.898,-2.8975,-2.8975,-2.8975,-2.8975,-2.8975,-2.8975,-2.8975,-2.8975,0.0,0.0,0.0,0.0,0.0,0.0,0.0,0.0,0.0,0.0,0.0,0.0,0.0,0.0,0.0,0.0,0.0,0.0,0.0,0.0,0.0,0.0,0.0,0.0,0.0,0.0,0.0,0.0,0.0,0.0,0.0,0.0,0.0,0.0,0.0,0.0,0.0,0.0,0.0,0.0,0.0,-2.92,-2.9112,-2.9062,0.0,0.0,0.0,0.0,-2.8975,-2.8975,0.0,0.0,0.0,0.0,0.0,0.0,0.0,0.0,0.0,0.0,0.0,0.0,0.0,0.0,0.0,0.0,0.0,0.0,0.0,0.0,0.0,0.0,0.0,0.0,0.0,0.0,0.0,0.0,0.0,0.0,0.0,0.0,0.0,0.0,0.0,0.0,0.0,0.0,0.0,0.0,0.0,0.0,0.0,0.0,0.0,0.0,0.0,0.0,0.0,0.0,0.0,0.0,0.0,0.0,0.0,0.0,-2.8957,-2.8975,-2.8975,-2.8975,-2.8975,-2.8975,-2.8975,-2.8975,-2.8975,0.0,0.0,0.0,0.0,0.0,0.0,0.0,0.0,0.0,0.0,0.0,0.0,0.0,0.0,0.0,0.0,0.0,0.0,0.0,0.0,0.0,0.0,0.0,0.0,0.0,0.0,0.0,0.0,0.0,0.0,0.0,0.0,0.0,0.0,0.0,0.0,0.0,0.0,0.0,0.0,0.0,-2.9249,-2.913,-2.9089,-2.9067,0.0,0.0,-2.8975,-2.8975,-2.8975,0.0,0.0,0.0,0.0,0.0,0.0,0.0,0.0,0.0,0.0,0.0,0.0,0.0,0.0,0.0,0.0,0.0,0.0,0.0,0.0,0.0,0.0,0.0,0.0,0.0,0.0,0.0,0.0,0.0,0.0,0.0,0.0,0.0,0.0,0.0,0.0,0.0,0.0,0.0,0.0,0.0,0.0,0.0,0.0,0.0,0.0,0.0,0.0,0.0,0.0,0.0,0.0,0.0,0.0,0.0,-2.865,-2.8975,-2.8975,-2.8975,-2.8975,-2.8975,-2.8975,-2.8975,-2.8975,-2.8975,0.0,0.0,0.0,0.0,0.0,0.0,0.0,0.0,0.0,0.0,0.0,0.0,0.0,0.0,0.0,0.0,0.0,0.0,0.0,0.0,0.0,0.0,0.0,0.0,0.0,0.0,0.0,0.0,0.0,0.0,0.0,0.0,0.0,0.0,0.0,0.0,0.0,0.0,0.0,0.0,0.0,0.0,-2.9178,-2.9112,0.0,0.0,0.0,-2.8975,-2.8975,0.0,0.0,0.0,0.0,0.0,0.0,0.0,0.0,0.0,0.0,0.0,0.0,0.0,0.0,0.0,0.0,0.0,0.0,0.0,0.0,0.0,0.0,0.0,0.0,0.0,0.0,0.0,0.0,0.0,0.0,0.0,0.0,0.0,0.0,0.0,0.0,0.0,0.0,0.0,0.0,0.0,0.0,0.0,0.0,0.0,0.0,0.0,0.0,0.0,0.0,0.0,0.0,0.0,0.0,0.0,0.0,0.0,-2.8975,-2.8975,-2.8975,-2.8975,-2.8975,-2.8975,-2.8975,-2.8975,0.0,0.0,0.0,0.0,0.0,0.0,0.0,0.0,0.0,0.0,0.0,0.0,0.0,0.0,0.0,0.0,0.0,0.0,0.0,0.0,0.0,0.0,0.0,0.0,0.0,0.0,0.0,-2.7701,0.0,0.0,0.0,0.0,0.0,0.0,0.0,0.0,0.0,0.0,0.0,0.0,0.0,0.0,-2.9312,-2.9225,-2.9156,-2.9089,0.0,0.0,-2.8975,-2.8975,-2.8975,-2.8975,0.0,0.0,0.0,0.0,0.0,0.0,0.0,0.0,0.0,0.0,0.0,0.0,0.0,0.0,0.0,0.0,0.0,0.0,0.0,0.0,0.0,0.0,0.0,0.0,0.0,0.0,0.0,0.0,0.0,0.0,0.0,0.0,0.0,0.0,0.0,0.0,0.0,0.0,0.0,0.0,0.0,0.0,0.0,0.0,0.0,0.0,0.0,0.0,0.0,0.0,0.0,0.0,0.0,0.0,0.0,-2.8975,-2.8975,-2.8975,-2.8975,-2.8975,-2.8975,-2.8975,-2.8975,-2.8975,0.0,0.0,0.0,0.0,0.0,0.0,0.0,0.0,0.0,0.0,0.0,0.0,0.0,0.0,0.0,0.0,0.0,0.0,0.0,0.0,0.0,0.0,0.0,0.0,0.0,0.0,0.0,0.0,0.0,0.0,0.0,0.0,0.0,0.0,0.0,0.0,0.0,0.0,0.0,0.0,0.0,-2.9453,-2.9332,-2.9246,-2.9156,0.0,0.0,-2.8975,-2.8975,-2.8975,-2.8975,-2.8975,0.0,0.0,0.0,0.0,0.0,0.0,0.0,0.0,0.0,0.0,0.0,0.0,0.0,0.0,0.0,0.0,0.0,0.0,0.0,0.0,0.0,0.0,0.0,0.0,0.0,0.0,0.0,0.0,0.0,0.0,0.0,0.0,0.0,0.0,0.0,0.0,0.0,0.0,0.0,0.0,0.0,0.0,0.0,0.0,0.0,0.0,0.0,0.0,0.0,0.0,0.0,0.0,0.0,-2.8975,-2.8975,-2.8975,-2.8975,-2.8975,-2.8975,-2.8975,-2.8975,-2.8975,-2.8975,0.0,0.0,0.0,0.0,0.0,0.0,0.0,0.0,0.0,0.0,0.0,0.0,0.0,0.0,0.0,0.0,0.0,0.0,0.0,0.0,0.0,0.0,0.0,0.0,0.0,0.0,0.0,0.0,-2.9192,-3.0204,-3.0204,0.0,0.0,0.0,0.0,0.0,0.0,0.0,0.0,0.0,0.0,-2.9511,-2.9314,-2.9246,0.0,0.0,-2.9062,-2.8975,-2.8975,-2.8975,-2.8975,-2.8975,-2.8975,0.0,0.0,0.0,0.0,0.0,0.0,0.0,0.0,0.0,0.0,0.0,0.0,0.0,0.0,0.0,0.0,0.0,0.0,0.0,0.0,0.0,0.0,0.0,0.0,0.0,0.0,0.0,0.0,0.0,0.0,0.0,0.0,0.0,0.0,0.0,0.0,0.0,0.0,0.0,0.0,0.0,0.0,0.0,0.0,0.0,0.0,0.0,0.0,0.0,0.0,0.0,0.0,-2.8975,-2.8975,-2.8975,-2.8975,-2.8975,-2.8975,-2.8975,-2.8975,-2.8975,-2.8975,0.0,0.0,0.0,0.0,0.0,0.0,0.0,0.0,0.0,0.0,0.0,0.0,0.0,0.0,0.0,0.0,0.0,0.0,0.0,0.0,0.0,0.0,0.0,0.0,0.0,0.0,0.0,0.0,-2.9211,-3.0204,-3.0204,0.0,0.0,0.0,0.0,0.0,0.0,0.0,0.0,0.0,0.0,-2.9588,-2.9394,-2.9289,-2.9222,-2.9134,-2.9108,-2.9062,-2.904,-2.9062,-2.9062,-2.9062,0.0,0.0,0.0,0.0,0.0,0.0,0.0,0.0,0.0,0.0,0.0,0.0,0.0,0.0,0.0,0.0,0.0,0.0,0.0,0.0,0.0,0.0,0.0,0.0,0.0,0.0,0.0,0.0,0.0,0.0,-2.3119,0.0,0.0,0.0,0.0,0.0,0.0,0.0,0.0,0.0,0.0,0.0,0.0,0.0,0.0,0.0,0.0,0.0,0.0,0.0,0.0,0.0,0.0,-2.8975,-2.8975,-2.8975,-2.8975,-2.8975,-2.8975,-2.8975,-2.8975,-2.8975,-2.8975,-2.9017,0.0,0.0,0.0,0.0,0.0,0.0,0.0,0.0,0.0,0.0,0.0,0.0,0.0,0.0,0.0,0.0,0.0,0.0,0.0,0.0,0.0,0.0,0.0,0.0,0.0,0.0,-2.7759,-2.9211,-3.0204,0.0,0.0,0.0,0.0,0.0,0.0,0.0,0.0,0.0,0.0,-2.9719,-2.9645,-2.9512,-2.9373,-2.927,-2.92,-2.9218,-2.9156,-2.9089,-2.9134,-2.9197,0.0,0.0,0.0,0.0,0.0,0.0,0.0,0.0,0.0,0.0,0.0,0.0,0.0,0.0,0.0,0.0,0.0,0.0,0.0,0.0,0.0,0.0,0.0,0.0,0.0,0.0,0.0,-2.2651,-2.2703,0.0,0.0,0.0,0.0,0.0,0.0,0.0,0.0,0.0,0.0,0.0,-2.3876,-2.3955,0.0,0.0,0.0,0.0,0.0,0.0,0.0,0.0,0.0,0.0,0.0,0.0,-2.8975,-2.8975,-2.8975,-2.8975,-2.8975,-2.8975,-2.8975,-2.8975,-2.8975,-2.904,-2.913,0.0,0.0,0.0,0.0,0.0,0.0,0.0,0.0,0.0,0.0,0.0,0.0,0.0,0.0,0.0,0.0,0.0,0.0,0.0,0.0,0.0,0.0,0.0,0.0,0.0,-2.816,0.0,0.0,0.0,0.0,0.0,0.0,0.0,0.0,0.0,0.0,0.0,-2.9991,-2.9895,-2.9773,-2.9682,-2.9645,-2.9453,-2.9312,0.0,0.0,0.0,0.0,0.0,0.0,0.0,0.0,0.0,0.0,0.0,0.0,0.0,0.0,-2.9531,-2.9626,-2.979,-2.9912,-3.0038,0.0,0.0,0.0,0.0,0.0,0.0,0.0,0.0,0.0,0.0,0.0,0.0,0.0,0.0,-2.2535,0.0,-2.2685,0.0,0.0,0.0,0.0,0.0,0.0,0.0,0.0,-2.3696,-2.3783,-2.3792,-2.3837,-2.4101,0.0,-2.5045,-2.5617,0.0,0.0,0.0,0.0,0.0,0.0,0.0,0.0,-2.8975,-2.8975,-2.8975,-2.8975,-2.8975,-2.8975,-2.8975,-2.8975,-2.8975,-2.9062,-2.9218,-2.924,-2.9066,0.0,0.0,0.0,0.0,0.0,0.0,0.0,0.0,0.0,0.0,0.0,0.0,0.0,0.0,0.0,0.0,0.0,0.0,0.0,0.0,0.0,0.0,0.0,-2.8676,0.0,0.0,0.0,0.0,0.0,0.0,0.0,0.0,0.0,-3.0098,-3.0098,-3.0053,-2.9926,-2.9823,-2.9735,-2.9701,0.0,0.0,0.0,0.0,0.0,0.0,0.0,-2.9283,-2.9283,-2.9283,-2.9265,-2.9265,-2.9307,-2.937,-2.9491,0.0,0.0,-2.9699,-2.9806,-2.9943,-3.0072,-3.0079,-3.0123,-3.0185,-3.0204,-3.0204,0.0,0.0,0.0,0.0,0.0,0.0,0.0,0.0,-2.2248,-2.2405,0.0,-2.2596,0.0,0.0,0.0,0.0,0.0,-2.3336,0.0,0.0,-2.3562,-2.367,-2.3858,-2.3865,-2.433,-2.5218,-2.5353,-2.6222,-2.7695,-2.7805,0.0,0.0,0.0,0.0,0.0,0.0,-2.8975,-2.8975,-2.8975,-2.8975,-2.8975,-2.8975,-2.8975,-2.8975,-2.8975,-2.9062,-2.92,-2.928,-2.9407,-2.9569,-2.8049,0.0,0.0,0.0,0.0,0.0,0.0,0.0,0.0,0.0,0.0,0.0,0.0,0.0,0.0,0.0,0.0,0.0,0.0,0.0,0.0,-2.7931,0.0,0.0,0.0,0.0,0.0,0.0,0.0,0.0,0.0,0.0,-3.0109,-3.009,-3.0045,-2.9921,0.0,0.0,0.0,0.0,-2.9608,-2.9355,-2.9373,-2.9372,-2.9304,-2.9365,-2.9388,-2.9388,0.0,0.0,-2.9392,-2.9412,-2.9491,-2.9664,-2.972,-2.9701,-2.9717,-2.9822,-2.994,-3.0072,-3.0079,-3.0123,-3.019,-3.0204,-3.0204,-2.0035,0.0,0.0,0.0,0.0,-2.1356,-2.1603,-2.1811,-2.2061,-2.2265,-2.2394,-2.2542,0.0,0.0,0.0,0.0,0.0,0.0,-2.3289,-2.336,-2.3494,-2.3889,-2.4523,-2.4613,-2.5139,-2.6056,-2.6644,-2.724,-2.7805,-2.8374,-2.8778,-2.8975,0.0,0.0,0.0,0.0,-2.8975,-2.8975,-2.8975,-2.8975,-2.8975,-2.8975,-2.8975,-2.8975,-2.8975,-2.9062,-2.9218,-2.928,-2.9386,-2.9547,-2.8088,0.0,0.0,0.0,0.0,0.0,0.0,0.0,0.0,0.0,0.0,0.0,0.0,0.0,0.0,0.0,0.0,0.0,0.0,0.0,-2.7186,-2.8275,-2.9249,0.0,0.0,0.0,0.0,0.0,0.0,0.0,0.0,0.0,-3.019,-3.0123,-3.0045,0.0,0.0,-2.9872,-2.9861,-2.9775,-2.9683,-2.9607,-2.9531,0.0,-2.939,-2.939,-2.9392,-2.9392,-2.9431,-2.9472,-2.9531,-2.9569,-2.9645,-2.97,-2.979,-2.9842,-2.9839,-2.9905,-3.0007,-3.0068,-3.0128,-3.0171,-3.0185,-3.0204,-3.0204,-2.0387,-2.0512,-2.0365,-2.046,-2.0778,-2.1103,-2.1404,-2.1617,-2.1869,-2.2089,-2.2231,-2.2415,-2.2579,-2.2659,-2.2799,0.0,0.0,0.0,-2.3626,-2.3717,-2.414,-2.4652,-2.5225,-2.5337,-2.5909,-2.6877,-2.7369,-2.7839,-2.8282,-2.8755,-2.8975,-2.8975,0.0,0.0,-2.8975,-2.8975,-2.8975,-2.8975,-2.8975,-2.8975,-2.8975,-2.8975,-2.8975,-2.8975,-2.9017,-2.9108,-2.92,-2.9286,-2.9427,-2.9604,-2.8106,-2.7315,0.0,0.0,0.0,0.0,0.0,0.0,0.0,0.0,0.0,0.0,0.0,-2.521,-2.521,0.0,0.0,0.0,-2.5803,-2.6746,-2.8064,-2.8924,0.0,0.0,0.0,0.0,0.0,0.0,0.0,-3.0204,-3.0204,-3.0204,-3.0204,-3.0152,-3.0128,-3.0049,-3.0003,-2.9953,-2.991,0.0,-2.9755,-2.9701,-2.9626,-2.955,-2.9491,-2.9453,-2.9453,-2.9472,-2.9511,-2.9569,-2.9626,-2.9664,-2.9719,-2.9771,-2.9841,-2.991,-2.994,-2.9988,-3.0053,-3.0083,-3.0161,-3.0204,-3.0204,-3.0204,-3.0204,-2.099,-2.1186,-2.0452,-2.0334,-2.0683,-2.11,-2.136,-2.1549,-2.1842,-2.2036,-2.2252,-2.2474,-2.263,-2.2794,-2.2911,0.0,-2.3119,-2.392,-2.4331,-2.4409,-2.5217,-2.5727,-2.5982,-2.6056,-2.664,-2.7697,-2.7697,-2.8169,-2.8957,-2.8975,-2.8975,-2.8975,-2.8975,-2.8975,-2.8975,-2.8975,-2.8975,-2.8975,-2.8975,-2.8975,-2.8975,-2.8975,-2.8975,-2.8975,-2.9062,-2.9152,-2.92,-2.933,-2.949,-2.9626,-2.8177,-2.738,-2.7532,0.0,0.0,0.0,0.0,0.0,0.0,0.0,0.0,0.0,0.0,0.0,0.0,0.0,0.0,0.0,-2.6823,0.0,-2.8834,-2.9688,0.0,0.0,0.0,-3.0204,-3.0204,-3.0204,-3.0204,-3.0204,0.0,0.0,-3.0204,-3.0204,-3.0171,-3.0109,-3.009,-3.0045,-2.9921,-2.9888,-2.9855,-2.9735,-2.9719,-2.9701,-2.9607,-2.955,-2.9512,-2.9588,-2.9607,-2.9645,-2.9681,-2.9717,-2.9771,-2.9859,-2.991,-2.994,-3.0007,-3.0049,-3.009,-3.0109,-3.0138,-3.0204,-3.0204,-3.0204,-3.0204,-2.1098,-2.0918,-2.0965,-2.1379,-2.1978,-2.2335,-2.2617,-2.2844,-2.3029,-2.326,-2.3549,-2.3785,-2.4088,-2.4425,-2.451,-2.4594,-2.4667,-2.4868,-2.4993,-2.5075,-2.5394,-2.5941,-2.6667,-2.6817,-2.7447,-2.8409,-2.8494,-2.8675,-2.8975,-2.8975,-2.8975,-2.8975,-2.8975,-2.8975,-2.8975,-2.8975,-2.8975,-2.8975,-2.8975,-2.8975,-2.8975,-2.8975,-2.8975,-2.8975,-2.9044,-2.9152,-2.9218,-2.933,-2.9491,-2.9645,-2.8209,-2.7441,-2.7578,-2.6035,0.0,0.0,0.0,0.0,0.0,0.0,0.0,0.0,0.0,-2.521,-2.521,0.0,-2.5459,0.0,-2.7644,-2.8681,-2.8872,-2.9688,0.0,0.0,-3.0204,-3.0204,-3.0204,-3.0204,-3.0204,-3.0204,-3.0204,-3.0204,-3.0204,-3.0204,-3.0185,-3.0171,-3.0123,-3.0045,-2.9988,-2.994,-2.9891,-2.9859,-2.9808,-2.9756,-2.9683,-2.9608,-2.9607,-2.9664,-2.9664,-2.97,-2.9773,-2.9806,-2.9878,-2.9893,-2.9924,-2.9988,-3.0053,-3.0098,-3.0109,-3.0171,-3.0185,-3.0204,-3.0204,-3.0204,-3.0204,-2.1768,-2.1657,-2.2015,-2.2517,-2.3093,-2.2883,-2.2912,-2.3147,-2.3377,-2.3617,-2.3885,-2.4225,-2.4601,-2.4947,-2.5005,-2.5063,-2.5138,-2.549,-2.5703,-2.5823,-2.6262,-2.6816,-2.745,-2.7592,-2.803,-2.8694,-2.8761,-2.8858,-2.8994,-2.8975,-2.8975,-2.8975,-2.8975,-2.8975,-2.8975,-2.8975,-2.8975,-2.8975,-2.8975,-2.8975,-2.8975,-2.8975,-2.8975,-2.8975,-2.9108,-2.9175,-2.924,-2.939,-2.9531,-2.9664,-2.8225,-2.7456,-2.7559,-2.6028,-2.5125,0.0,0.0,0.0,0.0,0.0,0.0,0.0,0.0,0.0,0.0,0.0,-2.6211,-2.7415,-2.8357,-2.9044,-2.9459,-2.9898,-3.0204,-3.0204,-3.0204,-3.0204,-3.0204,-3.0204,-3.0204,-3.0204,-3.0204,-3.0204,-3.0204,-3.0204,-3.0204,-3.0204,-3.0152,-3.0109,-3.0049,-3.0003,-2.9991,-2.9962,-2.9893,-2.9808,-2.9737,-2.9719,-2.9719,-2.9774,-2.979,-2.9806,-2.9841,-2.9876,-2.991,-2.991,-2.9975,-3.0053,-3.0087,-3.0128,-3.0157,-3.0204,-3.0204,-3.0204,-3.0204,-3.0204,-3.0204,-2.2495,-2.2709,-2.3083,-2.3494,-2.3876,-2.311,-2.292,-2.3196,-2.349,-2.3756,-2.4015,-2.4543,-2.489,-2.515,-2.5163,-2.5193,-2.5333,-2.6026,-2.641,-2.6586,-2.7315,-2.7836,-2.8081,-2.8228,-2.8422,-2.8669,-2.8737,-2.8834,-2.897,-2.8994,-2.8994,-2.8994,-2.8994,-2.8975,-2.8975,-2.8975,-2.8975,-2.8975,-2.8975,-2.8975,-2.8975,-2.8975,-2.8975,-2.9017,-2.9112,-2.924,-2.9283,-2.9338,-2.942,-2.9494,-2.8072,-2.7304,-2.7388,-2.5971,-2.5156,0.0,-2.521,0.0,0.0,0.0,0.0,0.0,0.0,0.0,0.0,-2.6039,-2.7224,-2.8758,-2.9006,-2.9369,-3.0128,-3.0204,-3.0204,-3.0204,-3.0204,-3.0204,-3.0204,-3.0204,-3.0204,-3.0204,-3.0204,-3.0204,-3.0204,-3.0204,-3.0204,-3.0204,-3.0204,-3.0171,-3.0142,-3.0117,-3.0068,-3.0022,-2.9959,-2.9893,-2.9842,-2.9806,-2.9825,-2.9895,-2.9893,-2.991,-2.9905,-2.9905,-2.9905,-2.994,-3.0022,-3.0083,-3.0083,-3.0161,-3.0204,-3.0204,-3.0204,-3.0204,-3.0204,-3.0204,-3.0204,-2.2356,-2.2646,-2.2754,-2.3127,-2.3566,-2.3724,-2.4055,-2.461,-2.4648,-2.4976,-2.5507,-2.5879,-2.6152,-2.6367,-2.6561,-2.6691,-2.6705,-2.6971,-2.7182,-2.7287,-2.7504,-2.7754,-2.8042,-2.8146,-2.8335,-2.8518,-2.8594,-2.8712,-2.8834,-2.8881,-2.8929,-2.8947,-2.8994,-2.8975,-2.8975,0.0,0.0,0.0,-2.8975,-2.8975,-2.8975,-2.8975,-2.8975,-2.9017,-2.9112,0.0,-2.9283,-2.8796,-2.8596,-2.8666,-2.7236,0.0,0.0,0.0,0.0,0.0,0.0,0.0,0.0,0.0,0.0,0.0,-2.521,-2.521,-2.5249,-2.6574,-2.7873,-2.8815,-2.9555,-3.0013,-3.0185,-3.0204,-3.0204,-3.0204,-3.0204,-3.0204,-3.0204,-3.0204,-3.0204,-3.0204,-3.0204,-3.0204,-3.0204,-3.0204,-3.0204,-3.0204,-3.0204,-3.0185,-3.019,-3.0142,-3.0098,-3.0068,-3.0022,-2.9975,-2.9975,-2.9907,-2.9891,-2.9907,-2.9907,-2.9924,-2.9972,-2.9972,-3.0007,-3.0038,-3.0083,-3.0094,-3.0094,-3.0157,-3.0204,-3.0204,-3.0204,-3.0204,-3.0204,-3.0204,-3.0204,-2.2278,0.0,-2.2663,-2.2994,0.0,-2.3711,-2.412,-2.467,-2.4886,-2.5301,-2.5844,-2.6082,-2.6365,-2.6657,-2.6892,-2.7038,-2.7085,-2.7233,-2.7345,-2.7452,-2.7544,-2.7659,-2.7864,-2.8073,-2.8219,-2.8406,-2.8536,-2.8637,-2.8761,-2.881,-2.8858,-2.8858,-2.8881,-2.8881,-2.89,-2.8929,-2.8952,-2.8975,-2.8975,-2.8975,-2.8975,-2.8975,-2.8975,-2.9017,-2.913,0.0,0.0,0.0,0.0,0.0,0.0,0.0,0.0,0.0,0.0,-2.521,-2.521,-2.521,-2.521,-2.521,-2.521,-2.521,-2.5573,-2.5975,-2.6383,-2.7568,-2.8657,-2.9459,-2.9956,-3.0204,-3.0204,-3.0204,-3.0204,-3.0204,-3.0204,-3.0204,-3.0204,-3.0204,-3.0204,-3.0204,-3.0204,-3.0204,-3.0204,-3.0204,-3.0204,-3.0204,-3.0204,-3.0204,-3.0204,-3.0157,-3.0094,-3.0083,-3.0087,-3.0038,-3.0038,-3.0022,-3.0007,-3.0007,-3.0007,-3.0022,-3.0038,-3.0038,-3.0072,-3.0102,-3.0079,-3.0094,-3.0109,-3.0138,-3.0204,-3.0204,-3.0204,-3.0204,-3.0204,-3.0204,-3.0204,-2.2137,-2.237,-2.2586,-2.2889,-2.3216,-2.3436,-2.3824,-2.4343,0.0,0.0,0.0,-2.5848,-2.6154,-2.6503,-2.6742,-2.6942,-2.7087,-2.7218,-2.7313,-2.7407,-2.7465,-2.7552,-2.7683,-2.7926,-2.811,-2.8273,-2.8432,-2.8562,-2.8619,-2.8712,-2.8761,-2.8761,-2.8785,-2.8804,-2.8828,-2.8881,-2.8929,-2.8994,-2.8994,-2.8975,-2.8975,-2.8975,-2.8975,-2.8975,-2.913,-2.9218,-2.9283,-2.8517,-2.8128,-2.8214,-2.6798,-2.6015,-2.6059,-2.5507,-2.518,-2.521,-2.521,-2.521,-2.521,-2.521,-2.5268,-2.5421,-2.6288,-2.7147,-2.7873,-2.851,-2.9268,-3.0128,-3.0204,-3.0204,-3.0204,-3.0204,-3.0204,-3.0204,-3.0204,-3.0204,-3.0204,-3.0204,-3.0204,-3.0204,-3.0204,-3.0204,-3.0204,-3.0204,-3.0204,-3.0204,-3.0204,-3.0204,-3.0204,-3.0157,-3.0109,-3.0132,-3.0117,-3.0117,-3.0117,-3.0117,-3.0117,-3.0083,-3.0083,-3.0083,-3.0083,-3.0083,-3.0083,-3.0117,-3.0113,-3.0128,-3.0123,-3.0171,-3.0204,-3.0204,-3.0204,-3.0204,-3.0204,-3.0204,-3.0204,-2.2091,-2.2217,-2.237,-2.2632,-2.2979,-2.3216,-2.3696,-2.4359,-2.4791,-2.5084,-2.5208,-2.5589,-2.5864,-2.6099,-2.6468,-2.6759,-2.6959,-2.7055,-2.7233,-2.7393,-2.7407,-2.7496,-2.7701,-2.7742,-2.7893,-2.8126,-2.8209,-2.8291,-2.838,-2.8536,-2.8637,-2.8637,-2.8755,-2.8804,-2.881,-2.8881,-2.8887,-2.8929,-2.8952,-2.8975,-2.8975,-2.8975,-2.8975,-2.8975,-2.9067,-2.9175,-2.9265,-2.7957,-2.7251,-2.733,-2.5918,-2.5129,-2.5241,-2.5177,-2.5125,-2.521,-2.521,-2.521,-2.521,-2.521,-2.5516,-2.623,-2.7663,-2.8605,-2.872,-2.8834,-2.9287,-3.0089,-3.0204,-3.0204,-3.0204,-3.0204,-3.0204,-3.0204,-3.0204,-3.0204,-3.0204,-3.0204,-3.0204,-3.0204,-3.0204,-3.0204,-3.0204,-3.0204,-3.0204,-3.0204,-3.0204,-3.0204,-3.0204,-3.0185,-3.0185,-3.019,-3.019,-3.019,-3.019,-3.019,-3.0176,-3.0094,-3.0113,-3.0094,-3.0094,-3.0094,-3.0128,-3.0171,-3.019,-3.019,-3.019,-3.0204,-3.0204,-3.0204,-3.0204,-3.0204,-3.0204,-3.0204,-3.0204,-2.1888,-2.2077,-2.2231,-2.2495,-2.2844,-2.3246,-2.3668,-2.4051,-2.4426,-2.4751,-2.5068,-2.5285,-2.5551,-2.5848,-2.6173,-2.6469,-2.6742,-2.6892,-2.7087,-2.7215,-2.7279,-2.7373,-2.7526,-2.76,-2.7748,-2.7893,-2.8042,-2.8126,-2.8191,-2.8353,-2.8432,-2.8414,-2.8587,-2.8687,-2.8743,-2.881,-2.8858,-2.8905,-2.8952,-2.8975,-2.8975,-2.8975,-2.8975,-2.8975,-2.9062,-2.9152,-2.9222,-2.8216,-2.7513,-2.7204,-2.6133,-2.5399,-2.5063,-2.5082,-2.5107,-2.5151,-2.5151,-2.5342,-2.5761,-2.6231,-2.6867,-2.772,-2.8452,-2.9102,-2.9574,-2.9612,-2.9784,-3.0147,-3.0204,-3.0204,-3.0204,-3.0204,-3.0204,-3.0204,-3.0204,-3.0204,-3.0204,-3.0204,-3.0204,-3.0204,-3.0204,-3.0204,-3.0204,-3.0204,-3.0204,-3.0204,-3.0204,-3.0204,-3.0204,-3.0204,-3.0204,-3.0204,-3.0204,-3.0204,-3.0204,-3.0204,-3.0185,-3.0157,-3.0138,-3.0157,-3.0157,-3.0157,-3.0171,-3.0204,-3.0204,-3.0204,-3.0204,-3.0204,-3.0204,-3.0204,-3.0204,-3.0204,-3.0204,-3.0218,-3.0213,-2.1712,-2.1888,-2.2091,-2.2342,-2.274,-2.329,-2.3566,-2.3782,-2.4094,-2.4467,-2.4846,-2.4989,-2.5246,-2.5572,-2.5905,-2.6208,-2.6486,-2.6742,-2.6909,-2.7038,-2.7135,-2.723,-2.7359,-2.7513,-2.7569,-2.7689,-2.7824,-2.794,-2.8025,-2.8164,-2.83,-2.8353,-2.844,-2.8569,-2.8694,-2.8761,-2.8834,-2.8905,-2.8952,-2.8975,-2.8975,-2.8975,-2.8975,-2.9017,-2.9062,-2.9112,-2.9163,-2.853,-2.7923,-2.7453,-2.6744,-2.6095,-2.5593,-2.5595,-2.5627,-2.5672,-2.5672,-2.5939,-2.6561,-2.7407,-2.8177,-2.8834,-2.9082,-2.9478,-3.0109,-3.0204,-3.0204,-3.0204,-3.0204,-3.0204,-3.0204,-3.0204,-3.0204,-3.0204,-3.0204,-3.0204,-3.0204,-3.0204,-3.0204,-3.0204,-3.0204,-3.0204,-3.0204,-3.0204,-3.0204,-3.0204,-3.0204,-3.0204,-3.0204,-3.0204,-3.0204,-3.0204,-3.0204,-3.0204,-3.0204,-3.0204,-3.0204,-3.0204,-3.0204,-3.0204,-3.0204,-3.0204,-3.0204,-3.0204,-3.0204,-3.0204,-3.0204,-3.0204,-3.0204,-3.0204,-3.0204,-3.0218,-3.0218,-3.0226,-3.024,-2.1506,-2.1664,-2.1902,-2.2296,-2.2709,-2.3024,-2.3348,-2.3638,-2.3925,-2.4135,-2.4385,-2.4791,-2.5068,-2.5208,-2.5572,-2.5868,-2.6175,-2.6486,-2.6708,-2.6909,-2.7038,-2.7166,-2.723,-2.7376,-2.7469,-2.7526,-2.7617,-2.7707,-2.776,-2.7996,-2.8219,-2.844,-2.851,-2.8587,-2.8712,-2.8761,-2.8834,-2.8905,-2.8952,-2.8975,-2.8975,-2.8975,-2.8975,-2.8975,-2.8998,-2.9085,-2.9181,-2.8447,-2.8087,-2.8129,-2.7488,-2.71,-2.7146,-2.7161,-2.7224,-2.7295,-2.7333,-2.7418,-2.7521,-2.8297,-2.8826,-2.8949,-2.9631,-3.007,-3.0185,-3.0204,-3.0204,-3.0204,-3.0204,-3.0204,-3.0204,-3.0204,-3.0204,-3.0204,-3.0204,-3.0204,-3.0204,-3.0204,-3.0204,-3.0204,-3.0204,-3.0204,-3.0204,-3.0204,-3.0204,-3.0204,-3.0204,-3.0204,-3.0204,-3.0204,-3.0204,-3.0204,-3.0204,-3.0204,-3.0204,-3.0204,-3.0204,-3.0204,-3.0204,-3.0204,-3.0204,-3.0204,-3.0204,-3.0204,-3.0204,-3.0204,-3.0204,-3.0204,-3.0204,-3.0204,-3.0218,-3.0218,-3.0207,-3.0234,-3.0279,-2.1277,-2.152,-2.1746,-2.2123,-2.2526,-2.2844,-2.3127,-2.3348,-2.3595,-2.3867,-2.4036,-2.4426,-2.4766,-2.5029,-2.5262,-2.5551,-2.5868,-2.6118,-2.6417,-2.6708,-2.6892,-2.7038,-2.7166,-2.7282,-2.7376,-2.7438,-2.7452,-2.7544,-2.76,-2.7789,-2.8063,-2.83,-2.8406,-2.851,-2.8637,-2.8737,-2.8834,-2.8905,-2.897,-2.8975,-2.8975,-2.8975,-2.8975,-2.8975,-2.8975,-2.9062,-2.916,-2.8929,-2.8625,-2.8334,-2.8052,-2.7708,-2.7318,-2.7315,-2.738,-2.7498,-2.7983,-2.8255,-2.8327,-2.9127,-2.9632,-2.9655,-2.9994,-3.0204,-3.0204,-3.0204,-3.0204,-3.0204,-3.0204,-3.0204,-3.0204,-3.0204,-3.0204,-3.0204,-3.0204,-3.0204,-3.0204,-3.0204,-3.0204,-3.0204,-3.0204,-3.0204,-3.0204,-3.0204,-3.0204,-3.0204,-3.0204,-3.0204,-3.0204,-3.0204,-3.0204,-3.0204,-3.0204,-3.0204,-3.0204,-3.0204,-3.0204,-3.0204,-3.0204,-3.0204,-3.0204,-3.0204,-3.0204,-3.0204,-3.0204,-3.0204,-3.0204,-3.0204,-3.0204,-3.0218,-3.0213,-3.0207,-3.0254,-3.0267,-3.0311,-2.1033,-2.1313,-2.1664,-2.1983,-2.237,-2.2618,-2.2859,-2.3068,-2.3334,-2.3566,-2.3739,-2.4036,-2.44,-2.4806,-2.4989,-2.5246,-2.5551,-2.5828,-2.6099,-2.6434,-2.6674,-2.6876,-2.6989,-2.7137,-2.725,-2.7296,-2.7327,-2.739,-2.7526,-2.7672,-2.7922,-2.8182,-2.8318,-2.8476,-2.8612,-2.8737,-2.8834,-2.8929,-2.8975,-2.8975,-2.8975,-2.8975,-2.8975,-2.8975,-2.8975,-2.9044,-2.9175,-2.924,-2.9066,-2.8594,-2.8615,-2.8445,-2.7952,-2.793,-2.7999,-2.8118,-2.866,-2.9064,-2.9136,-2.9741,-3.0113,-3.0204,-3.0204,-3.0204,-3.0204,-3.0204,-3.0204,-3.0204,-3.0204,-3.0204,-3.0204,-3.0204,-3.0204,-3.0204,-3.0204,-3.0204,-3.0204,-3.0204,-3.0204,-3.0204,-3.0204,-3.0204,-3.0204,-3.0204,-3.0204,-3.0204,-3.0204,-3.0204,-3.0204,-3.0204,-3.0204,-3.0204,-3.0204,-3.0204,-3.0204,-3.0204,-3.0204,-3.0204,-3.0204,-3.0204,-3.0204,-3.0204,-3.0204,-3.0204,-3.0204,-3.0204,-3.0204,-3.0204,-3.0218,-3.0218,-3.0226,-3.0234,-3.0279,-3.0304,-3.0336,-2.0686,-2.1095,-2.1568,-2.1935,-2.2231,-2.237,-2.2586,-2.2904,-2.3068,-2.3304,-2.3551,-2.3739,-2.4009,-2.4343,-2.4751,-2.5029,-2.5169,-2.5551,-2.5811,-2.6099,-2.6417,-2.6657,-2.6742,-2.6925,-2.7055,-2.712,-2.7135,-2.7261,-2.7539,-2.7642,-2.7847,-2.8182,-2.8246,-2.8432,-2.8644,-2.8737,-2.8876,-2.8952,-2.8994,-2.8975,-2.8975,-2.8975,-2.8975,-2.8975,-2.8975,-2.904,-2.9108,-2.9156,-2.9188,-2.9237,-2.9262,-2.9361,-2.9514,-2.9532,-2.953,-2.9689,-2.9777,-2.988,-2.9958,-3.0049,-3.0117,-3.019,-3.0204,-3.0204,-3.019,-3.0204,-3.0204,-3.0185,-3.0204,-3.0204,-3.0204,-3.0204,-3.0204,-3.0204,-3.0204,-3.0204,-3.0204,-3.0204,-3.0204,-3.0204,-3.0204,-3.0204,-3.0204,-3.0204,-3.0204,-3.0204,-3.0204,-3.0204,-3.0204,-3.0204,-3.0204,-3.0204,-3.0204,-3.0204,-3.0204,-3.0204,-3.0204,-3.0204,-3.0204,-3.0204,-3.0204,-3.0204,-3.0204,-3.0204,-3.0204,-3.0204,-3.0204,-3.0218,-3.0213,-3.0226,-3.0221,-3.0241,-3.0323,-3.0304,-3.0336,-2.0759,-2.1131,-2.1423,-2.1746,-2.2077,-2.2231,-2.2402,-2.2586,-2.2783,-2.2949,-2.3157,-2.3392,-2.361,-2.3867,-2.4245,-2.4655,-2.5045,-2.5246,-2.5513,-2.5811,-2.6137,-2.6332,-2.6538,-2.6792,-2.6959,-2.6975,-2.7023,-2.7152,-2.7355,-2.7539,-2.7719,-2.7893,-2.8136,-2.8345,-2.851,-2.8662,-2.881,-2.8929,-2.8975,-2.8975,-2.8975,-2.8975,-2.8975,-2.8975,-2.8975,-2.904,-2.9108,-2.913,-2.9178,-2.9286,-2.9312,-2.9394,-2.9569,-2.9682,-2.9773,-2.9825,-2.9874,-2.994,-3.0003,-3.0038,-3.0072,-3.0132,-3.0132,-3.0147,-3.0147,-3.0142,-3.0123,-3.0138,-3.0171,-3.0204,-3.0204,-3.0204,-3.0204,-3.0204,-3.0204,-3.0204,-3.0204,-3.0204,-3.0204,-3.0204,-3.0204,-3.0204,-3.0204,-3.0204,-3.0204,-3.0204,-3.0204,-3.0204,-3.0204,-3.0204,-3.0204,-3.0204,-3.0204,-3.0204,-3.0204,-3.0204,-3.0204,-3.0204,-3.0204,-3.0204,-3.0204,-3.0204,-3.0204,-3.0204,-3.0204,-3.0204,-3.0204,-3.0213,-3.0226,-3.0266,-3.026,-3.0267,-3.0355,-3.0348,-3.0367,-2.0836,-2.1122,-2.1326,-2.1568,-2.1888,-2.2058,-2.2198,-2.2324,-2.2537,-2.2706,-2.2844,-2.3083,-2.3304,-2.3508,-2.3824,-2.4204,-2.471,-2.495,-2.5262,-2.5605,-2.5868,-2.6085,-2.6347,-2.6606,-2.6775,-2.6842,-2.6942,-2.7055,-2.7198,-2.7386,-2.7539,-2.773,-2.7996,-2.8254,-2.8424,-2.8569,-2.8761,-2.8881,-2.8947,-2.8975,-2.8994,-2.8975,-2.8975,-2.8975,-2.8975,-2.904,-2.9085,-2.9067,-2.9134,-2.9218,-2.9286,-2.9353,-2.9512,-2.9682,-2.9771,-2.9789,-2.9874,-2.994,-2.9972,-3.0007,-3.0022,-3.0087,-3.0102,-3.0102,-3.0102,-3.0098,-3.0094,-3.0113,-3.0128,-3.0176,-3.0157,-3.0157,-3.0171,-3.0204,-3.0204,-3.0204,-3.0204,-3.0204,-3.0204,-3.0204,-3.0204,-3.0204,-3.0204,-3.0204,-3.0204,-3.0204,-3.0204,-3.0204,-3.0204,-3.0204,-3.0204,-3.0204,-3.0204,-3.0204,-3.0204,-3.0204,-3.0204,-3.0204,-3.0204,-3.0204,-3.0204,-3.0204,-3.0204,-3.0204,-3.0204,-3.0218,-3.0218,-3.0213,-3.0253,-3.0292,-3.0299,-3.0292,-3.0348,-3.0398,-3.0398,-2.0875,-2.0835,-2.1215,-2.1471,-2.1664,-2.1882,-2.2058,-2.2198,-2.2334,-2.2477,-2.2663,-2.2844,-2.3038,-2.3319,-2.3508,-2.3824,-2.4204,-2.467,-2.5084,-2.5317,-2.5551,-2.5881,-2.6168,-2.6312,-2.6469,-2.6708,-2.6892,-2.7055,-2.7166,-2.7213,-2.74,-2.7672,-2.7911,-2.8136,-2.8398,-2.851,-2.8712,-2.8839,-2.8887,-2.8929,-2.8994,-2.8975,-2.8975,-2.8975,-2.8975,-2.8975,-2.8998,-2.9062,-2.9108,-2.913,-2.9215,-2.9365,-2.9492,-2.9626,-2.9735,-2.9808,-2.9857,-2.9924,-2.9991,-2.9991,-3.0007,-3.0038,-3.0087,-3.0072,-3.0072,-3.0068,-3.0083,-3.0102,-3.0102,-3.0102,-3.0117,-3.0113,-3.0123,-3.0185,-3.0204,-3.0204,-3.0204,-3.0204,-3.0204,-3.0204,-3.0204,-3.0204,-3.0204,-3.0204,-3.0204,-3.0204,-3.0204,-3.0204,-3.0204,-3.0204,-3.0204,-3.0204,-3.0204,-3.0204,-3.0204,-3.0204,-3.0204,-3.0204,-3.0204,-3.0204,-3.0204,-3.0204,-3.0204,-3.0204,-3.0204,-3.0204,-3.0213,-3.0221,-3.026,-3.0286,-3.0292,-3.0316,-3.0367,-3.0398,-3.0398,-2.0431,-2.0448,-2.0723,-2.1118,-2.1471,-2.1582,-2.1712,-2.1935,-2.2063,-2.2203,-2.2356,-2.2509,-2.2723,-2.3038,-2.326,-2.3523,-2.3782,-2.4302,-2.471,-2.5084,-2.5301,-2.5567,-2.5864,-2.6115,-2.6347,-2.6623,-2.6842,-2.6942,-2.699,-2.7135,-2.7307,-2.7509,-2.7748,-2.8007,-2.8273,-2.844,-2.8637,-2.881,-2.8881,-2.8929,-2.8975,-2.8975,-2.8975,-2.8975,-2.8975,-2.8975,-2.8998,-2.9017,-2.9044,-2.9108,-2.9181,-2.9296,-2.9491,-2.9626,-2.9719,-2.9717,-2.9789,-2.9842,-2.9841,-2.9876,-2.9876,-2.9893,-2.9926,-2.9962,-2.9959,-3.0007,-3.0022,-3.0038,-3.0072,-3.0102,-3.0083,-3.0083,-3.0113,-3.0123,-3.0171,-3.0204,-3.0204,-3.0204,-3.0204,-3.0204,-3.0204,-3.0204,-3.0204,-3.0204,-3.0204,-3.0204,-3.0204,-3.0204,-3.0204,-3.0204,-3.0204,-3.0204,-3.0204,-3.0204,-3.0204,-3.0204,-3.0204,-3.0204,-3.0204,-3.0204,-3.0204,-3.0204,-3.0204,-3.0204,-3.0204,-3.0218,-3.0207,-3.0234,-3.0273,-3.0311,-3.0336,-3.0367,-3.0379,-3.0398,-3.0398,-2.0316,-2.0346,-2.0462,-2.0759,-2.1166,-2.1251,-2.1444,-2.165,-2.1793,-2.1935,-2.2091,-2.2231,-2.2463,-2.2678,-2.2994,-2.326,-2.3523,-2.3867,-2.4302,-2.4766,-2.51,-2.5355,-2.568,-2.6043,-2.631,-2.6554,-2.6725,-2.6809,-2.6893,-2.7055,-2.7166,-2.7355,-2.76,-2.7864,-2.8136,-2.8353,-2.8518,-2.8718,-2.8815,-2.8905,-2.8975,-2.8975,-2.8975,-2.8975,-2.8975,-2.8975,-2.8975,-2.8975,-2.9017,-2.9062,-2.914,-2.9296,-2.947,-2.9569,-2.9683,-2.97,-2.9754,-2.9789,-2.9789,-2.9789,-2.9789,-2.9789,-2.9878,-2.9895,-2.9893,-2.9924,-2.9975,-2.9972,-2.9988,-3.0022,-3.0022,-3.0038,-3.0068,-3.0064,-3.0113,-3.0157,-3.0157,-3.0171,-3.0171,-3.0204,-3.0204,-3.0204,-3.0204,-3.0204,-3.0204,-3.0204,-3.0204,-3.0204,-3.0204,-3.0204,-3.0204,-3.0204,-3.0204,-3.0204,-3.0204,-3.0204,-3.0204,-3.0204,-3.0204,-3.0204,-3.0204,-3.0204,-3.0204,-3.0204,-3.0204,-3.0232,-3.0221,-3.0266,-3.0305,-3.0343,-3.0379,-3.0379,-3.0398,-3.0398,-3.0398,-2.0523,-2.0507,-2.045,-2.0562,-2.0809,-2.1064,-2.1224,-2.1375,-2.1526,-2.1657,-2.1793,-2.203,-2.2184,-2.231,-2.2663,-2.3038,-2.326,-2.3523,-2.3867,-2.4343,-2.4726,-2.5178,-2.5616,-2.5987,-2.6258,-2.6485,-2.6589,-2.6708,-2.6859,-2.6975,-2.7072,-2.7213,-2.7478,-2.7736,-2.8014,-2.8219,-2.844,-2.8669,-2.8743,-2.8858,-2.8975,-2.8975,-2.8975,-2.8975,-2.8975,-2.8975,-2.8975,-2.8975,-2.9017,-2.9017,-2.913,-2.924,-2.9388,-2.9491,-2.9589,-2.9664,-2.9756,-2.9773,-2.9771,-2.9773,-2.9771,-2.979,-2.9861,-2.9895,-2.9876,-2.9891,-2.9924,-2.9924,-2.9924,-2.9905,-2.994,-2.9972,-2.9988,-2.9988,-3.0053,-3.0098,-3.0094,-3.0113,-3.0128,-3.0171,-3.0204,-3.0204,-3.019,-3.019,-3.019,-3.019,-3.019,-3.019,-3.019,-3.0171,-3.0185,-3.0185,-3.0204,-3.0204,-3.0204,-3.0204,-3.0204,-3.0204,-3.0204,-3.0204,-3.0204,-3.0204,-3.0204,-3.0204,-3.0218,-3.0226,-3.0266,-3.0279,-3.0337,-3.0374,-3.0398,-3.0398,-3.0398,-3.0398,-3.0398,-2.0205,-1.9958,-2.0263,-2.0397,-2.0398,-2.0646,-2.0845,-2.0957,-2.118,-2.1388,-2.1506,-2.1712,-2.1949,-2.2231,-2.2417,-2.2737,-2.3038,-2.3348,-2.3711,-2.4067,-2.4359,-2.4926,-2.5524,-2.5897,-2.617,-2.6347,-2.6503,-2.664,-2.6742,-2.6942,-2.7023,-2.7135,-2.7448,-2.7736,-2.8014,-2.8191,-2.8406,-2.8594,-2.8737,-2.8834,-2.8929,-2.8994,-2.8975,-2.8975,-2.8975,-2.8975,-2.8975,-2.8975,-2.9053,-2.9072,-2.9104,-2.9181,-2.933,-2.9373,-2.9453,-2.955,-2.9608,-2.9664,-2.9645,-2.9701,-2.9719,-2.9757,-2.9809,-2.9825,-2.9825,-2.9874,-2.9907,-2.9924,-2.994,-2.9956,-2.9921,-2.9956,-2.9972,-2.9956,-3.0022,-3.0087,-3.0083,-3.0083,-3.0117,-3.0132,-3.0113,-3.0132,-3.0132,-3.0132,-3.0132,-3.0113,-3.0132,-3.0147,-3.0142,-3.0123,-3.0123,-3.0185,-3.0185,-3.0204,-3.0204,-3.0204,-3.0204,-3.0204,-3.0204,-3.0204,-3.0204,-3.0204,-3.0204,-3.0204,-3.0204,-3.0232,-3.0253,-3.0312,-3.0349,-3.0386,-3.0398,-3.0398,-3.0398,-3.0398,-3.0398,-1.9787,-1.971,-1.992,-1.9953,-1.99,-2.0131,-2.0383,-2.056,-2.0822,-2.1019,-2.1166,-2.1375,-2.1602,-2.1855,-2.2137,-2.2417,-2.2768,-2.3127,-2.3538,-2.3824,-2.4219,-2.4806,-2.541,-2.5754,-2.601,-2.6241,-2.6485,-2.6572,-2.6691,-2.6876,-2.7007,-2.712,-2.7404,-2.7659,-2.7882,-2.8119,-2.8353,-2.8562,-2.8694,-2.8834,-2.8905,-2.8952,-2.8994,-2.8975,-2.8975,-2.8975,-2.8975,-2.8975,-2.9035,-2.9072,-2.9122,-2.9156,-2.9286,-2.9291,-2.9355,-2.9492,-2.955,-2.9607,-2.9645,-2.9683,-2.9701,-2.9719,-2.979,-2.9825,-2.9859,-2.9891,-2.994,-2.9956,-2.9988,-3.0007,-2.9956,-2.9937,-2.994,-2.9924,-2.9972,-3.0022,-3.0038,-3.0072,-3.0053,-3.0068,-3.0102,-3.0102,-3.0102,-3.0102,-3.0102,-3.0102,-3.0102,-3.0098,-3.0098,-3.0079,-3.0094,-3.0142,-3.0152,-3.0157,-3.0171,-3.0185,-3.0204,-3.0204,-3.0204,-3.0204,-3.0204,-3.0204,-3.0204,-3.0204,-3.0204,-3.0218,-3.0272,-3.0324,-3.033,-3.0355,-3.0386,-3.0398,-3.0398,-3.0398,-3.0398,-1.9404,-1.9502,-1.9481,-1.9395,-1.9405,-1.9645,-1.9863,-2.0118,-2.0422,-2.061,-2.0759,-2.1019,-2.1215,-2.1423,-2.1807,-2.217,-2.2555,-2.2873,-2.3246,-2.3696,-2.4177,-2.4742,-2.5162,-2.5513,-2.5828,-2.6151,-2.638,-2.652,-2.664,-2.6876,-2.6992,-2.7105,-2.7341,-2.7557,-2.7748,-2.8035,-2.8282,-2.8484,-2.8662,-2.8785,-2.8881,-2.8929,-2.8975,-2.8975,-2.8975,-2.8975,-2.8975,-2.8994,-2.9035,-2.909,-2.9081,-2.9149,-2.9255,-2.9289,-2.9353,-2.9454,-2.9531,-2.9589,-2.9664,-2.9701,-2.9699,-2.9717,-2.9825,-2.9895,-2.9912,-2.9943,-2.9972,-2.9956,-3.0053,-3.0053,-3.0022,-2.9956,-2.994,-2.9924,-2.9924,-2.9921,-2.9972,-3.0007,-3.0022,-3.0072,-3.0068,-3.0068,-3.0087,-3.0087,-3.0053,-3.0003,-3.0038,-3.0038,-3.0053,-3.0068,-3.0064,-3.0098,-3.0094,-3.009,-3.0123,-3.0152,-3.0204,-3.0204,-3.0204,-3.0204,-3.0204,-3.0204,-3.0204,-3.0204,-3.0204,-3.0245,-3.0299,-3.0305,-3.033,-3.0355,-3.0398,-3.0398,-3.0398,-3.0398,-3.0398,-1.9125,-1.8835,-1.9199,-1.9112,-1.8857,-1.9174,-1.9436,-1.9629,-1.9978,-2.022,-2.0372,-2.0623,-2.0921,-2.1229,-2.1458,-2.1793,-2.2278,-2.2601,-2.2994,-2.3638,-2.4078,-2.4467,-2.4831,-2.5224,-2.5642,-2.5954,-2.6225,-2.6417,-2.6606,-2.6859,-2.6992,-2.7057,-2.731,-2.7557,-2.7677,-2.7968,-2.8191,-2.8353,-2.8536,-2.8712,-2.8815,-2.8881,-2.8952,-2.8994,-2.8975,-2.8975,-2.8975,-2.8975,-2.9017,-2.9035,-2.904,-2.9108,-2.9218,-2.9222,-2.9289,-2.9412,-2.9492,-2.955,-2.9626,-2.9683,-2.9701,-2.9717,-2.977,-2.9842,-2.9895,-2.9926,-2.9924,-2.994,-3.0022,-3.0083,-3.0064,-3.0019,-2.9972,-2.9956,-2.994,-2.9907,-2.9905,-2.994,-2.994,-2.994,-2.9956,-2.9937,-2.9921,-2.9956,-2.9956,-2.9921,-2.9956,-2.9972,-2.9988,-3.0022,-3.0053,-3.0068,-3.0098,-3.0094,-3.0123,-3.0171,-3.0204,-3.0204,-3.0204,-3.0204,-3.0204,-3.0204,-3.0204,-3.0204,-3.0204,-3.0245,-3.0299,-3.0305,-3.0318,-3.0355,-3.0398,-3.0398,-3.0398,-3.0398,-3.0398,-1.8383,-1.8179,-1.8425,-1.843,-1.8251,-1.8602,-1.8881,-1.9158,-1.9577,-1.9772,-1.9978,-2.022,-2.0523,-2.0822,-2.1019,-2.1396,-2.1935,-2.2449,-2.2994,-2.3523,-2.3925,-2.4177,-2.4508,-2.491,-2.5323,-2.5791,-2.6099,-2.6364,-2.6572,-2.6826,-2.6942,-2.7007,-2.7279,-2.7496,-2.7617,-2.79,-2.8154,-2.8345,-2.8484,-2.8662,-2.8785,-2.8858,-2.8929,-2.8994,-2.8975,-2.8975,-2.8975,-2.8975,-2.8975,-2.9017,-2.904,-2.9108,-2.9178,-2.92,-2.9267,-2.9412,-2.9491,-2.9569,-2.9645,-2.9701,-2.9719,-2.9773,-2.9806,-2.9841,-2.991,-2.9924,-2.994,-2.9972,-3.0038,-3.0094,-3.0094,-3.0034,-2.9988,-2.9972,-2.994,-2.9907,-2.991,-2.9907,-2.9907,-2.9907,-2.9924,-2.9924,-2.9907,-2.9907,-2.9907,-2.9924,-2.9924,-2.994,-2.994,-2.9956,-3.0007,-3.0038,-3.0068,-3.0113,-3.0142,-3.0171,-3.0204,-3.0204,-3.0204,-3.0204,-3.0204,-3.0204,-3.0204,-3.0204,-3.0218,-3.0259,-3.0279,-3.0292,-3.0318,-3.0355,-3.0398,-3.0398,-3.0398,-3.0398,-3.0398,-1.7446,-1.739,-1.7539,-1.7568,-1.7623,-1.8018,-1.8398,-1.8744,-1.917,-1.9356,-1.9565,-1.9836,-2.0131,-2.0372,-2.0623,-2.1068,-2.1684,-2.2296,-2.2889,-2.3348,-2.3653,-2.3909,-2.4245,-2.463,-2.5052,-2.5589,-2.597,-2.6239,-2.6468,-2.6725,-2.6909,-2.7007,-2.7233,-2.7404,-2.7617,-2.7853,-2.8053,-2.8246,-2.8432,-2.8637,-2.8761,-2.8834,-2.8905,-2.8975,-2.8975,-2.8975,-2.8975,-2.8975,-2.8975,-2.9035,-2.9062,-2.9134,-2.92,-2.924,-2.9307,-2.9491,-2.9511,-2.9569,-2.9664,-2.9701,-2.9755,-2.979,-2.9842,-2.9874,-2.9888,-2.994,-2.9956,-2.9988,-3.0053,-3.0113,-3.0109,-3.0049,-3.0038,-3.0007,-2.9956,-2.9907,-2.991,-2.9891,-2.9907,-2.9872,-2.9874,-2.9874,-2.9874,-2.9874,-2.9891,-2.9907,-2.9907,-2.9907,-2.9907,-2.9924,-2.9956,-3.0022,-3.0068,-3.0109,-3.0152,-3.0166,-3.0199,-3.0232,-3.0232,-3.0232,-3.0232,-3.0245,-3.0245,-3.0232,-3.0213,-3.0253,-3.0292,-3.0299,-3.0323,-3.0379,-3.0398,-3.0398,-3.0398,-3.0398,-3.041,-1.6747,-1.6537,-1.6818,-1.7048,-1.7155,-1.7457,-1.7854,-1.8247,-1.8679,-1.8946,-1.9146,-1.95,-1.9823,-2.008,-2.0321,-2.0921,-2.165,-2.2156,-2.2632,-2.2994,-2.3304,-2.3625,-2.3909,-2.4317,-2.4695,-2.5114,-2.5605,-2.6026,-2.633,-2.6607,-2.6825,-2.699,-2.7152,-2.7324,-2.7509,-2.7748,-2.794,-2.8154,-2.8353,-2.8536,-2.8687,-2.881,-2.89,-2.8975,-2.8975,-2.8975,-2.8975,-2.8975,-2.9017,-2.9072,-2.9085,-2.916,-2.9246,-2.9265,-2.9349,-2.9453,-2.9531,-2.9569,-2.9664,-2.9701,-2.9737,-2.979,-2.9825,-2.9859,-2.9891,-2.9905,-2.9921,-2.9956,-3.0038,-3.0132,-3.0171,-3.0098,-3.0068,-3.0057,-2.9991,-2.9907,-2.9907,-2.9907,-2.9855,-2.9841,-2.9823,-2.9823,-2.9857,-2.9874,-2.991,-2.9907,-2.9907,-2.9907,-2.9907,-2.9924,-2.9956,-3.0022,-3.0087,-3.0142,-3.018,-3.0194,-3.0207,-3.0272,-3.0286,-3.0286,-3.0286,-3.0299,-3.0286,-3.0253,-3.0234,-3.0247,-3.0267,-3.0304,-3.0336,-3.0398,-3.0398,-3.0398,-3.041,-3.039,-3.039,-1.5738,-1.5783,-1.6009,-1.625,-1.6581,-1.7067,-1.7468,-1.781,-1.8247,-1.8518,-1.8774,-1.9093,-1.9396,-1.9604,-1.9965,-2.056,-2.1251,-2.1793,-2.217,-2.254,-2.2918,-2.3231,-2.3538,-2.394,-2.4276,-2.4655,-2.513,-2.5663,-2.6101,-2.6418,-2.6674,-2.6942,-2.707,-2.7261,-2.7478,-2.763,-2.7836,-2.8071,-2.8246,-2.8458,-2.8662,-2.8743,-2.8905,-2.897,-2.8975,-2.8975,-2.8975,-2.8975,-2.9017,-2.9058,-2.9108,-2.9178,-2.9265,-2.9328,-2.9388,-2.9491,-2.9531,-2.9589,-2.9664,-2.9701,-2.9701,-2.9736,-2.9771,-2.9823,-2.9874,-2.9907,-2.9905,-2.9956,-2.9991,-3.0087,-3.0147,-3.0102,-3.0053,-3.0038,-2.9975,-2.9907,-2.991,-2.991,-2.9876,-2.9825,-2.9841,-2.9839,-2.9874,-2.9891,-2.991,-2.991,-2.9907,-2.9907,-2.9907,-2.994,-2.9975,-3.0053,-3.0098,-3.0171,-3.0207,-3.0221,-3.0247,-3.0292,-3.0324,-3.0324,-3.0324,-3.0324,-3.0305,-3.0267,-3.0267,-3.0267,-3.0279,-3.0316,-3.0367,-3.0398,-3.0398,-3.0398,-3.039,-3.039,-3.0402,-1.4648,-1.5041,-1.5134,-1.5526,-1.5999,-1.656,-1.7011,-1.7423,-1.781,-1.8084,-1.8313,-1.8679,-1.8987,-1.9239,-1.9656,-2.022,-2.0746,-2.1313,-2.1698,-2.2123,-2.2463,-2.2828,-2.3187,-2.3524,-2.387,-2.4219,-2.4614,-2.5192,-2.5885,-2.6225,-2.6538,-2.6825,-2.7006,-2.723,-2.7434,-2.7587,-2.7795,-2.8025,-2.8228,-2.8388,-2.8637,-2.8791,-2.8929,-2.8994,-2.8975,-2.8975,-2.8975,-2.8975,-2.9017,-2.9058,-2.9149,-2.92,-2.9225,-2.9328,-2.9411,-2.9491,-2.9531,-2.9569,-2.9626,-2.9645,-2.9645,-2.9701,-2.9755,-2.979,-2.9823,-2.9874,-2.9924,-2.9972,-3.0007,-3.0057,-3.0087,-3.0038,-2.9988,-2.9956,-2.9924,-2.991,-2.9876,-2.9895,-2.9895,-2.9876,-2.9891,-2.9855,-2.9874,-2.9874,-2.9893,-2.991,-2.991,-2.9907,-2.9907,-2.994,-2.9991,-3.0068,-3.0142,-3.0185,-3.0207,-3.0234,-3.0279,-3.033,-3.0349,-3.0349,-3.0349,-3.0318,-3.0311,-3.0304,-3.0323,-3.0323,-3.0336,-3.0348,-3.0379,-3.0398,-3.0398,-3.041,-3.039,-3.0402,-3.0406,-1.3887,-1.4192,-1.4488,-1.4932,-1.5526,-1.5999,-1.6457,-1.692,-1.7368,-1.7645,-1.781,-1.8247,-1.8625,-1.8946,-1.9617,-2.0169,-2.0573,-2.0921,-2.1326,-2.1732,-2.2091,-2.2402,-2.2799,-2.3172,-2.3494,-2.3882,-2.4204,-2.4879,-2.5535,-2.601,-2.64,-2.6674,-2.6925,-2.7137,-2.7404,-2.7526,-2.7719,-2.7979,-2.8183,-2.8448,-2.8712,-2.8815,-2.8923,-2.8975,-2.8975,-2.8975,-2.8975,-2.8994,-2.9035,-2.9053,-2.9149,-2.9218,-2.9262,-2.9349,-2.9392,-2.9412,-2.9433,-2.9453,-2.9512,-2.955,-2.9569,-2.9645,-2.9683,-2.9701,-2.9754,-2.9823,-2.9893,-2.9905,-2.9956,-3.0007,-3.0041,-3.0041,-2.9991,-2.9924,-2.9874,-2.9841,-2.9842,-2.9842,-2.9842,-2.9859,-2.9857,-2.9841,-2.9823,-2.9876,-2.9912,-2.9893,-2.991,-2.9907,-2.9924,-2.9956,-3.0003,-3.0064,-3.0142,-3.0199,-3.0253,-3.0266,-3.0305,-3.0362,-3.0374,-3.0374,-3.0374,-3.0374,-3.0386,-3.0367,-3.0379,-3.0379,-3.0379,-3.0379,-3.0398,-3.0398,-3.0398,-3.0398,-3.0398,-3.0383,-3.0398,-1.2865,-1.3467,-1.3941,-1.435,-1.4746,-1.5342,-1.5768,-1.6171,-1.674,-1.7088,-1.7256,-1.7767,-1.8247,-1.8732,-1.9291,-1.9708,-2.0055,-2.0472,-2.0858,-2.1264,-2.1678,-2.201,-2.2356,-2.2723,-2.3142,-2.348,-2.3909,-2.441,-2.5075,-2.5647,-2.6137,-2.6521,-2.6792,-2.7072,-2.7293,-2.7465,-2.7659,-2.7922,-2.8174,-2.844,-2.8662,-2.8761,-2.8834,-2.8929,-2.8947,-2.897,-2.8994,-2.8975,-2.9017,-2.9058,-2.9152,-2.9218,-2.9262,-2.9307,-2.939,-2.939,-2.939,-2.9431,-2.9492,-2.9511,-2.9531,-2.9607,-2.9645,-2.9719,-2.9754,-2.9789,-2.9842,-2.9841,-2.9857,-2.991,-2.9926,-2.991,-2.9893,-2.9841,-2.9806,-2.9825,-2.979,-2.9771,-2.9789,-2.9806,-2.9859,-2.9842,-2.9823,-2.9876,-2.9893,-2.991,-2.9907,-2.9907,-2.994,-3.0007,-3.0034,-3.0079,-3.0138,-3.0213,-3.0253,-3.0292,-3.0318,-3.0374,-3.0386,-3.0398,-3.0398,-3.0398,-3.0398,-3.0398,-3.0379,-3.0379,-3.0398,-3.0398,-3.0398,-3.0398,-3.0398,-3.039,-3.0402,-3.0447,-3.046,-1.1934,-1.2736,-1.3277,-1.3692,-1.4043,-1.4688,-1.5118,-1.5478,-1.6046,-1.6457,-1.674,-1.7256,-1.7854,-1.8398,-1.8815,-1.9251,-1.9448,-1.9978,-2.0359,-2.0723,-2.1144,-2.1547,-2.1902,-2.2324,-2.2678,-2.2979,-2.3523,-2.4036,-2.4558,-2.5153,-2.5721,-2.6279,-2.664,-2.6942,-2.7152,-2.7324,-2.7539,-2.7876,-2.8191,-2.8406,-2.8562,-2.8644,-2.8737,-2.8834,-2.8881,-2.8905,-2.8952,-2.8975,-2.8975,-2.9021,-2.9108,-2.9178,-2.92,-2.9304,-2.9347,-2.9347,-2.9365,-2.9368,-2.9411,-2.9451,-2.9491,-2.9549,-2.9626,-2.9683,-2.9755,-2.9773,-2.9771,-2.9771,-2.9789,-2.9771,-2.979,-2.9771,-2.9755,-2.9755,-2.97,-2.9737,-2.9737,-2.9718,-2.9736,-2.9771,-2.9789,-2.9825,-2.9842,-2.9893,-2.991,-2.9907,-2.9907,-2.9905,-2.9956,-3.0022,-3.0049,-3.0094,-3.0138,-3.0213,-3.0266,-3.0324,-3.0349,-3.0374,-3.0398,-3.0398,-3.0398,-3.0398,-3.0398,-3.0398,-3.0398,-3.0398,-3.0398,-3.0398,-3.0398,-3.041,-3.039,-3.0394,-3.0417,-3.046,-3.053,-1.1373,-1.1747,-1.2552,-1.3033,-1.3381,-1.4043,-1.446,-1.4775,-1.5352,-1.5758,-1.6114,-1.6853,-1.7412,-1.7865,-1.8344,-1.8774,-1.904,-1.946,-1.9862,-2.0258,-2.066,-2.1068,-2.1458,-2.1888,-2.231,-2.2694,-2.3157,-2.3653,-2.4162,-2.4639,-2.5307,-2.5974,-2.6382,-2.6742,-2.699,-2.7198,-2.7509,-2.7818,-2.8109,-2.83,-2.8458,-2.8562,-2.8637,-2.8694,-2.8785,-2.8834,-2.8887,-2.8905,-2.8929,-2.8952,-2.9044,-2.913,-2.9175,-2.924,-2.9283,-2.9323,-2.9323,-2.9304,-2.9286,-2.9328,-2.9388,-2.9429,-2.951,-2.9589,-2.9664,-2.97,-2.9699,-2.9699,-2.9681,-2.97,-2.97,-2.9682,-2.9664,-2.9645,-2.9626,-2.9626,-2.9626,-2.9645,-2.9664,-2.9699,-2.9754,-2.9754,-2.9825,-2.9859,-2.9893,-2.9891,-2.9907,-2.9905,-2.9972,-3.0038,-3.0064,-3.0094,-3.0157,-3.0213,-3.0279,-3.0324,-3.0349,-3.0374,-3.0398,-3.0398,-3.0398,-3.0398,-3.0398,-3.0398,-3.0398,-3.0398,-3.041,-3.039,-3.039,-3.039,-3.0402,-3.0436,-3.046,-3.053,-3.0606,-1.0681,-1.1066,-1.156,-1.2112,-1.2728,-1.3268,-1.3631,-1.3923,-1.446,-1.5108,-1.5768,-1.6379,-1.6888,-1.729,-1.781,-1.8236,-1.8614,-1.904,-1.946,-1.9862,-2.0271,-2.0673,-2.1068,-2.1458,-2.1841,-2.2296,-2.2754,-2.3246,-2.3681,-2.423,-2.4719,-2.5346,-2.5941,-2.64,-2.6742,-2.7103,-2.7478,-2.7719,-2.7968,-2.8136,-2.8219,-2.8353,-2.8458,-2.8492,-2.8619,-2.8694,-2.8767,-2.8815,-2.8834,-2.8881,-2.8952,-2.8998,-2.9085,-2.9152,-2.9197,-2.9218,-2.9218,-2.9218,-2.92,-2.9243,-2.9286,-2.9351,-2.9433,-2.9531,-2.9569,-2.957,-2.957,-2.957,-2.9589,-2.9589,-2.957,-2.957,-2.9569,-2.9512,-2.9511,-2.9511,-2.9511,-2.9531,-2.9569,-2.9626,-2.9645,-2.9701,-2.9755,-2.9825,-2.9859,-2.9893,-2.9891,-2.9924,-2.9988,-3.0053,-3.0064,-3.0094,-3.0157,-3.0213,-3.0279,-3.0312,-3.0337,-3.0374,-3.0398,-3.0398,-3.0398,-3.0398,-3.0398,-3.0398,-3.0398,-3.041,-3.039,-3.0402,-3.0394,-3.0394,-3.0436,-3.0499,-3.054,-3.0597,-3.0649,-1.0047,-1.0428,-1.0751,-1.1365,-1.2112,-1.2552,-1.2858,-1.3147,-1.3683,-1.4451,-1.5294,-1.5796,-1.6265,-1.6729,-1.719,-1.77,-1.8127,-1.856,-1.9028,-1.9448,-1.9862,-2.0271,-2.0623,-2.1019,-2.1444,-2.1888,-2.2402,-2.2889,-2.3275,-2.3867,-2.4369,-2.4879,-2.5443,-2.5941,-2.6487,-2.7023,-2.7386,-2.7539,-2.7719,-2.794,-2.8025,-2.8136,-2.8246,-2.8327,-2.844,-2.8562,-2.8619,-2.8694,-2.8737,-2.8785,-2.8834,-2.8905,-2.8952,-2.9021,-2.9067,-2.9089,-2.9112,-2.9112,-2.9112,-2.9178,-2.9222,-2.9328,-2.939,-2.9431,-2.9453,-2.9434,-2.9434,-2.9434,-2.9433,-2.9451,-2.9433,-2.9431,-2.9411,-2.937,-2.937,-2.9368,-2.939,-2.9431,-2.9471,-2.9512,-2.9569,-2.9608,-2.9701,-2.9773,-2.9841,-2.9874,-2.9924,-2.9956,-2.9988,-3.0034,-3.0079,-3.0109,-3.0157,-3.0213,-3.0279,-3.0292,-3.0337,-3.0374,-3.0398,-3.0398,-3.0398,-3.0398,-3.0398,-3.0398,-3.041,-3.039,-3.0402,-3.0425,-3.0417,-3.0398,-3.046,-3.055,-3.0606,-3.0649,-3.0668,-0.9716,-1.0047,-1.0238,-1.0807,-1.1553,-1.1934,-1.2243,-1.2605,-1.3147,-1.3803,-1.4588,-1.5167,-1.5642,-1.6046,-1.6637,-1.7134,-1.77,-1.8127,-1.8548,-1.9028,-1.95,-1.9862,-2.0169,-2.0573,-2.0957,-2.1458,-2.1935,-2.2449,-2.2889,-2.3465,-2.3952,-2.441,-2.4958,-2.5556,-2.6123,-2.6757,-2.7198,-2.7373,-2.7509,-2.7659,-2.7806,-2.7911,-2.8042,-2.8136,-2.8246,-2.8353,-2.8484,-2.8562,-2.8612,-2.8662,-2.8712,-2.8785,-2.8858,-2.8863,-2.8887,-2.8887,-2.8887,-2.8929,-2.8929,-2.9089,-2.9197,-2.9262,-2.9304,-2.9328,-2.9312,-2.9314,-2.9332,-2.933,-2.9328,-2.9326,-2.9283,-2.9262,-2.9243,-2.9243,-2.9262,-2.9243,-2.9307,-2.9349,-2.939,-2.9433,-2.9472,-2.9531,-2.9626,-2.9738,-2.9806,-2.9891,-2.9956,-2.9988,-3.0003,-3.0034,-3.0094,-3.0109,-3.0157,-3.0213,-3.0266,-3.0279,-3.0337,-3.0374,-3.0398,-3.0398,-3.0398,-3.0398,-3.0398,-3.041,-3.039,-3.0402,-3.0436,-3.0458,-3.0471,-3.0482,-3.054,-3.0606,-3.0676,-3.0722,-3.0711,-0.9022,-0.9344,-0.9658,-1.0034,-1.0618,-1.1185,-1.1622,-1.1988,-1.2666,-1.3268,-1.3863,-1.4519,-1.5118,-1.5584,-1.6114,-1.6616,-1.7245,-1.77,-1.8127,-1.8548,-1.9081,-1.9356,-1.9668,-2.0067,-2.0459,-2.0921,-2.141,-2.1983,-2.2586,-2.3068,-2.3551,-2.3994,-2.4639,-2.5329,-2.5941,-2.6538,-2.6859,-2.7006,-2.7198,-2.7355,-2.7509,-2.7617,-2.7736,-2.7893,-2.8025,-2.8164,-2.83,-2.8353,-2.8432,-2.851,-2.8536,-2.8587,-2.8619,-2.8644,-2.8644,-2.8694,-2.8718,-2.881,-2.8834,-2.8952,-2.9026,-2.9112,-2.9197,-2.9222,-2.9225,-2.9286,-2.9265,-2.9265,-2.9283,-2.9262,-2.924,-2.924,-2.924,-2.924,-2.9218,-2.9222,-2.9243,-2.9304,-2.9347,-2.9351,-2.9394,-2.9512,-2.9608,-2.9701,-2.9789,-2.9874,-2.9959,-3.0007,-3.0022,-3.0049,-3.0094,-3.0128,-3.0157,-3.0245,-3.0286,-3.0292,-3.0318,-3.0386,-3.0398,-3.0398,-3.0398,-3.039,-3.0402,-3.0414,-3.0406,-3.0406,-3.046,-3.052,-3.0567,-3.0593,-3.0629,-3.0665,-3.0695,-3.0737,-3.0767,-0.8441,-0.8694,-0.9075,-0.9402,-0.9792,-1.0491,-1.1059,-1.1498,-1.2182,-1.2736,-1.3208,-1.3812,-1.446,-1.4991,-1.5575,-1.6151,-1.6775,-1.7245,-1.77,-1.8127,-1.8614,-1.8934,-1.9198,-1.9565,-1.9965,-2.0422,-2.0858,-2.1444,-2.203,-2.2572,-2.3143,-2.3809,-2.4354,-2.4863,-2.5497,-2.603,-2.6469,-2.6657,-2.6858,-2.7038,-2.7198,-2.7341,-2.7448,-2.7612,-2.7806,-2.7968,-2.8053,-2.8164,-2.8264,-2.8291,-2.8327,-2.8335,-2.8406,-2.8414,-2.844,-2.8492,-2.8612,-2.8687,-2.8737,-2.8834,-2.8929,-2.8975,-2.9067,-2.913,-2.9152,-2.9175,-2.9152,-2.9175,-2.9218,-2.9218,-2.9197,-2.9197,-2.9218,-2.9218,-2.9218,-2.92,-2.92,-2.9262,-2.9304,-2.931,-2.9372,-2.9491,-2.9608,-2.9719,-2.9789,-2.9876,-2.9978,-3.001,-3.0038,-3.0064,-3.0123,-3.0157,-3.0171,-3.0226,-3.0279,-3.0305,-3.0343,-3.0398,-3.039,-3.0402,-3.0414,-3.0425,-3.0417,-3.0428,-3.0449,-3.0471,-3.053,-3.0586,-3.0637,-3.0656,-3.0697,-3.0711,-3.0743,-3.0767,-3.0794,-0.7987,-0.8052,-0.8511,-0.8829,-0.9081,-0.9856,-1.0548,-1.1059,-1.1553,-1.1988,-1.2359,-1.3147,-1.3743,-1.4273,-1.4864,-1.5565,-1.6255,-1.6775,-1.7245,-1.77,-1.8236,-1.8452,-1.8709,-1.9093,-1.9448,-1.985,-2.0308,-2.0858,-2.1423,-2.2156,-2.292,-2.3551,-2.3937,-2.4379,-2.4902,-2.5368,-2.5905,-2.6227,-2.6487,-2.6674,-2.6875,-2.7023,-2.7215,-2.7386,-2.7569,-2.7719,-2.7836,-2.795,-2.8053,-2.8126,-2.8164,-2.8191,-2.8219,-2.8273,-2.8273,-2.8353,-2.8484,-2.8536,-2.8612,-2.8712,-2.8761,-2.8834,-2.8929,-2.897,-2.9017,-2.9062,-2.9085,-2.9108,-2.913,-2.913,-2.9112,-2.9175,-2.9218,-2.9218,-2.9218,-2.9218,-2.92,-2.924,-2.9283,-2.9326,-2.9368,-2.947,-2.955,-2.9626,-2.9755,-2.9842,-2.9926,-3.0026,-3.0072,-3.0113,-3.0138,-3.0185,-3.0213,-3.0221,-3.026,-3.0299,-3.0336,-3.0402,-3.0406,-3.0417,-3.0428,-3.0439,-3.0479,-3.05,-3.051,-3.055,-3.0595,-3.0645,-3.0683,-3.0717,-3.0742,-3.0748,-3.0773,-3.0764,-3.0789,-0.6994,-0.7269,-0.7657,-0.8047,-0.8371,-0.9081,-0.9722,-1.0364,-1.0989,-1.149,-1.1794,-1.2482,-1.3147,-1.3743,-1.4401,-1.505,-1.5623,-1.6255,-1.6719,-1.7234,-1.77,-1.7963,-1.8236,-1.8602,-1.8934,-1.9344,-1.9798,-2.0359,-2.1055,-2.1813,-2.2526,-2.3113,-2.3421,-2.3794,-2.4173,-2.4599,-2.5176,-2.5684,-2.5977,-2.6243,-2.6504,-2.6657,-2.6892,-2.712,-2.7293,-2.743,-2.7582,-2.773,-2.7836,-2.7893,-2.7996,-2.8053,-2.8071,-2.8081,-2.8109,-2.8191,-2.8291,-2.8345,-2.8458,-2.8587,-2.8662,-2.8687,-2.8785,-2.8881,-2.8929,-2.8994,-2.9021,-2.9044,-2.9089,-2.9112,-2.9134,-2.9156,-2.9218,-2.9218,-2.9218,-2.9218,-2.924,-2.9262,-2.9323,-2.9344,-2.9368,-2.9411,-2.9492,-2.9589,-2.9701,-2.979,-2.9893,-2.9994,-3.0087,-3.0128,-3.0185,-3.0213,-3.0253,-3.026,-3.0299,-3.0336,-3.0359,-3.0394,-3.0428,-3.046,-3.0471,-3.051,-3.053,-3.0559,-3.0567,-3.0629,-3.068,-3.0697,-3.073,-3.0748,-3.0784,-3.0789,-3.0799,-3.0789,-3.0802,-0.6148,-0.6412,-0.6868,-0.7326,-0.7847,-0.8361,-0.8947,-0.9536,-1.0301,-1.0863,-1.1233,-1.1856,-1.2474,-1.3147,-1.3803,-1.4469,-1.5059,-1.5633,-1.6208,-1.6684,-1.7145,-1.7423,-1.7755,-1.8073,-1.8398,-1.8762,-1.9239,-1.9798,-2.0547,-2.1396,-2.2109,-2.254,-2.283,-2.3187,-2.3493,-2.3837,-2.4271,-2.4823,-2.5307,-2.5738,-2.603,-2.6295,-2.6538,-2.6742,-2.6956,-2.7166,-2.7324,-2.7461,-2.7582,-2.7672,-2.7795,-2.7813,-2.7824,-2.7836,-2.7968,-2.8081,-2.8182,-2.8237,-2.8345,-2.8432,-2.8502,-2.8562,-2.8637,-2.8712,-2.881,-2.8881,-2.8952,-2.8998,-2.9089,-2.9156,-2.9156,-2.9178,-2.9218,-2.924,-2.924,-2.924,-2.9262,-2.9323,-2.9344,-2.9365,-2.9388,-2.9412,-2.9472,-2.9569,-2.9664,-2.9756,-2.9842,-2.9959,-3.0053,-3.0128,-3.0185,-3.0213,-3.0247,-3.0299,-3.0336,-3.034,-3.0394,-3.0428,-3.049,-3.052,-3.053,-3.0568,-3.0604,-3.0637,-3.0668,-3.069,-3.0711,-3.0736,-3.0759,-3.0774,-3.0789,-3.0798,-3.0802,-3.0786,-3.0798,-0.5355,-0.555,-0.6075,-0.6732,-0.7391,-0.7772,-0.8102,-0.8511,-0.9408,-1.0168,-1.0737,-1.1233,-1.1794,-1.2413,-1.3078,-1.3743,-1.4341,-1.4923,-1.5507,-1.6056,-1.6467,-1.6807,-1.7145,-1.7479,-1.7799,-1.8236,-1.8709,-1.9226,-1.9914,-2.0709,-2.1396,-2.1902,-2.2231,-2.2526,-2.283,-2.3201,-2.3537,-2.3921,-2.4542,-2.502,-2.5519,-2.5852,-2.6139,-2.6367,-2.6657,-2.6957,-2.707,-2.723,-2.7404,-2.7434,-2.7496,-2.7526,-2.7587,-2.763,-2.7777,-2.7911,-2.8025,-2.8081,-2.8164,-2.8273,-2.8345,-2.8424,-2.8502,-2.8562,-2.8619,-2.881,-2.8905,-2.8975,-2.9044,-2.9112,-2.9175,-2.9178,-2.92,-2.924,-2.924,-2.924,-2.924,-2.9302,-2.9323,-2.9326,-2.9349,-2.9373,-2.9433,-2.9531,-2.9645,-2.9719,-2.9827,-2.9926,-3.0022,-3.0128,-3.0185,-3.0207,-3.0273,-3.0323,-3.0348,-3.0371,-3.0406,-3.0449,-3.052,-3.0588,-3.0595,-3.0637,-3.0703,-3.0704,-3.0724,-3.0716,-3.0728,-3.075,-3.0765,-3.0789,-3.0782,-3.0798,-3.0804,-3.0804,-3.0807,-0.4356,-0.4686,-0.5352,-0.5947,-0.647,-0.6863,-0.7326,-0.7787,-0.8242,-0.9087,-0.9983,-1.0548,-1.1052,-1.1615,-1.229,-1.2964,-1.3563,-1.4154,-1.4746,-1.5284,-1.5768,-1.6114,-1.64,-1.6797,-1.719,-1.7523,-1.8007,-1.8643,-1.9384,-2.0093,-2.0646,-2.1104,-2.1492,-2.1874,-2.2203,-2.2572,-2.2904,-2.3157,-2.358,-2.4256,-2.4847,-2.5253,-2.5572,-2.5868,-2.6208,-2.6504,-2.6708,-2.6925,-2.7087,-2.7198,-2.7355,-2.7434,-2.7496,-2.7539,-2.76,-2.7689,-2.7777,-2.7836,-2.7922,-2.8053,-2.8154,-2.8209,-2.8291,-2.8327,-2.8458,-2.8687,-2.8834,-2.8929,-2.9017,-2.9085,-2.913,-2.9156,-2.9178,-2.9218,-2.9218,-2.9218,-2.9218,-2.924,-2.928,-2.9286,-2.933,-2.9372,-2.9412,-2.9511,-2.9626,-2.9719,-2.9827,-2.9945,-3.0007,-3.0098,-3.0199,-3.0234,-3.0267,-3.0316,-3.034,-3.0406,-3.0439,-3.0491,-3.0559,-3.0604,-3.0673,-3.0717,-3.0749,-3.0773,-3.0769,-3.0755,-3.0765,-3.0778,-3.079,-3.079,-3.0813,-3.0827,-3.0813,-3.0813,-3.0836,-0.3556,-0.4025,-0.4761,-0.5289,-0.5683,-0.6148,-0.6605,-0.6994,-0.7396,-0.7987,-0.8829,-0.9594,-1.0295,-1.0863,-1.149,-1.2112,-1.272,-1.3312,-1.3965,-1.4569,-1.5001,-1.541,-1.5758,-1.6104,-1.6446,-1.6832,-1.7446,-1.8147,-1.8845,-1.9307,-1.9761,-2.0295,-2.0759,-2.1153,-2.1444,-2.1841,-2.2231,-2.2526,-2.2799,-2.3319,-2.4074,-2.4527,-2.502,-2.5406,-2.5721,-2.603,-2.6295,-2.6504,-2.6708,-2.6875,-2.6989,-2.7152,-2.7215,-2.7247,-2.7341,-2.7417,-2.7509,-2.76,-2.7689,-2.7795,-2.7911,-2.7968,-2.8081,-2.8164,-2.8273,-2.8484,-2.8612,-2.8712,-2.8858,-2.8929,-2.897,-2.8975,-2.8998,-2.9021,-2.9044,-2.9044,-2.9085,-2.9108,-2.9152,-2.9178,-2.9243,-2.9307,-2.937,-2.9453,-2.955,-2.9608,-2.9737,-2.9895,-2.9975,-3.0083,-3.0185,-3.0247,-3.0299,-3.0328,-3.0364,-3.0428,-3.049,-3.054,-3.0586,-3.0661,-3.073,-3.0767,-3.0794,-3.0789,-3.0798,-3.0782,-3.079,-3.0798,-3.0801,-3.0801,-3.0827,-3.0852,-3.0838,-3.0827,-3.0849,-0.2958,-0.3496,-0.4161,-0.4625,-0.5024,-0.5495,-0.5951,-0.6272,-0.6609,-0.7003,-0.7587,-0.856,-0.9332,-1.004,-1.0667,-1.124,-1.1856,-1.2466,-1.3122,-1.3734,-1.4163,-1.4519,-1.4932,-1.5342,-1.5748,-1.6255,-1.6866,-1.7435,-1.805,-1.8459,-1.8939,-1.9448,-1.9901,-2.0295,-2.0709,-2.1118,-2.1506,-2.1841,-2.2109,-2.2434,-2.3084,-2.3822,-2.4405,-2.4823,-2.5192,-2.5497,-2.5758,-2.5994,-2.6279,-2.6453,-2.6573,-2.6742,-2.6859,-2.6892,-2.6973,-2.7053,-2.7198,-2.7261,-2.7355,-2.7448,-2.76,-2.7701,-2.7836,-2.7968,-2.8081,-2.8219,-2.8353,-2.8484,-2.8637,-2.8761,-2.8761,-2.8785,-2.8834,-2.8858,-2.8858,-2.8863,-2.8929,-2.897,-2.8998,-2.9044,-2.9152,-2.924,-2.9307,-2.9392,-2.9472,-2.9531,-2.9645,-2.9771,-2.9907,-3.0053,-3.0157,-3.0253,-3.0299,-3.0328,-3.0386,-3.0449,-3.051,-3.0577,-3.0629,-3.0704,-3.0759,-3.0784,-3.0802,-3.0794,-3.0801,-3.082,-3.0824,-3.0827,-3.083,-3.0813,-3.0845,-3.087,-3.0837,-3.0839,-3.0859,-0.2488,-0.3092,-0.336,-0.3828,-0.4434,-0.4767,-0.51,-0.5624,-0.5951,-0.6346,-0.6806,-0.7199,-0.7917,-0.9151,-0.9779,-1.0408,-1.0982,-1.1538,-1.2166,-1.2781,-1.326,-1.3623,-1.4043,-1.4519,-1.5059,-1.5565,-1.613,-1.6652,-1.7101,-1.76,-1.8147,-1.8685,-1.9279,-1.9683,-2.0003,-2.0409,-2.0809,-2.1104,-2.1396,-2.1732,-2.2235,-2.2995,-2.3709,-2.4116,-2.4446,-2.4823,-2.5192,-2.546,-2.5684,-2.5868,-2.6068,-2.6227,-2.6349,-2.6418,-2.6505,-2.6573,-2.6725,-2.6825,-2.6923,-2.7053,-2.7164,-2.7338,-2.7478,-2.763,-2.7766,-2.794,-2.8053,-2.8136,-2.83,-2.851,-2.8562,-2.8612,-2.8637,-2.8637,-2.8662,-2.8669,-2.8718,-2.8767,-2.8791,-2.8905,-2.9017,-2.9108,-2.9218,-2.9289,-2.9394,-2.9492,-2.9626,-2.9754,-2.9874,-3.0022,-3.0147,-3.0226,-3.0299,-3.0348,-3.0406,-3.046,-3.053,-3.0595,-3.0661,-3.0736,-3.076,-3.079,-3.0804,-3.0807,-3.0852,-3.0875,-3.0877,-3.0862,-3.088,-3.0864,-3.0875,-3.0879,-3.0839,-3.0816,-3.0831]}]]